[[{"header":{"parameterUnit":"m.s-1","parameterCategory":1,"la1":31.0,"la2":29.5877,"lo1":-88.7671,"lo2":-86.6584,"dy":0.0162,"dx":0.0185,"nx":115,"ny":88,"refTime":"2023-10-24T00:00:00:Z","depth":0,"parameterNumber":2,"parameterNumberName":"U-component_of_WINDS"},"data":[0.0,0.0,0.0,0.0,0.0,0.0,0.0,0.0,0.0,0.0,0.0,0.0,0.0,0.0,0.0,0.0,0.0,0.0,0.0,0.0,0.0,0.0,0.0,0.0,0.0,0.0,0.0,0.0,0.0,0.0,0.0,0.0,0.0,0.0,0.0,0.0,0.0,0.0,0.0,0.0,0.0,0.0,0.0,0.0,0.0,0.0,0.0,0.0,0.0,0.0,0.0,0.0,0.0,0.0,0.0,0.0,0.0,0.0,0.0,0.0,0.0,0.0,0.0,0.0,0.0,0.0,0.0,0.0,0.0,0.0,0.0,0.0,0.0,0.0,0.0,0.0,0.0,0.0,0.0,0.0,0.0,0.0,0.0,0.0,0.0,0.0,0.0,0.0,0.0,0.0,0.0,0.0,0.0,0.0,0.0,0.0,0.0,0.0,0.0,0.0,0.0,0.0,0.0,0.0,0.0,0.0,0.0,0.0,0.0,0.0,0.0,0.0,0.0,0.0,0.0,0.0,0.0,0.0,0.0,0.0,0.0,0.0,0.0,0.0,0.0,0.0,0.0,0.0,0.0,0.0,0.0,0.0,0.0,0.0,0.0,0.0,0.0,0.0,0.0,0.0,0.0,0.0,0.0,0.0,0.0,0.0,0.0,0.0,0.0,0.0,0.0,0.0,0.0,0.0,0.0,0.0,0.0,0.0,0.0,0.0,0.0,0.0,0.0,0.0,0.0,0.0,0.0,0.0,0.0,0.0,0.0,0.0,0.0,0.0,0.0,0.0,0.0,0.0,0.0,0.0,0.0,0.0,0.0,0.0,0.0,0.0,0.0,0.0,0.0,0.0,0.0,0.0,0.0,0.0,0.0,0.0,0.0,0.0,0.0,0.0,0.0,0.0,0.0,0.0,0.0,0.0,0.0,0.0,0.0,0.0,0.0,0.0,0.0,0.0,0.0,0.0,0.0,0.0,0.0,0.0,0.0,0.0,0.0,0.0,0.0,0.0,0.0,0.0,0.0,0.0,0.0,0.0,0.0,0.0,0.0,0.0,0.0,0.0,0.0,0.0,0.0,0.0,0.0,0.0,0.0,0.0,0.0,0.0,0.0,0.0,0.0,0.0,0.0,0.0,0.0,0.0,0.0,0.0,0.0,0.0,0.0,0.0,0.0,0.0,0.0,0.0,0.0,0.0,0.0,0.0,0.0,0.0,0.0,0.0,0.0,0.0,0.0,0.0,0.0,0.0,0.0,0.0,0.0,0.0,0.0,0.0,0.0,0.0,0.0,0.0,0.0,0.0,0.0,0.0,0.0,0.0,0.0,0.0,0.0,0.0,0.0,0.0,0.0,0.0,0.0,0.0,0.0,0.0,0.0,0.0,0.0,0.0,0.0,0.0,0.0,0.0,0.0,0.0,0.0,0.0,0.0,0.0,0.0,0.0,0.0,0.0,0.0,0.0,0.0,0.0,0.0,0.0,0.0,0.0,0.0,0.0,0.0,0.0,0.0,0.0,0.0,0.0,0.0,0.0,0.0,0.0,0.0,0.0,0.0,0.0,0.0,0.0,0.0,0.0,0.0,0.0,0.0,0.0,0.0,0.0,0.0,0.0,0.0,0.0,0.0,0.0,0.0,0.0,0.0,0.0,0.0,0.0,0.0,0.0,0.0,0.0,0.0,0.0,0.0,0.0,0.0,0.0,0.0,0.0,0.0,0.0,0.0,0.0,0.0,0.0,0.0,0.0,0.0,0.0,0.0,0.0,0.0,0.0,0.0,0.0,0.0,0.0,0.0,0.0,0.0,0.0,0.0,0.0,0.0,0.0,0.0,0.0,0.0,0.0,0.0,0.0,0.0,0.0,0.0,0.0,0.0,0.0,0.0,0.0,0.0,0.0,0.0,0.0,0.0,0.0,0.0,0.0,0.0,0.0,0.0,0.0,0.0,0.0,0.0,0.0,0.0,0.0,0.0,0.0,0.0,0.0,0.0,0.0,0.0,0.0,0.0,0.0,0.0,0.0,0.0,0.0,0.0,0.0,0.0,0.0,0.0,0.0,0.0,0.0,0.0,0.0,0.0,0.0,0.0,0.0,0.0,0.0,0.0,0.0,0.0,0.0,0.0,0.0,0.0,0.0,0.0,0.0,0.0,0.0,0.0,0.0,0.0,0.0,0.0,0.0,0.0,0.0,0.0,0.0,0.0,0.0,0.0,0.0,0.0,0.0,0.0,0.0,0.0,0.0,0.0,0.0,0.0,0.0,0.0,0.0,0.0,0.0,0.0,0.0,0.0,0.0,0.0,0.0,0.0,0.0,0.0,0.0,0.0,0.0,0.0,0.0,0.0,0.0,0.0,0.0,0.0,0.0,0.0,0.0,0.0,0.0,0.0,0.0,0.0,0.0,0.0,0.0,0.0,0.0,0.0,0.0,0.0,0.0,0.0,0.0,0.0,0.0,0.0,0.0,0.0,0.0,0.0,0.0,0.0,0.0,0.0,0.0,0.0,0.0,0.0,0.0,0.0,0.0,0.0,0.0,0.0,0.0,0.0,0.0,0.0,0.0,0.0,0.0,0.0,0.0,0.0,0.0,0.0,0.0,0.0,0.0,0.0,0.0,0.0,0.0,0.0,0.0,0.0,0.0,0.0,0.0,0.0,0.0,0.0,0.0,0.0,0.0,0.0,0.0,0.0,0.0,0.0,0.0,0.0,0.0,0.0,0.0,0.0,0.0,0.0,0.0,0.0,0.0,0.0,0.0,0.0,0.0,0.0,0.0,0.0,0.0,0.0,0.0,0.0,0.0,0.0,0.0,0.0,0.0,0.0,0.0,0.0,0.0,0.0,0.0,0.0,0.0,0.0,0.0,0.0,0.0,0.0,0.0,0.0,0.0,0.0,0.0,0.0,0.0,0.0,0.0,0.0,0.0,0.0,0.0,0.0,0.0,0.0,0.0,0.0,0.0,0.0,0.0,0.0,0.0,0.0,0.0,0.0,0.0,0.0,0.0,0.0,0.0,0.0,0.0,0.0,0.0,0.0,0.0,0.0,0.0,0.0,0.0,0.0,0.0,0.0,0.0,0.0,0.0,0.0,0.0,0.0,0.0,0.0,0.0,0.0,0.0,0.0,0.0,0.0,0.0,0.0,0.0,0.0,0.0,0.0,0.0,0.0,0.0,0.0,0.0,0.0,0.0,0.0,0.0,0.0,0.0,0.0,0.0,0.0,0.0,0.0,0.0,0.0,0.0,0.0,0.0,0.0,0.0,0.0,0.0,0.0,0.0,0.0,0.0,0.0,0.0,0.0,0.0,0.0,0.0,0.0,0.0,0.0,0.0,0.0,0.0,0.0,0.0,0.0,0.0,0.0,0.0,0.0,0.0,0.0,0.0,0.0,0.0,0.0,0.0,0.0,0.0,0.0,0.0,0.0,0.0,0.0,0.0,0.0,0.0,0.0,0.0,0.0,0.0,0.0,0.0,0.0,0.0,0.0,0.0,0.0,0.0,0.0,0.0,0.0,0.0,0.0,0.0,0.0,0.0,0.0,0.0,0.0,0.0,0.0,0.0,0.0,0.0,0.0,0.0,0.0,0.0,0.0,0.0,0.0,0.0,0.0,0.0,0.0,0.0,0.0,0.0,0.0,0.0,0.0,0.0,0.0,0.0,0.0,0.0,0.0,0.0,0.0,0.0,0.0,0.0,0.0,0.0,0.0,0.0,0.0,0.0,0.0,0.0,0.0,0.0,0.0,0.0,0.0,0.0,0.0,0.0,0.0,0.0,0.0,0.0,0.0,0.0,0.0,0.0,0.0,0.0,0.0,0.0,0.0,0.0,0.0,0.0,0.0,0.0,0.0,0.0,0.0,0.0,0.0,0.0,0.0,0.0,0.0,0.0,0.0,0.0,0.0,0.0,0.0,0.0,0.0,0.0,0.0,0.0,0.0,0.0,0.0,0.0,0.0,0.0,0.0,0.0,0.0,0.0,0.0,0.0,0.0,0.0,0.0,0.0,0.0,0.0,0.0,0.0,0.0,0.0,0.0,0.0,0.0,0.0,0.0,0.0,0.0,0.0,0.0,0.0,0.0,0.0,0.0,0.0,0.0,0.0,0.0,0.0,0.0,0.0,0.0,0.0,0.0,0.0,0.0,0.0,0.0,0.0,0.0,0.0,0.0,0.0,0.0,0.0,0.0,0.0,0.0,0.0,0.0,0.0,0.0,0.0,0.0,0.0,0.0,0.0,0.0,0.0,0.0,0.0,0.0,0.0,0.0,0.0,0.0,0.0,0.0,0.0,0.9893,0.0,0.0,0.0,0.0,0.0,0.0,0.0,0.0,0.0,0.0,0.0,0.0,0.0,0.0,0.0,0.0,0.0,0.0,0.0,0.0,0.0,0.0,0.0,0.0,0.0,0.0,0.0,0.0,0.0,0.0,0.0,0.0,0.0,0.0,0.0,0.0,0.0,0.0,0.0,0.0,0.0,0.0,0.0,0.0,0.0,0.0,0.0,0.0,0.0,0.0,0.0,0.0,0.0,0.0,0.0,0.0,0.0,0.0,0.0,0.0,0.0,0.0,0.0,0.0,0.0,0.0,0.0,0.0,0.0,0.0,0.0,0.0,0.0,0.0,0.0,0.0,0.0,0.0,0.0,0.0,0.0,0.0,0.0,0.0,0.0,0.0,0.0,0.0,0.0,0.0,0.0,0.0,0.0,0.0,0.0,0.0,0.0,0.0,0.0,0.0,0.0,0.0,0.0,0.0,0.0,0.0,0.0,0.0,0.0,0.0,1.0338,1.0338,1.0056,0.9893,0.9893,0.0,0.0,0.0,0.0,0.0,0.0,0.0,0.0,0.0,0.0,0.0,0.0,0.0,0.0,0.0,0.0,0.0,0.0,0.0,0.0,0.0,0.0,0.0,0.0,0.0,0.0,0.0,0.0,0.0,0.0,0.0,0.0,0.0,0.0,0.0,0.0,0.0,0.0,0.0,0.0,0.0,0.0,0.0,0.0,0.0,0.0,0.0,0.0,0.0,0.0,0.0,0.0,0.0,0.0,0.0,0.0,0.0,0.0,0.0,0.0,0.0,0.0,0.0,0.0,0.0,0.0,0.0,0.0,0.0,0.0,0.0,0.0,0.0,0.0,0.0,0.0,0.0,0.0,0.0,0.0,0.0,0.0,0.0,0.0,0.0,0.0,0.0,0.0,0.0,0.0,0.0,0.0,0.0,0.0,0.0,0.0,0.0,0.0,0.0,0.0,0.0,0.0,0.0,0.0,0.0,0.0,0.0,0.0,0.0,0.0,0.0,0.0,1.0501,1.0282,1.0282,0.0,0.0,0.0,0.0,0.0,0.0,0.0,0.0,0.0,0.0,0.0,0.0,0.0,0.0,0.0,0.0,0.0,0.0,0.0,0.0,0.0,0.0,0.0,0.0,0.0,0.0,0.0,0.0,0.0,0.0,0.0,0.0,0.0,0.0,0.0,0.0,0.0,0.0,0.0,0.0,0.0,0.0,0.0,0.0,0.0,0.0,0.0,0.0,0.0,0.0,0.0,0.0,0.0,0.0,0.0,0.0,0.0,0.0,0.0,0.0,0.0,0.0,0.0,0.0,0.0,0.0,0.0,0.0,0.0,0.0,0.0,0.0,0.0,0.0,0.0,0.0,0.0,0.0,0.0,0.0,0.0,0.0,0.0,0.0,0.0,0.0,0.0,0.0,0.0,0.0,0.0,0.0,0.0,0.0,0.0,0.0,0.0,0.0,0.0,0.0,0.0,0.0,0.0,0.0,0.0,0.0,0.0,0.0,0.0,0.0,1.152,1.152,1.1462,0.0,1.1459,0.0,0.0,0.0,0.0,0.0,0.0,0.0,0.0,0.0,0.0,0.0,0.0,0.0,0.0,0.0,0.0,0.0,0.0,0.0,0.0,0.0,0.0,0.0,0.0,0.0,0.0,0.0,0.0,0.0,0.0,0.0,0.0,0.0,0.0,0.0,0.0,0.0,0.0,0.0,0.0,0.0,0.0,0.0,0.0,0.0,0.0,0.0,0.0,0.0,0.0,0.0,0.0,0.0,0.0,0.0,0.0,0.0,0.0,0.0,0.0,0.0,0.0,0.0,0.0,0.0,0.0,0.0,0.0,0.0,0.0,0.0,0.0,0.0,0.0,0.0,0.0,0.0,0.0,0.0,0.0,0.0,0.0,0.0,0.0,0.0,0.0,0.0,0.0,0.0,0.0,0.0,0.0,0.0,0.0,0.0,0.0,0.0,0.0,0.0,0.0,0.0,0.0,0.0,0.0,0.0,0.0,0.0,0.0,0.0,0.0,1.2077,1.2085,1.1771,1.1603,0.0,0.0,0.0,0.0,0.0,0.0,0.0,0.0,0.0,0.0,0.0,0.0,0.0,0.0,0.0,0.0,0.0,0.0,0.0,0.0,0.0,0.0,0.0,0.0,0.0,0.0,0.0,0.0,0.0,0.0,0.0,0.0,0.0,0.0,0.0,0.0,0.0,0.0,0.0,0.0,0.0,0.0,0.0,0.0,0.0,0.0,0.0,0.0,0.0,0.0,0.0,0.0,0.0,0.0,0.0,0.0,0.0,0.0,0.0,0.0,0.0,0.0,0.0,0.0,0.0,0.0,0.0,0.0,0.0,0.0,0.0,0.0,0.0,0.0,0.0,0.0,0.0,0.0,0.0,0.0,0.0,0.0,0.0,0.0,0.0,0.0,0.0,0.0,0.0,0.0,0.0,0.0,0.0,0.0,0.0,0.0,0.0,0.0,0.0,0.0,0.0,0.0,0.0,0.0,0.0,0.0,0.0,0.0,0.0,0.0,1.2826,1.2618,1.2622,1.2245,1.2052,1.2048,0.0,0.0,0.0,0.0,0.0,0.0,0.0,0.0,0.0,0.0,0.0,0.0,0.0,0.0,0.0,0.0,0.0,0.0,0.0,0.0,0.0,0.0,0.0,0.0,0.0,0.0,0.0,0.0,0.0,0.0,0.0,0.0,0.0,0.0,0.0,0.0,0.0,0.0,0.0,0.0,0.0,0.0,0.0,0.0,0.0,0.0,0.0,0.0,0.0,0.0,0.0,0.0,0.0,0.0,0.0,0.0,0.0,0.0,0.0,0.0,0.0,0.0,0.0,0.0,0.0,0.0,0.0,0.0,0.0,0.0,0.0,0.0,0.0,0.0,0.0,0.0,0.0,0.0,0.0,0.0,0.0,0.0,0.0,0.0,0.0,0.0,0.0,0.0,0.0,0.0,0.0,0.0,0.0,0.0,0.0,0.0,0.0,0.0,0.0,0.0,0.0,0.0,0.0,0.0,0.0,0.0,0.0,0.0,1.3219,1.3181,1.3169,1.3148,1.3135,1.3123,0.0,0.0,0.0,0.0,0.0,0.0,0.0,0.0,0.0,0.0,0.0,0.0,0.0,0.0,0.0,0.0,0.0,0.0,0.0,0.0,0.0,0.0,0.0,0.0,0.0,0.0,0.0,0.0,0.0,0.0,0.0,0.0,0.0,0.0,0.0,0.0,0.0,0.0,0.0,0.0,0.0,0.0,0.0,0.0,0.0,0.0,0.0,0.0,0.0,0.0,0.0,0.0,0.0,0.0,0.0,0.0,0.0,0.0,0.0,0.0,0.0,0.0,0.0,0.0,0.0,0.0,0.0,0.0,0.0,0.0,0.0,0.0,0.0,0.0,0.0,0.0,0.0,0.0,0.0,0.0,0.0,0.0,0.0,0.0,0.0,0.0,0.0,0.0,0.0,0.0,0.0,0.0,0.0,0.0,0.0,0.0,0.0,0.0,0.0,0.0,0.0,0.0,0.0,0.0,0.0,0.0,0.0,0.0,0.0,1.3219,1.3219,1.3219,1.3219,1.3219,1.3219,0.0,0.0,0.0,0.0,0.0,0.0,0.0,0.0,0.0,0.0,0.0,0.0,0.0,0.0,0.0,0.0,0.0,0.0,0.0,0.0,0.0,0.0,0.0,0.0,0.0,0.0,0.0,0.0,0.0,0.0,0.0,0.0,0.0,0.0,0.0,0.0,0.0,0.0,0.0,0.0,0.0,0.0,0.0,0.0,0.0,0.0,0.0,0.0,0.0,0.0,0.0,0.0,0.0,0.0,0.0,0.0,0.0,0.0,0.0,0.0,0.0,0.0,0.0,0.0,0.0,0.0,0.0,0.0,0.0,0.0,0.0,0.0,0.0,0.0,0.0,0.0,0.0,0.0,0.0,0.0,0.0,0.0,0.0,0.0,0.0,0.0,0.0,0.0,0.0,0.0,0.0,0.0,0.0,0.0,0.0,0.0,0.0,0.0,0.0,0.0,0.0,0.0,0.0,0.0,0.0,0.0,0.0,0.0,0.0,1.3012,0.0,1.2911,1.3004,1.3004,1.3077,0.0,0.0,0.0,0.0,0.0,0.0,0.0,0.0,0.0,0.0,0.0,0.0,0.0,0.0,0.0,0.0,0.0,0.0,0.0,0.0,0.0,0.0,0.0,0.0,0.0,0.0,0.0,0.0,0.0,0.0,0.0,0.0,0.0,0.0,0.0,0.0,0.0,0.0,0.0,0.0,0.0,0.0,0.0,0.0,0.0,0.0,0.0,0.0,0.0,0.0,0.0,0.0,0.0,0.0,0.0,0.0,0.0,0.0,0.0,0.0,0.0,0.0,0.0,0.0,0.0,0.0,0.0,0.0,0.0,0.0,0.0,0.0,0.0,0.0,0.0,0.0,0.0,0.0,0.0,0.0,0.0,0.0,0.0,0.0,0.0,0.0,0.0,0.0,0.0,0.0,0.0,0.0,0.0,0.0,0.0,0.0,0.0,0.0,0.0,0.0,0.0,0.0,0.0,0.0,0.0,0.0,0.0,0.0,1.3004,1.2629,1.2303,1.2312,1.2585,1.262,1.2787,0.0,0.0,0.0,0.0,0.0,0.0,0.0,0.0,0.0,0.0,0.0,0.0,0.0,0.0,0.0,0.0,0.0,0.0,0.0,0.0,0.0,0.0,0.0,0.0,0.0,0.0,0.0,0.0,0.0,0.0,0.0,0.0,0.0,0.0,0.0,0.0,0.0,0.0,0.0,0.0,0.0,0.0,0.0,0.0,0.0,0.0,0.0,0.0,0.0,0.0,0.0,0.0,0.0,0.0,0.0,0.0,0.0,0.0,0.0,0.0,0.0,0.0,0.0,0.0,0.0,0.0,0.0,0.0,0.0,0.0,0.0,0.0,0.0,0.0,0.0,0.0,0.0,0.0,0.0,0.0,0.0,0.0,0.0,0.0,0.0,0.0,0.0,0.0,0.0,0.0,0.0,0.0,0.0,0.0,0.0,0.0,0.0,0.0,0.0,0.0,0.0,0.0,0.0,0.0,0.0,0.0,0.0,0.0,0.0,1.2995,1.2407,1.2264,1.2585,1.2603,1.2664,0.0,0.0,0.0,0.0,0.0,0.0,0.0,0.0,0.0,0.0,0.0,0.0,0.0,0.0,0.0,0.0,0.0,0.0,0.0,0.0,0.0,0.0,0.0,0.0,0.0,0.0,0.0,0.0,0.0,0.0,0.0,0.0,0.0,0.0,0.0,0.0,0.0,0.0,0.0,0.0,0.0,0.0,0.0,0.0,0.0,0.0,0.0,0.0,0.0,0.0,0.0,0.0,0.0,0.0,0.0,0.0,0.0,0.0,0.0,0.0,0.0,0.0,0.0,0.0,0.0,0.0,0.0,0.0,0.0,0.0,0.0,0.0,0.0,0.0,0.0,0.0,0.0,0.0,0.0,0.0,0.0,0.0,0.0,0.0,0.0,0.0,0.0,0.0,0.0,0.0,0.0,0.0,0.0,0.0,0.0,0.0,0.0,0.0,0.0,0.0,0.0,0.0,0.0,0.0,0.0,0.0,0.0,0.0,0.0,1.2957,1.2295,1.2092,1.2443,1.2443,1.2496,1.2606,0.0,0.0,0.0,0.0,0.0,0.0,0.0,0.0,0.0,0.0,0.0,0.0,0.0,0.0,0.0,0.0,0.0,0.0,0.0,0.0,0.0,0.0,0.0,0.0,0.0,0.0,0.0,0.0,0.0,0.0,0.0,0.0,0.0,0.0,0.0,0.0,0.0,0.0,0.0,0.0,0.0,0.0,0.0,0.0,0.0,0.0,0.0,0.0,0.0,0.0,0.0,0.0,0.0,0.0,0.0,0.0,0.0,0.0,0.0,0.0,0.0,0.0,0.0,0.0,0.0,0.0,0.0,0.0,0.0,0.0,0.0,0.0,0.0,0.0,0.0,0.0,0.0,0.0,0.0,0.0,0.0,0.0,0.0,0.0,0.0,0.0,0.0,0.0,0.0,0.0,0.0,0.0,0.0,0.0,0.0,0.0,0.0,0.0,0.0,0.0,0.0,0.0,0.0,0.0,0.0,0.0,0.0,0.0,1.2701,1.2025,1.1866,1.2223,1.224,1.2337,0.0,0.0,0.0,0.0,0.0,0.0,0.0,0.0,0.0,0.0,0.0,0.0,0.0,0.0,0.0,0.0,0.0,0.0,0.0,0.0,0.0,0.0,0.0,0.0,0.0,0.0,0.0,0.0,0.0,0.0,0.0,0.0,0.0,0.0,0.0,0.0,0.0,0.0,0.0,0.0,0.0,0.0,0.0,0.0,0.0,0.0,0.0,0.0,0.0,0.0,0.0,0.0,0.0,0.0,0.0,0.0,0.0,0.0,0.0,0.0,0.0,0.0,0.0,0.0,0.0,0.0,0.0,0.0,0.0,0.0,0.0,0.0,0.0,0.0,0.0,0.0,0.0,0.0,0.0,0.0,0.0,0.0,0.0,0.0,0.0,0.0,0.0,0.0,0.0,0.0,0.0,0.0,0.0,0.0,0.0,0.0,0.0,0.0,0.0,0.0,0.0,0.0,0.0,0.0,0.0,0.0,0.0,0.0,0.0,1.2764,1.2626,1.2593,1.2652,1.2603,1.2485,0.0,0.0,0.0,0.0,0.0,0.0,0.0,0.0,0.0,0.0,0.0,0.0,0.0,0.0,0.0,0.0,0.0,0.0,0.0,0.0,0.0,0.0,0.0,0.0,0.0,0.0,0.0,0.0,0.0,0.0,0.0,0.0,0.0,0.0,0.0,0.0,0.0,0.0,0.0,0.0,0.0,0.0,0.0,0.0,0.0,0.0,0.0,0.0,0.0,0.0,0.0,0.0,0.0,0.0,0.0,0.0,0.0,0.0,0.0,0.0,0.0,0.0,0.0,0.0,0.0,0.0,0.0,0.0,0.0,0.0,0.0,0.0,0.0,0.0,0.0,0.0,0.0,0.0,0.0,0.0,0.0,0.0,0.0,0.0,0.0,0.0,0.0,0.0,0.0,0.0,0.0,0.0,0.0,0.0,0.0,0.0,0.0,0.0,0.0,0.0,0.0,0.0,0.0,0.0,0.0,0.0,0.0,0.0,1.2655,1.2521,1.2964,1.3174,1.3136,1.2688,1.2436,0.0,0.0,0.0,0.0,0.0,0.0,0.0,0.0,0.0,0.0,0.0,0.0,0.0,0.0,0.0,0.0,0.0,0.0,0.0,0.0,0.0,0.0,0.0,0.0,0.0,0.0,0.0,0.0,0.0,0.0,0.0,0.0,0.0,0.0,0.0,0.0,0.0,0.0,0.0,0.0,0.0,0.0,0.0,0.0,0.0,0.0,0.0,0.0,0.0,0.0,0.0,0.0,0.0,0.0,0.0,0.0,0.0,0.0,0.0,0.0,0.0,0.0,0.0,0.0,0.0,0.0,0.0,0.0,0.0,0.0,0.0,0.0,0.0,0.0,0.0,0.0,0.0,0.0,0.0,0.0,0.0,0.0,0.0,0.0,0.0,0.0,0.0,0.0,0.0,0.0,0.0,0.0,0.0,0.0,0.0,0.0,0.0,0.0,0.0,0.0,0.0,0.0,0.0,0.0,0.0,0.0,0.0,0.0,1.2595,1.2187,1.3108,1.361,1.3589,1.2664,1.232,0.0,0.0,0.0,0.0,0.0,0.0,0.0,0.0,0.0,0.0,0.0,0.0,0.0,0.0,0.0,0.0,0.0,0.0,0.0,0.0,0.0,0.0,0.0,0.0,0.0,0.0,0.0,0.0,0.0,0.0,0.0,0.0,0.0,0.0,0.0,0.0,0.0,0.0,0.0,0.0,0.0,0.0,0.0,0.0,0.0,0.0,0.0,0.0,0.0,0.0,0.0,0.0,0.0,0.0,0.0,0.0,0.0,0.0,0.0,0.0,0.0,0.0,0.0,0.0,0.0,0.0,0.0,0.0,0.0,0.0,0.0,0.0,0.0,0.0,0.0,0.0,0.0,0.0,0.0,0.0,0.0,0.0,0.0,0.0,0.0,0.0,0.0,0.0,0.0,0.0,0.0,0.0,0.0,0.0,0.0,0.0,0.0,0.0,0.0,0.0,0.0,0.0,0.0,0.0,0.0,0.0,0.0,0.0,1.2786,1.2738,1.3307,1.361,1.3586,1.2919,1.252,0.0,0.0,0.0,0.0,0.0,0.0,0.0,0.0,0.0,0.0,0.0,0.0,0.0,0.0,0.0,0.0,0.0,0.0,0.0,0.0,0.0,0.0,0.0,0.0,0.0,0.0,0.0,0.0,0.0,0.0,0.0,0.0,0.0,0.0,0.0,0.0,0.0,0.0,0.0,0.0,0.0,0.0,0.0,0.0,0.0,0.0,0.0,0.0,1.5656,0.0,0.0,0.0,0.0,0.0,0.0,0.0,0.0,0.0,0.0,0.0,0.0,0.0,0.0,0.0,0.0,0.0,0.0,0.0,0.0,0.0,0.0,0.0,0.0,0.0,0.0,0.0,0.0,0.0,0.0,0.0,0.0,0.0,0.0,0.0,0.0,0.0,0.0,0.0,0.0,0.0,0.0,0.0,0.0,0.0,0.0,0.0,0.0,0.0,0.0,0.0,0.0,0.0,0.0,0.0,0.0,0.0,0.0,0.0,1.2786,1.277,1.3254,1.3479,1.3399,1.2849,1.2548,0.0,0.0,0.0,0.0,0.0,0.0,0.0,0.0,0.0,0.0,0.0,0.0,0.0,0.0,0.0,0.0,0.0,0.0,0.0,0.0,0.0,0.0,0.0,0.0,0.0,0.0,0.0,0.0,0.0,0.0,0.0,0.0,0.0,0.0,0.0,0.0,0.0,0.0,0.0,0.0,0.0,0.0,0.0,0.0,0.0,0.0,0.0,0.0,0.0,0.0,0.0,0.0,0.0,0.0,0.0,0.0,0.0,0.0,0.0,0.0,0.0,0.0,0.0,0.0,0.0,0.0,0.0,0.0,0.0,0.0,0.0,0.0,0.0,0.0,0.0,0.0,0.0,0.0,0.0,0.0,0.0,0.0,0.0,0.0,0.0,0.0,0.0,0.0,0.0,0.0,0.0,0.0,0.0,0.0,0.0,0.0,0.0,0.0,0.0,0.0,0.0,0.0,0.0,0.0,0.0,0.0,0.0,1.2671,1.2721,1.2746,1.3168,1.3348,1.3184,1.2714,1.2509,1.2669,0.0,0.0,0.0,0.0,0.0,0.0,0.0,0.0,0.0,0.0,0.0,0.0,0.0,0.0,0.0,0.0,0.0,0.0,0.0,0.0,0.0,0.0,0.0,0.0,0.0,0.0,0.0,0.0,0.0,0.0,0.0,0.0,0.0,0.0,0.0,0.0,0.0,0.0,1.4986,1.5106,0.0,0.0,0.0,0.0,0.0,0.0,0.0,0.0,1.6294,0.0,0.0,0.0,0.0,0.0,0.0,0.0,0.0,0.0,0.0,0.0,0.0,0.0,0.0,0.0,0.0,0.0,0.0,0.0,0.0,0.0,0.0,0.0,0.0,0.0,0.0,0.0,0.0,0.0,0.0,0.0,0.0,0.0,0.0,0.0,0.0,0.0,0.0,0.0,0.0,0.0,0.0,0.0,0.0,0.0,0.0,0.0,0.0,0.0,0.0,0.0,0.0,0.0,0.0,0.0,0.0,1.2352,1.2362,1.2669,1.3241,1.3355,1.3348,1.3196,1.2784,1.2442,1.2201,0.0,0.0,0.0,0.0,0.0,0.0,0.0,0.0,0.0,0.0,0.0,0.0,0.0,0.0,0.0,0.0,0.0,0.0,0.0,0.0,0.0,0.0,0.0,0.0,0.0,0.0,0.0,0.0,0.0,0.0,0.0,0.0,0.0,0.0,0.0,0.0,0.0,0.0,0.0,1.573,1.5921,0.0,0.0,0.0,0.0,0.0,0.0,0.0,0.0,1.6618,0.0,0.0,0.0,0.0,0.0,0.0,0.0,0.0,0.0,0.0,0.0,0.0,0.0,0.0,0.0,0.0,0.0,0.0,0.0,0.0,0.0,0.0,0.0,0.0,0.0,0.0,0.0,0.0,0.0,0.0,0.0,0.0,0.0,0.0,0.0,0.0,0.0,0.0,0.0,0.0,0.0,0.0,0.0,0.0,0.0,0.0,0.0,0.0,0.0,0.0,0.0,0.0,0.0,0.0,0.0,1.2773,1.2777,1.312,1.3831,1.3872,1.3798,1.3661,1.3268,1.2891,0.0,0.0,0.0,0.0,0.0,0.0,0.0,0.0,0.0,0.0,0.0,0.0,0.0,0.0,0.0,0.0,0.0,0.0,0.0,0.0,0.0,0.0,0.0,0.0,0.0,0.0,0.0,0.0,0.0,0.0,0.0,0.0,0.0,0.0,0.0,0.0,0.0,0.0,0.0,0.0,1.6356,1.6336,1.72,0.0,0.0,0.0,0.0,0.0,0.0,1.7055,1.6772,0.0,0.0,0.0,0.0,0.0,0.0,0.0,0.0,0.0,0.0,0.0,0.0,0.0,0.0,0.0,0.0,0.0,0.0,0.0,0.0,0.0,0.0,0.0,0.0,0.0,0.0,0.0,0.0,0.0,0.0,0.0,0.0,0.0,0.0,0.0,0.0,0.0,0.0,0.0,0.0,0.0,0.0,0.0,0.0,0.0,0.0,0.0,0.0,0.0,0.0,0.0,0.0,0.0,0.0,0.0,1.328,1.3348,1.3669,1.4274,1.431,1.4234,1.4104,1.363,1.3235,0.0,0.0,0.0,0.0,0.0,0.0,0.0,0.0,0.0,0.0,0.0,0.0,0.0,0.0,0.0,0.0,0.0,0.0,0.0,0.0,0.0,0.0,0.0,0.0,0.0,0.0,0.0,0.0,0.0,0.0,0.0,0.0,0.0,0.0,0.0,0.0,0.0,0.0,0.0,0.0,0.0,1.682,1.7822,1.7384,0.0,0.0,0.0,0.0,1.7159,1.7279,0.0,0.0,0.0,0.0,0.0,0.0,0.0,0.0,0.0,0.0,0.0,0.0,0.0,0.0,0.0,0.0,0.0,0.0,0.0,0.0,0.0,0.0,0.0,0.0,0.0,0.0,0.0,0.0,0.0,0.0,0.0,0.0,0.0,0.0,0.0,0.0,0.0,0.0,0.0,0.0,0.0,0.0,0.0,0.0,0.0,0.0,0.0,0.0,0.0,0.0,0.0,0.0,0.0,0.0,0.0,0.0,1.338,1.367,1.3981,1.4294,1.431,1.4244,1.4081,1.3369,1.2969,0.0,0.0,0.0,0.0,0.0,0.0,0.0,0.0,0.0,0.0,0.0,0.0,0.0,0.0,0.0,0.0,0.0,0.0,0.0,0.0,0.0,0.0,0.0,0.0,0.0,0.0,0.0,0.0,0.0,0.0,0.0,0.0,0.0,0.0,0.0,0.0,0.0,0.0,0.0,0.0,0.0,1.7479,1.8972,1.8225,1.7836,0.0,0.0,1.8904,1.8891,1.9212,0.0,0.0,0.0,0.0,0.0,0.0,0.0,0.0,0.0,0.0,0.0,0.0,0.0,0.0,0.0,0.0,0.0,0.0,0.0,0.0,0.0,0.0,0.0,0.0,0.0,0.0,0.0,0.0,0.0,0.0,0.0,0.0,0.0,0.0,0.0,0.0,0.0,0.0,0.0,0.0,0.0,0.0,0.0,0.0,0.0,0.0,0.0,0.0,0.0,0.0,0.0,0.0,0.0,0.0,0.0,1.3104,1.3566,1.4119,1.4712,1.5296,1.5311,1.5282,1.5239,1.4441,1.3874,0.0,0.0,0.0,0.0,0.0,0.0,0.0,0.0,0.0,0.0,0.0,0.0,0.0,0.0,0.0,0.0,0.0,0.0,0.0,0.0,0.0,0.0,0.0,0.0,0.0,0.0,0.0,0.0,0.0,0.0,0.0,0.0,0.0,0.0,0.0,0.0,0.0,0.0,0.0,0.0,0.0,0.0,1.8772,1.8582,0.0,0.0,0.0,1.8983,1.868,0.0,0.0,0.0,0.0,0.0,0.0,0.0,0.0,0.0,0.0,0.0,0.0,0.0,0.0,0.0,0.0,0.0,0.0,0.0,0.0,0.0,0.0,0.0,0.0,0.0,0.0,0.0,0.0,0.0,0.0,0.0,0.0,0.0,0.0,0.0,0.0,0.0,0.0,0.0,0.0,0.0,0.0,0.0,0.0,0.0,0.0,0.0,0.0,0.0,0.0,0.0,0.0,0.0,0.0,0.0,0.0,0.0,1.402,1.4585,1.5327,1.6201,1.6052,1.5965,1.5971,1.5038,0.0,0.0,0.0,0.0,0.0,0.0,0.0,0.0,0.0,0.0,0.0,0.0,0.0,0.0,0.0,0.0,0.0,0.0,0.0,0.0,0.0,0.0,0.0,0.0,0.0,0.0,0.0,1.6061,0.0,0.0,0.0,0.0,0.0,0.0,0.0,0.0,0.0,0.0,0.0,0.0,0.0,0.0,1.9108,1.8835,1.9151,1.9505,0.0,0.0,1.9504,1.9251,1.9865,2.0035,0.0,0.0,0.0,0.0,0.0,0.0,0.0,0.0,0.0,0.0,0.0,0.0,0.0,0.0,0.0,0.0,0.0,0.0,0.0,0.0,0.0,0.0,0.0,0.0,0.0,0.0,0.0,0.0,0.0,0.0,0.0,0.0,0.0,0.0,0.0,0.0,0.0,0.0,0.0,0.0,0.0,0.0,0.0,0.0,0.0,0.0,0.0,0.0,0.0,0.0,0.0,0.0,0.0,0.0,0.0,1.486,1.5026,1.5607,1.6591,1.5995,1.5641,1.5615,1.4495,1.4009,0.0,0.0,0.0,0.0,0.0,0.0,0.0,0.0,0.0,0.0,0.0,0.0,0.0,0.0,0.0,0.0,0.0,0.0,0.0,0.0,0.0,0.0,0.0,0.0,0.0,0.0,0.0,0.0,0.0,0.0,0.0,0.0,0.0,0.0,0.0,0.0,0.0,0.0,0.0,0.0,0.0,1.937,1.9815,2.0236,2.0836,0.0,0.0,2.1392,2.1864,2.1957,2.1668,2.0608,0.0,0.0,0.0,0.0,0.0,0.0,0.0,0.0,0.0,0.0,0.0,0.0,0.0,0.0,0.0,0.0,0.0,0.0,0.0,0.0,0.0,0.0,0.0,0.0,0.0,0.0,0.0,0.0,0.0,0.0,0.0,0.0,0.0,0.0,0.0,0.0,0.0,0.0,0.0,0.0,0.0,0.0,0.0,0.0,0.0,0.0,0.0,0.0,0.0,0.0,0.0,0.0,0.0,1.4815,1.5257,1.5798,1.6427,1.7093,1.686,1.6704,1.6713,1.5982,1.5232,0.0,0.0,0.0,0.0,0.0,0.0,0.0,0.0,0.0,0.0,0.0,0.0,0.0,0.0,0.0,0.0,0.0,0.0,0.0,0.0,0.0,0.0,0.0,0.0,0.0,0.0,0.0,0.0,1.7854,1.8096,1.8003,0.0,0.0,0.0,0.0,0.0,0.0,0.0,0.0,0.0,0.0,2.067,2.0939,2.1614,0.0,0.0,2.251,2.2342,2.2209,2.2462,2.2345,2.1257,2.1088,0.0,0.0,0.0,0.0,0.0,0.0,0.0,0.0,0.0,0.0,0.0,0.0,0.0,0.0,0.0,0.0,0.0,0.0,0.0,0.0,0.0,0.0,0.0,0.0,0.0,0.0,0.0,0.0,0.0,0.0,0.0,0.0,0.0,0.0,0.0,0.0,0.0,0.0,0.0,0.0,0.0,0.0,0.0,0.0,0.0,0.0,0.0,0.0,0.0,0.0,0.0,0.0,1.494,1.525,1.5694,1.6236,1.6863,1.6661,1.6569,1.656,1.6018,1.5303,0.0,0.0,0.0,0.0,0.0,0.0,0.0,0.0,0.0,0.0,0.0,0.0,0.0,0.0,0.0,0.0,0.0,0.0,0.0,0.0,0.0,0.0,0.0,0.0,0.0,0.0,0.0,0.0,1.8222,1.8334,1.8189,0.0,0.0,0.0,0.0,0.0,0.0,0.0,0.0,0.0,0.0,2.1584,2.1774,2.248,2.3011,2.3011,2.2863,2.2682,2.2466,2.2638,2.2498,2.1765,0.0,0.0,0.0,0.0,0.0,0.0,0.0,0.0,0.0,0.0,0.0,0.0,0.0,0.0,0.0,0.0,0.0,0.0,0.0,0.0,0.0,0.0,0.0,0.0,0.0,0.0,0.0,0.0,0.0,0.0,0.0,0.0,0.0,0.0,0.0,0.0,0.0,0.0,0.0,0.0,0.0,0.0,0.0,0.0,0.0,0.0,0.0,0.0,0.0,0.0,0.0,0.0,0.0,1.3913,1.4877,1.4513,1.4722,1.572,1.5048,1.4754,1.4718,1.398,1.3731,1.4028,0.0,0.0,0.0,0.0,0.0,0.0,0.0,0.0,0.0,0.0,0.0,0.0,0.0,0.0,0.0,0.0,0.0,0.0,0.0,0.0,0.0,0.0,0.0,0.0,0.0,0.0,1.8013,1.8474,1.8734,0.0,0.0,0.0,0.0,0.0,0.0,0.0,0.0,0.0,0.0,2.1346,2.1874,2.2168,2.2658,2.2971,2.3015,2.2554,2.2386,2.2879,2.253,2.2197,0.0,0.0,0.0,0.0,0.0,0.0,0.0,0.0,0.0,0.0,0.0,0.0,0.0,0.0,0.0,0.0,0.0,0.0,0.0,0.0,0.0,0.0,0.0,0.0,0.0,0.0,0.0,0.7974,0.7981,0.0,0.0,0.0,0.0,0.0,0.0,0.0,0.0,0.0,0.0,0.0,1.1959,1.2207,0.0,0.0,0.0,0.0,0.0,0.0,0.0,0.0,0.0,0.0,0.0,0.0,1.5007,1.5328,1.5223,1.5455,1.5988,1.5571,1.543,1.5635,1.5204,1.4891,1.4745,0.0,0.0,0.0,0.0,0.0,0.0,0.0,0.0,0.0,0.0,0.0,0.0,0.0,0.0,0.0,0.0,0.0,0.0,0.0,0.0,0.0,0.0,0.0,0.0,0.0,1.8363,0.0,0.0,0.0,0.0,0.0,0.0,0.0,0.0,0.0,0.0,0.0,1.9647,2.0898,2.1224,2.1681,2.2599,2.2374,2.2394,0.0,0.0,0.0,0.0,0.0,0.0,0.0,0.0,0.0,0.0,0.0,0.0,0.0,0.0,2.0689,2.0615,2.0685,2.078,2.0957,0.0,0.0,0.0,0.0,0.0,0.0,0.0,0.0,0.0,0.0,0.0,0.0,0.0,0.0,0.0,0.0,0.7934,0.0,0.0,0.0,0.0,0.0,0.0,0.0,0.0,1.0902,1.1487,1.1849,1.2071,1.2521,0.0,1.314,1.3245,0.0,0.0,0.0,0.0,0.0,0.0,0.0,0.0,1.5044,1.5054,1.5201,1.5389,1.5589,1.5397,1.5389,1.5597,1.5397,1.5114,1.4722,1.4159,1.391,0.0,0.0,0.0,0.0,0.0,0.0,0.0,0.0,0.0,0.0,0.0,0.0,0.0,0.0,0.0,0.0,0.0,0.0,0.0,0.0,0.0,0.0,0.0,1.8791,0.0,0.0,0.0,0.0,0.0,0.0,0.0,0.0,0.0,2.0255,1.9851,1.9974,2.128,2.1249,2.1391,2.215,0.0,0.0,0.0,0.0,0.0,0.0,0.0,2.2341,2.2511,2.2697,2.2886,2.3079,2.2701,2.244,2.2643,0.0,0.0,2.1605,2.144,2.15,2.1844,2.1707,2.1603,2.1839,2.1873,2.1829,0.0,0.0,0.0,0.0,0.0,0.0,0.0,0.0,0.9147,0.9012,0.0,0.9008,0.0,0.0,0.0,0.0,0.0,0.0,0.0,0.0,0.9923,1.0424,1.0942,1.1584,1.2278,1.3017,1.3063,1.3389,1.3997,1.3893,0.0,0.0,0.0,0.0,0.0,0.0,1.4013,1.407,1.4373,1.4531,1.4538,1.4504,1.4523,1.4516,1.4516,1.4369,1.4061,1.431,1.4348,1.4047,1.4561,0.0,0.0,0.0,0.0,0.0,0.0,0.0,0.0,0.0,0.0,0.0,0.0,0.0,0.0,0.0,0.0,0.0,0.0,0.0,0.0,1.8651,0.0,0.0,0.0,0.0,0.0,0.0,0.0,0.0,0.0,0.0,2.1123,2.026,2.0073,2.1644,0.0,0.0,0.0,0.0,2.1124,2.033,2.0693,2.1101,2.1163,2.2163,2.2961,2.3137,0.0,0.0,2.4614,2.3612,2.2891,2.3475,2.3791,2.3596,2.2013,2.1505,2.1573,2.2423,2.2616,2.2785,2.3358,2.3423,2.3364,0.7074,0.0,0.0,0.0,0.0,0.8184,0.8448,0.8624,0.8624,0.8516,0.8351,0.8387,0.0,0.0,0.0,0.0,0.0,0.0,1.0331,1.0348,1.0713,1.144,1.2451,1.2629,1.3189,1.4067,1.4086,1.418,1.4336,1.4316,1.4312,1.4358,0.0,0.0,0.0,0.0,1.445,1.4618,1.4557,1.4594,1.4781,1.4589,1.4484,1.4484,1.4484,1.4467,1.4352,1.4449,1.4459,1.4356,1.452,0.0,0.0,0.0,0.0,0.0,0.0,0.0,0.0,0.0,0.0,0.0,0.0,0.0,0.0,0.0,0.0,0.0,0.0,0.0,1.9268,1.9657,1.9682,0.0,0.0,0.0,0.0,0.0,0.0,0.0,0.0,0.0,2.1247,2.0099,1.9607,0.0,0.0,2.0071,2.1358,2.0634,2.0221,2.1035,0.0,0.0,0.0,2.1994,2.2186,2.2732,2.3121,2.3406,2.3566,2.3403,2.3339,2.3504,2.38,2.3835,2.3489,2.3616,2.3899,2.4209,2.4088,2.3979,2.4158,2.4205,2.4186,0.5979,0.6115,0.6634,0.7249,0.7843,0.7692,0.806,0.8731,0.8477,0.8401,0.8458,0.8538,0.8358,0.8004,0.8589,0.0,0.0,0.0,1.0192,1.0196,1.037,1.1027,1.203,1.222,1.2732,1.356,1.358,1.3587,1.3573,1.3438,1.3591,1.394,0.0,0.0,1.4341,1.4455,1.4572,1.4737,1.4808,1.4927,1.509,1.4927,1.4853,1.4853,1.4853,1.4787,1.4655,1.4662,1.4608,1.4503,1.461,1.451,0.0,0.0,0.0,0.0,0.0,0.0,0.0,0.0,0.0,0.0,0.0,1.8186,1.7547,0.0,0.0,0.0,1.9022,1.9355,1.9118,1.9347,0.0,0.0,0.0,0.0,0.0,0.0,0.0,1.9673,1.9682,1.9948,2.0733,2.0134,2.0022,2.0998,2.0398,2.0227,2.119,0.0,2.0328,2.1095,2.1078,2.1236,2.1906,2.2204,2.2477,2.2883,2.2956,2.3093,2.3327,2.3248,2.3153,2.3391,2.3557,2.3619,2.3546,2.4062,2.469,2.4988,2.4656,2.441,2.4604,2.4861,2.4922,0.4667,0.5124,0.605,0.6972,0.7765,0.7119,0.7712,0.9057,0.8482,0.8481,0.8991,0.9164,0.9069,0.8789,0.9396,0.0,0.0,0.9973,0.9772,0.9374,0.9374,0.9774,1.0569,1.0885,1.1452,1.2248,1.2254,1.2233,1.2256,1.1961,1.2211,1.3041,1.3584,1.377,1.3653,1.4228,1.4543,1.4592,1.511,1.541,1.541,1.541,1.541,1.541,1.541,1.5243,1.4938,1.4924,1.4818,1.4555,1.4767,1.4777,1.4493,0.0,0.0,0.0,0.0,0.0,0.0,0.0,0.0,0.0,0.0,0.0,0.0,0.0,0.0,0.0,1.8915,0.0,1.8244,1.8347,0.0,0.0,0.0,1.9544,2.0439,1.9965,1.9775,2.0255,0.0,0.0,2.0001,0.0,2.0976,2.1749,2.146,2.1045,2.0771,2.1036,2.1123,2.0899,2.1318,2.1705,2.188,2.2666,2.3246,2.3204,2.2979,2.2938,2.3396,2.2916,2.2636,2.3081,2.3149,2.305,2.286,2.3339,2.4001,2.4873,2.452,2.4242,2.464,2.5168,2.5168,0.4524,0.4661,0.4895,0.5588,0.6548,0.6548,0.694,0.7581,0.7454,0.7881,0.8685,0.8745,0.8922,0.9185,0.9489,0.9652,0.971,0.9911,0.9923,0.9843,0.9847,1.0287,1.1091,1.1193,1.1699,1.2548,1.2584,1.259,1.2584,1.2503,1.2495,1.2572,1.2706,1.3373,1.4525,1.4718,1.4915,1.5176,1.5329,1.541,1.541,1.541,1.541,1.541,1.541,1.5373,1.5272,1.5272,1.5119,1.4825,1.4869,1.4657,1.4167,1.502,0.0,0.0,0.0,0.0,0.0,0.0,0.0,0.0,0.0,1.7342,1.6578,0.0,1.809,0.0,1.8326,1.9032,1.9885,1.9882,0.0,0.0,1.9734,2.0025,2.0064,2.023,2.0383,2.0501,2.0742,2.0898,2.0878,2.1299,2.1792,2.2242,2.142,2.1017,2.1746,2.1779,2.1837,2.2021,2.2432,2.2743,2.2723,2.2832,2.298,2.2927,2.257,2.2331,2.2485,2.2144,2.1932,2.2122,2.2542,2.2794,2.2801,2.2947,2.329,2.3948,2.3982,2.3895,2.4039,2.422,2.421,0.3861,0.3881,0.3871,0.4222,0.4806,0.532,0.6051,0.6846,0.6528,0.6873,0.7716,0.7697,0.8106,0.8792,0.8932,0.923,0.969,0.9977,1.0095,1.0091,1.0207,1.0515,1.0979,1.0979,1.1262,1.1756,1.168,1.163,1.1625,1.1429,1.1503,1.1888,1.1824,1.2427,1.3684,1.4047,1.4455,1.4979,1.5117,1.5243,1.541,1.541,1.5316,1.5177,1.517,1.5132,1.5013,1.4999,1.4898,1.475,1.4716,1.4462,1.3909,1.4652,1.4925,0.0,0.0,0.0,0.0,0.0,0.0,0.0,0.0,0.0,0.0,0.0,1.8092,1.7947,1.8693,1.9409,1.9971,1.9918,1.9897,1.9975,2.0243,2.0513,2.0762,2.1026,2.1172,2.1172,2.1543,2.1854,2.207,2.2461,2.2847,2.3137,2.2553,2.2238,2.2556,2.2684,2.2801,2.2904,2.326,2.3464,2.3393,2.3271,2.3145,2.3032,2.2805,2.2601,2.2464,2.2327,2.2227,2.2259,2.2569,2.2841,2.2851,2.2851,2.2968,2.3242,2.34,2.3399,2.3378,2.3584,2.3661,0.2955,0.295,0.307,0.312,0.3168,0.3984,0.5061,0.6188,0.5577,0.5716,0.647,0.6541,0.7121,0.7987,0.7987,0.8509,0.941,0.9778,0.9944,0.9963,1.0315,1.0505,1.0505,1.0501,1.0482,1.0496,1.0332,1.0224,1.0215,0.9815,1.0122,1.1029,1.0877,1.1219,1.2054,1.2638,1.3353,1.416,1.4536,1.4848,1.5122,1.5086,1.5003,1.4816,1.4694,1.4571,1.4428,1.4426,1.4406,1.4426,1.4406,1.4219,1.382,1.4278,1.4364,0.0,1.4397,0.0,0.0,0.0,0.0,0.0,0.0,0.0,0.0,1.7894,1.8166,1.8574,1.9448,1.9873,1.957,1.958,1.9922,2.0635,2.0713,2.1035,2.1773,2.197,2.2029,2.2077,2.2457,2.2857,2.3218,2.3608,2.3809,2.3844,2.3821,2.3582,2.3331,2.346,2.3593,2.346,2.3744,2.3819,2.3704,2.3649,2.3523,2.3331,2.3201,2.3172,2.2905,2.2844,2.2862,2.2862,2.2849,2.2891,2.288,2.2885,2.2885,2.2943,2.2957,2.2917,2.2916,2.3259,2.3259,0.2208,0.2282,0.2926,0.3171,0.3196,0.3371,0.3774,0.4324,0.416,0.4726,0.5742,0.6352,0.6705,0.689,0.6913,0.7031,0.7242,0.8155,0.8578,0.8602,0.9522,0.9949,0.9949,0.9953,0.9949,0.9944,0.9913,0.9896,0.9896,0.9787,0.9785,0.9835,0.9808,1.0116,1.0734,0.0,0.0,0.0,1.3386,1.3763,1.3633,1.3514,1.3751,1.427,1.3558,0.0,1.3968,1.4027,1.4007,1.4007,1.4007,0.0,0.0,0.0,0.0,0.0,0.0,0.0,0.0,0.0,0.0,0.0,1.6233,1.631,1.6468,1.7406,1.8165,1.86,1.9736,2.0557,2.082,2.1191,2.1374,2.1336,2.1334,2.1464,2.1783,2.2287,2.2754,2.3079,2.3474,2.3721,2.3798,2.3761,2.3741,2.3785,2.3757,2.37,2.3604,2.3679,2.368,2.3662,2.3766,2.3776,2.372,2.3561,2.3443,2.3289,2.3101,2.3002,2.295,2.2917,2.2922,2.294,2.2889,2.2908,2.2908,2.2889,2.2935,2.2898,2.2908,2.2882,2.2866,2.3001,2.2992,0.1347,0.0,0.2307,0.267,0.0,0.3112,0.3413,0.3601,0.3567,0.3896,0.4481,0.4855,0.5327,0.5824,0.5797,0.609,0.6579,0.726,0.781,0.832,0.8996,0.9583,1.0094,1.0094,1.0099,1.009,1.0007,0.9954,0.9931,0.9718,0.9623,0.9646,0.9509,0.9612,0.9889,0.9907,1.061,1.1989,1.2536,1.2796,1.2753,1.2695,1.2721,1.2844,0.0,0.0,0.0,0.0,0.0,0.0,0.0,0.0,0.0,0.0,0.0,1.4484,1.4743,1.5044,1.5329,1.5239,1.5276,1.5535,1.5602,1.597,1.6732,1.7573,1.8181,1.8586,1.9668,2.0368,2.0471,2.1119,2.1717,2.208,2.2031,2.2174,2.2796,2.3092,2.3311,2.3501,2.373,2.3921,2.4131,2.4075,2.4037,2.4087,2.4101,2.4034,2.3986,2.3979,2.3999,2.4078,2.4005,2.3932,2.3932,2.3846,2.374,2.3716,2.3619,2.3547,2.3547,2.3547,2.3547,2.3523,2.3547,2.3523,2.3547,2.3547,2.3523,2.3547,2.3547,2.3547,2.3519,2.3187,2.2889,0.0479,0.0586,0.1491,0.1864,0.1917,0.2798,0.3252,0.3382,0.0,0.0,0.0,0.3386,0.3887,0.4703,0.4703,0.516,0.5967,0.6375,0.7012,0.7792,0.8217,0.8996,1.0012,1.0004,1.0111,1.0304,1.0102,1.0016,1.0011,0.9615,0.9539,0.9727,0.9539,0.9417,0.944,0.9445,1.0144,1.1505,1.1709,1.1833,1.1932,1.1938,1.1782,1.146,1.1263,1.1456,1.2063,1.2062,1.2487,1.3377,1.3436,1.3483,1.3518,1.3683,1.3704,1.362,1.3807,1.4053,1.4371,1.442,1.4511,1.4754,1.501,1.5741,1.7075,1.7609,1.8,1.8283,1.9264,1.9783,1.9643,2.0424,2.133,2.2208,2.2094,2.2294,2.3066,2.3223,2.3048,2.3193,2.3338,2.3662,2.3955,2.4165,2.4326,2.442,2.4399,2.439,2.4239,2.4216,2.4268,2.4349,2.4239,2.419,2.4192,2.4156,2.4211,2.4137,2.4165,2.4211,2.4211,2.4211,2.4211,2.4113,2.4202,2.4149,2.4192,2.4146,2.4211,2.4211,2.4211,2.4211,2.4156,2.3639,2.3202,-0.0346,-0.0266,0.0559,0.0905,0.0985,0.189,0.2717,0.3385,0.3377,0.3378,0.3385,0.3386,0.3491,0.3623,0.3623,0.3697,0.39,0.4818,0.5332,0.0,0.6469,0.7519,0.8642,0.8484,0.8979,0.9886,0.9747,0.9665,0.9665,0.9612,0.9579,0.962,0.96,0.9571,0.9579,0.9575,0.9681,0.9956,1.0541,1.0781,1.058,1.0465,1.0711,1.1268,1.0324,1.014,1.0912,1.0795,1.1103,1.2028,1.2094,1.254,1.35,1.3614,1.3749,1.4017,1.4259,1.4527,1.4797,1.4877,1.4907,1.497,1.501,1.527,1.5833,1.6615,1.7097,1.718,1.829,1.9098,1.9329,1.981,2.0228,2.0434,2.0397,2.0367,2.0539,2.0956,2.1253,2.1286,2.229,2.3008,2.3194,2.3718,2.415,2.4223,2.4152,2.4202,2.4217,2.4205,2.4211,2.4242,2.4236,2.4211,2.4211,2.4211,2.4211,2.4211,2.4211,2.4211,2.4211,2.4211,2.4211,2.4211,2.4211,2.4211,2.4211,2.4211,2.4211,2.4211,2.4211,2.4211,2.4211,2.4055,2.3957,-0.1198,-0.1108,-0.0243,0.0107,0.0186,0.1091,0.1704,0.2131,0.2558,0.3028,0.343,0.3458,0.3476,0.3506,0.3507,0.3489,0.3483,0.3965,0.4479,0.5018,0.5519,0.6337,0.7334,0.7331,0.7586,0.8124,0.8695,0.8944,0.9013,0.9487,0.977,0.9737,0.9652,0.9599,0.9599,0.9599,0.9599,0.962,0.9957,1.0003,0.9831,0.9763,0.9844,1.0106,0.9544,0.97,1.0551,1.0496,1.0882,1.1819,1.184,1.2345,1.3395,1.3494,1.3812,1.4534,1.4711,1.4807,1.4947,1.4972,1.5053,1.52,1.522,1.5436,1.5949,1.6167,1.6429,1.6782,1.7779,1.8497,1.8687,1.9336,1.995,2.0353,2.0263,2.0277,2.0526,2.067,2.0774,2.0841,2.1374,2.2013,2.2626,2.3029,2.3562,2.3978,2.3746,2.3488,2.4053,2.3646,2.3522,2.4044,2.4211,2.4211,2.4211,2.4211,2.4211,2.4211,2.4211,2.4211,2.4211,2.4211,2.4211,2.4211,2.4211,2.4211,2.4211,2.4211,2.4211,2.4211,2.4211,2.4211,2.4211,2.4211,2.4211,-0.2226,-0.2116,-0.1429,-0.1009,-0.0754,-0.0027,0.0376,0.0589,0.1205,0.2022,0.2862,0.3293,0.3503,0.3545,0.3548,0.3522,0.3484,0.3491,0.3929,0.4601,0.4668,0.5266,0.6224,0.6281,0.6401,0.6717,0.7598,0.8003,0.8118,0.9054,0.9715,0.9907,0.9815,0.9725,0.9721,0.968,0.966,0.966,0.9624,0.9559,0.9445,0.9441,0.9352,0.923,0.9173,0.9501,1.0193,1.0199,1.0611,1.1505,1.1574,1.2032,1.2973,1.3069,1.3535,1.4501,1.4701,1.4857,1.515,1.518,1.5307,1.5595,1.5615,1.5818,1.6277,1.6157,1.6194,1.6707,1.7339,1.7833,1.8009,1.8595,1.9367,1.9899,1.9828,1.9776,2.0302,2.0261,2.0158,2.0166,2.0364,2.0859,2.1548,2.1988,2.2442,2.3004,2.2677,2.2627,2.3438,2.3013,2.3013,2.3829,2.4211,2.4211,2.4211,2.4211,2.4211,2.4211,2.4211,2.4211,2.4211,2.4211,2.4211,2.4211,2.4211,2.4211,2.4211,2.4211,2.4211,2.4211,2.4211,2.418,2.4124,2.4226,2.429,-0.3417,-0.3412,-0.3272,-0.2821,-0.206,-0.1921,-0.1463,-0.0872,-0.0708,-0.0027,0.1117,0.2688,0.3346,0.3428,0.3408,0.3432,0.34,0.3473,0.3572,0.3654,0.3683,0.4347,0.5401,0.5337,0.5816,0.6668,0.6791,0.6809,0.6862,0.7967,0.9086,1.0058,1.0145,1.0099,1.0113,0.9966,0.9885,0.9855,0.9684,0.9595,0.9579,0.9575,0.9571,0.9555,0.9437,0.9403,0.9539,0.9323,0.9651,1.0524,1.0654,1.1055,1.1923,1.2038,1.2512,1.3479,1.3805,1.4409,1.557,1.5704,1.5872,1.6177,1.6203,1.633,1.6627,1.6638,1.6618,1.6755,1.6823,1.707,1.724,1.7492,1.7748,1.8126,1.8077,1.7864,1.8094,1.7917,1.7891,1.7917,1.8864,1.9409,1.9764,2.057,2.1166,2.1497,2.1268,2.1429,2.24,2.2367,2.2568,2.3671,2.4127,2.4127,2.4152,2.4211,2.4211,2.4211,2.4211,2.4211,2.4211,2.4211,2.422,2.4321,2.4257,2.4266,2.4293,2.4211,2.4257,2.4351,2.4301,2.4149,2.4046,2.4152,2.4396,-0.3758,-0.3727,-0.3727,-0.3506,-0.3167,-0.3138,-0.2958,-0.2633,-0.2134,-0.1625,-0.1009,0.0162,0.1595,0.3196,0.3382,0.3444,0.3389,0.3437,0.3447,0.3448,0.3474,0.3755,0.4187,0.4174,0.4419,0.4941,0.5548,0.5914,0.6065,0.6983,0.806,0.9036,0.9134,0.9477,1.013,1.0109,1.0076,1.0068,1.0007,0.9941,0.9916,0.9738,0.9599,0.9595,0.953,0.9514,0.951,0.9421,0.9578,0.9931,0.9983,1.0431,1.1444,1.1492,1.1938,1.2925,1.3843,1.457,1.5136,1.588,1.64,1.6526,1.6551,1.6653,1.6959,1.6993,1.706,1.72,1.7068,1.7113,1.74,1.7434,1.7481,1.7595,1.7615,1.7615,1.7615,1.7615,1.7615,1.7635,1.797,1.8532,1.9202,2.0184,2.0834,2.0808,2.039,2.0339,2.1319,2.1005,2.1056,2.192,2.224,2.2878,2.3795,2.4211,2.4177,2.4177,2.4211,2.4211,2.422,2.4211,2.4275,2.4498,2.4544,2.4654,2.4911,2.4893,2.4893,2.4789,2.4491,2.4255,2.3818,2.386,2.4062,-0.4354,-0.4311,-0.4308,-0.4308,-0.429,-0.4288,-0.4288,-0.4232,-0.3662,-0.3186,-0.2761,-0.2089,-0.05,0.166,0.2441,0.2881,0.3167,0.3207,0.3204,0.3194,0.3206,0.3233,0.3304,0.3364,0.3438,0.3665,0.4451,0.5063,0.5417,0.6071,0.6991,0.7908,0.8039,0.8647,0.9712,0.981,0.994,1.0233,1.0219,1.0186,1.0149,0.9908,0.975,0.9701,0.9652,0.9599,0.9599,0.9599,0.9628,0.9693,0.9672,1.0066,1.0848,1.0927,1.1374,1.2394,1.3609,1.4315,1.4339,1.5501,1.6281,1.6346,1.6593,1.6954,1.7246,1.732,1.7414,1.7541,1.7414,1.7394,1.7561,1.7615,1.7615,1.7615,1.7615,1.7615,1.7615,1.7615,1.7615,1.7615,1.7661,1.7865,1.8636,1.9383,1.9831,1.9746,1.9254,1.915,2.0063,1.9797,1.9687,2.0706,2.0936,2.17,2.3338,2.3646,2.3771,2.4177,2.4211,2.4248,2.4296,2.4351,2.4498,2.4865,2.4929,2.4977,2.5098,2.5254,2.5042,2.4894,2.4614,2.4192,2.3633,2.361,2.3688,-0.5524,-0.5494,-0.5522,-0.5463,-0.5516,-0.5487,-0.5487,-0.5399,-0.5397,-0.4836,-0.3859,-0.3479,-0.2611,-0.1285,0.025,0.1544,0.2519,0.2636,0.2688,0.2685,0.2722,0.2867,0.3104,0.3134,0.3273,0.3491,0.3638,0.4257,0.5226,0.5338,0.5987,0.7053,0.7092,0.7717,0.8763,0.8811,0.9276,1.0026,1.001,1.0124,1.0146,1.0126,0.9995,0.9896,0.9697,0.9628,0.962,0.9611,0.9709,0.9893,0.9901,1.0,1.0233,1.0275,1.0733,1.1688,1.2751,1.3375,1.3498,1.4454,1.5203,1.5526,1.6343,1.719,1.716,1.7193,1.7219,1.7503,1.7338,1.745,1.747,1.7529,1.7615,1.7615,1.7615,1.7615,1.7615,1.7615,1.7615,1.7615,1.7615,1.7687,1.7733,1.7687,1.7983,1.8023,1.7806,1.8142,1.9076,1.9242,1.9647,2.0354,2.081,2.1259,2.2316,2.2577,2.3063,2.3502,2.3724,2.4226,2.4539,2.4803,2.5014,2.5223,2.5315,2.5344,2.5284,2.499,2.4536,2.4314,2.4282,2.3927,2.3444,2.3676,2.3681,-0.5788,-0.5788,-0.579,-0.5788,-0.5788,-0.579,-0.5786,-0.5788,-0.5788,-0.5544,-0.5169,-0.4983,-0.4224,-0.2956,-0.1519,-0.0057,0.1234,0.1353,0.1804,0.2499,0.2626,0.2681,0.2751,0.2776,0.2833,0.2945,0.3001,0.3223,0.3614,0.3648,0.4312,0.5414,0.5633,0.6314,0.7481,0.7717,0.7892,0.8242,0.8231,0.8591,0.928,0.9285,0.9519,1.0181,1.0063,0.9995,0.9969,0.9995,1.0023,1.0084,1.0088,1.0117,1.0178,1.0186,1.0342,1.0793,1.1905,1.2604,1.275,1.3751,1.4466,1.4576,1.4944,1.5311,1.5346,1.5343,1.5375,1.5503,1.6154,1.6479,1.6664,1.7153,1.7615,1.7615,1.7615,1.7615,1.7615,1.7615,1.7615,1.7615,1.7615,1.7615,1.7628,1.7615,1.7662,1.7809,1.7856,1.8137,1.8536,1.8747,1.8982,1.9226,1.9395,1.973,2.0803,2.1278,2.1733,2.2324,2.2766,2.3444,2.3921,2.4762,2.5135,2.5611,2.5738,2.5618,2.5539,2.5228,2.4635,2.3934,2.3908,2.3654,2.3234,2.3411,2.3299,-0.5888,-0.5888,-0.5888,-0.5888,-0.5888,-0.5888,-0.5888,-0.5888,-0.5886,-0.5882,-0.5833,-0.5825,-0.5309,-0.4458,-0.3545,-0.2028,-0.0232,0.0607,0.1529,0.2328,0.2357,0.2436,0.248,0.2495,0.2545,0.2624,0.2655,0.2678,0.269,0.2679,0.3187,0.4074,0.4124,0.4877,0.6103,0.6364,0.653,0.6918,0.7081,0.7532,0.8275,0.8612,0.9104,0.9838,1.0182,1.03,1.0198,1.0186,1.0219,1.0263,1.0249,1.03,1.0353,1.0361,1.0361,1.0453,1.1216,1.1715,1.1858,1.2849,1.3539,1.3593,1.3917,1.4105,1.4105,1.4105,1.4105,1.4347,1.5183,1.5914,1.6127,1.6935,1.7582,1.7615,1.7615,1.7615,1.7615,1.7615,1.7615,1.7615,1.7615,1.7648,1.7716,1.7736,1.7883,1.8129,1.8163,1.829,1.8444,1.8497,1.8497,1.849,1.8589,1.8913,1.9494,1.9915,2.0924,2.1607,2.2077,2.2714,2.3515,2.4457,2.5225,2.5817,2.6018,2.5892,2.5664,2.5386,2.4721,2.3857,2.3528,2.3351,2.3127,2.3046,2.3058,-0.5888,-0.5888,-0.5888,-0.5888,-0.5888,-0.5888,-0.5888,-0.5888,-0.5888,-0.588,-0.59,-0.5878,-0.581,-0.5724,-0.5314,-0.4234,-0.1863,0.0519,0.1762,0.1954,0.1984,0.209,0.2299,0.2294,0.2386,0.2579,0.2588,0.2598,0.2605,0.2548,0.2654,0.2738,0.2848,0.3538,0.4794,0.4848,0.5461,0.6328,0.6557,0.6821,0.7185,0.7974,0.8541,0.8941,0.9882,1.0323,1.0136,1.0188,1.0308,1.0412,1.0409,1.0513,1.0623,1.0675,1.0695,1.0675,1.0758,1.0739,1.0872,1.1814,1.239,1.2494,1.3329,1.3706,1.362,1.3701,1.3728,1.3836,1.4781,1.5675,1.5749,1.6691,1.7503,1.7615,1.7615,1.7615,1.7615,1.7615,1.7622,1.7609,1.7668,1.7736,1.7922,1.8022,1.8143,1.8404,1.849,1.8531,1.8645,1.8644,1.8551,1.8557,1.8644,1.89,1.8743,1.8684,1.9984,2.1074,2.1499,2.2037,2.2961,2.386,2.4633,2.524,2.5574,2.5434,2.4774,2.4498,2.4136,2.3444,2.3247,2.3135,2.307,2.3022,2.307,-0.5888,-0.5888,-0.5888,-0.5888,-0.5888,-0.5888,-0.5888,-0.5888,-0.5888,-0.5888,-0.5888,-0.5888,-0.5888,-0.5669,-0.4988,-0.4092,-0.3107,-0.0616,0.1077,0.1809,0.1962,0.2017,0.2064,0.2066,0.2058,0.2071,0.2054,0.2064,0.2099,0.2092,0.2139,0.2319,0.2344,0.2666,0.3279,0.3305,0.3592,0.3932,0.4197,0.4672,0.5436,0.6042,0.6733,0.7603,0.8578,0.912,0.9256,1.0081,1.055,1.0607,1.0611,1.0639,1.0707,1.0719,1.0719,1.0719,1.0719,1.0719,1.0747,1.0989,1.1286,1.1314,1.1605,1.1714,1.1742,1.1823,1.1851,1.1905,1.2792,1.3491,1.3787,1.5295,1.663,1.7503,1.7615,1.7615,1.7642,1.7628,1.7689,1.7836,1.7876,1.8016,1.8263,1.835,1.8443,1.8731,1.8791,1.8831,1.9047,1.906,1.9127,1.912,1.912,1.904,1.898,1.8946,1.9583,2.0361,2.0755,2.1357,2.226,2.2986,2.3786,2.4416,2.478,2.4704,2.4052,2.3725,2.3472,2.3275,2.3098,2.3042,2.3014,2.307,2.3121,-0.6256,-0.6256,-0.6129,-0.6099,-0.6068,-0.5978,-0.5888,-0.5888,-0.5888,-0.5888,-0.5888,-0.5888,-0.5888,-0.5732,-0.4988,-0.437,-0.3752,-0.2123,-0.0462,0.1172,0.1853,0.2008,0.2001,0.1932,0.1861,0.1814,0.1809,0.1795,0.1795,0.1794,0.1897,0.2018,0.2043,0.2201,0.2409,0.2461,0.2483,0.2576,0.2816,0.3257,0.3943,0.4567,0.5254,0.6056,0.7044,0.7642,0.7921,0.9079,1.0085,1.0577,1.0719,1.0719,1.0719,1.0719,1.0719,1.0719,1.0719,1.0719,1.0719,1.0747,1.0719,1.0719,1.0719,1.0747,1.0719,1.0719,1.0719,1.0852,1.1796,1.2418,1.2818,1.4168,1.5638,1.6416,1.7184,1.7569,1.7709,1.7729,1.7896,1.8089,1.8183,1.8357,1.8557,1.8657,1.8778,1.9018,1.9092,1.9118,1.9348,1.9374,1.9388,1.9388,1.9328,1.9301,1.9354,1.9361,1.9368,1.9648,1.9918,2.0622,2.1454,2.193,2.2576,2.3167,2.36,2.3636,2.3139,2.338,2.3296,2.3127,2.3014,2.3014,2.3038,2.3184,2.3303,-0.6872,-0.6872,-0.6561,-0.6436,-0.6405,-0.6129,-0.6041,-0.5978,-0.5947,-0.5947,-0.5947,-0.5919,-0.5888,-0.5888,-0.5702,-0.5112,-0.4154,-0.3721,-0.2431,-0.0493,0.0802,0.1543,0.1938,0.1949,0.1877,0.1818,0.1812,0.1795,0.1795,0.1795,0.1795,0.1819,0.1845,0.1921,0.212,0.2192,0.226,0.2392,0.2463,0.2594,0.2744,0.3613,0.4219,0.438,0.5426,0.6105,0.6351,0.7443,0.8923,1.0389,1.0662,1.0651,1.0668,1.0707,1.0719,1.0719,1.0719,1.0719,1.0719,1.0756,1.076,1.0764,1.0789,1.072,1.0773,1.0794,1.0794,1.0837,1.167,1.2316,1.2655,1.3606,1.4439,1.4931,1.6432,1.7447,1.7948,1.8042,1.8183,1.843,1.8524,1.8624,1.8898,1.8945,1.9078,1.9267,1.9348,1.9368,1.9374,1.9395,1.9395,1.9395,1.9395,1.9395,1.9395,1.9395,1.9395,1.9461,1.9603,2.0027,2.0565,2.0938,2.1138,2.1729,2.2559,2.2539,2.2595,2.2865,2.3098,2.307,2.3014,2.3014,2.3113,2.3311,2.3573,-0.6903,-0.6872,-0.6808,-0.6778,-0.6747,-0.6655,-0.6624,-0.6594,-0.6344,-0.6252,-0.6221,-0.6009,-0.5916,-0.5888,-0.5916,-0.5669,-0.5204,-0.437,-0.3721,-0.28,-0.157,0.0247,0.1656,0.1945,0.1883,0.1868,0.1825,0.1795,0.1795,0.1797,0.1795,0.1795,0.1795,0.1819,0.1895,0.192,0.1933,0.2014,0.22,0.2266,0.2322,0.2691,0.2981,0.309,0.3977,0.4617,0.4953,0.607,0.7888,1.0095,1.0436,1.0474,1.0488,1.0639,1.074,1.0752,1.0736,1.0728,1.0729,1.0826,1.0919,1.0935,1.0984,1.1082,1.1086,1.1078,1.1053,1.111,1.1419,1.1569,1.1795,1.2686,1.3652,1.4697,1.5914,1.7152,1.8034,1.8356,1.8484,1.8723,1.8804,1.8951,1.9132,1.9254,1.9287,1.9368,1.9395,1.9395,1.9395,1.9395,1.9395,1.9395,1.9395,1.9395,1.9395,1.9395,1.9395,1.9395,1.9432,1.9455,1.9809,2.004,1.9997,2.0098,2.1652,2.2057,2.2227,2.2433,2.2639,2.3014,2.307,2.3089,2.3295,2.3501,2.3872,-0.7327,-0.7294,-0.7174,-0.7112,-0.7082,-0.6962,-0.6903,-0.6872,-0.6716,-0.6622,-0.6561,-0.6407,-0.6254,-0.6129,-0.6254,-0.6254,-0.6006,-0.5293,-0.4647,-0.3876,-0.2584,-0.0801,0.0827,0.1533,0.1904,0.19,0.1855,0.1829,0.1817,0.1814,0.1807,0.1797,0.1795,0.1795,0.1821,0.1794,0.1787,0.1827,0.1961,0.2001,0.1995,0.2128,0.217,0.2246,0.2769,0.3265,0.4075,0.4812,0.6411,0.8645,0.9484,0.9833,1.0413,1.0694,1.0838,1.0899,1.0887,1.0919,1.0932,1.1025,1.107,1.1086,1.1179,1.1183,1.1183,1.1191,1.1191,1.1208,1.1191,1.1232,1.1425,1.2037,1.301,1.4071,1.4947,1.6058,1.7654,1.8328,1.8748,1.9011,1.9125,1.9158,1.9381,1.9395,1.9395,1.9395,1.9395,1.9395,1.9395,1.9395,1.9395,1.9366,1.9366,1.9395,1.9366,1.9336,1.9214,1.9214,1.9046,1.9046,1.9185,1.9323,1.9171,1.9419,2.0709,2.1574,2.1659,2.2,2.2752,2.3046,2.3097,2.324,2.343,2.3636,2.4023,-0.7903,-0.7872,-0.7569,-0.7447,-0.7385,-0.7146,-0.7082,-0.7023,-0.6962,-0.6962,-0.6931,-0.6898,-0.6683,-0.6497,-0.6683,-0.6716,-0.6467,-0.628,-0.5694,-0.4645,-0.3291,-0.1723,-0.0369,0.0939,0.1595,0.1831,0.19,0.187,0.1819,0.1813,0.1797,0.1808,0.18,0.1795,0.1795,0.1795,0.1795,0.1792,0.1818,0.1834,0.1841,0.1863,0.1854,0.1865,0.1888,0.2428,0.3151,0.3669,0.4736,0.7401,0.8091,0.9168,1.0266,1.0799,1.0968,1.1065,1.1024,1.106,1.1068,1.1039,1.1137,1.1145,1.1223,1.1248,1.1321,1.1342,1.1342,1.1321,1.1285,1.1395,1.1538,1.1756,1.2303,1.3271,1.3597,1.4734,1.6298,1.777,1.8664,1.9009,1.8997,1.9178,1.9214,1.9307,1.9395,1.9395,1.9395,1.9395,1.9395,1.9395,1.933,1.9236,1.9301,1.9343,1.9307,1.9272,1.9068,1.8917,1.8603,1.8544,1.8719,1.8742,1.8567,1.8939,2.0083,2.063,2.0752,2.141,2.2554,2.3046,2.3081,2.3287,2.3488,2.3724,2.4055,-0.7903,-0.7903,-0.7808,-0.7778,-0.7783,-0.7719,-0.7691,-0.7661,-0.7388,-0.7296,-0.7235,-0.7021,-0.69,-0.6808,-0.69,-0.6872,-0.6808,-0.6775,-0.6561,-0.6252,-0.495,-0.3444,-0.1933,-0.0455,0.0875,0.1595,0.1901,0.1883,0.1873,0.1828,0.181,0.1802,0.1812,0.1795,0.1797,0.1799,0.1795,0.1795,0.1795,0.1792,0.1814,0.181,0.1778,0.177,0.1772,0.1885,0.2114,0.2219,0.2976,0.4678,0.6735,0.8532,0.9968,1.0625,1.0797,1.084,1.0815,1.0746,1.062,1.0866,1.1028,1.1065,1.1363,1.1658,1.1684,1.163,1.1672,1.1654,1.1658,1.1646,1.1721,1.1774,1.1979,1.2427,1.3105,1.3765,1.4494,1.5601,1.6481,1.6727,1.7431,1.7929,1.8017,1.9004,1.9243,1.9366,1.9395,1.9395,1.9395,1.9395,1.9272,1.912,1.9098,1.9104,1.8923,1.8894,1.8748,1.8567,1.8282,1.8077,1.8246,1.8275,1.8135,1.8567,1.9374,1.9722,2.0011,2.1467,2.2752,2.2912,2.3061,2.3295,2.3509,2.3755,2.4015,-0.7903,-0.7903,-0.7903,-0.7903,-0.7903,-0.7903,-0.7903,-0.7869,-0.7719,-0.763,-0.7597,-0.7447,-0.7296,-0.7143,-0.7296,-0.7296,-0.7143,-0.7112,-0.7051,-0.6775,-0.6033,-0.5044,-0.384,-0.2504,-0.1064,0.137,0.1939,0.1923,0.1906,0.1861,0.1848,0.1833,0.1844,0.1832,0.179,0.1816,0.1808,0.1797,0.1795,0.1795,0.1795,0.1795,0.1795,0.18,0.1808,0.1788,0.1846,0.1845,0.2564,0.3768,0.5288,0.7127,0.9164,1.0135,1.0589,1.0723,1.0735,1.0676,1.0654,1.0755,1.0905,1.0931,1.1328,1.1507,1.1617,1.1682,1.1806,1.1806,1.1798,1.1802,1.1806,1.1806,1.1806,1.1897,1.2397,1.2814,1.311,1.4416,1.5599,1.5836,1.6809,1.7337,1.787,1.8532,1.9185,1.9366,1.9395,1.9395,1.9301,1.9272,1.912,1.8968,1.8887,1.8777,1.8567,1.845,1.8376,1.8194,1.796,1.7807,1.7837,1.7807,1.7726,1.8305,1.8845,1.92,1.9715,2.1317,2.2413,2.2395,2.2573,2.3058,2.3486,2.3753,2.3981,-0.7903,-0.7903,-0.7903,-0.7903,-0.7903,-0.7903,-0.7903,-0.7903,-0.7903,-0.7872,-0.7903,-0.7903,-0.7658,-0.7566,-0.7719,-0.7689,-0.7536,-0.7477,-0.7355,-0.7143,-0.7051,-0.6059,-0.5039,-0.4266,-0.2546,0.1172,0.1415,0.1466,0.1759,0.1901,0.188,0.1894,0.1885,0.1867,0.1822,0.1818,0.1838,0.1821,0.1819,0.1817,0.1816,0.1816,0.1816,0.1821,0.1835,0.1818,0.1824,0.1934,0.2407,0.352,0.3802,0.5187,0.7108,0.9185,1.0214,1.0374,1.0443,1.0582,1.0485,1.0612,1.0717,1.0732,1.1122,1.1299,1.1394,1.1617,1.1772,1.1806,1.1806,1.1806,1.1806,1.1806,1.1806,1.1837,1.1806,1.1806,1.2195,1.3794,1.4505,1.4922,1.5475,1.612,1.7132,1.7964,1.8713,1.9336,1.9366,1.9366,1.9243,1.9091,1.891,1.8735,1.8625,1.8544,1.834,1.8071,1.7989,1.7931,1.7696,1.7631,1.7573,1.7573,1.7631,1.7801,1.8233,1.87,1.9484,2.0823,2.1588,2.1711,2.2314,2.3029,2.3422,2.3713,2.3861,-0.7903,-0.7903,-0.7903,-0.7903,-0.7903,-0.7903,-0.7903,-0.7903,-0.7903,-0.7903,-0.7903,-0.7903,-0.7869,-0.7811,-0.7841,-0.7869,-0.778,-0.775,-0.775,-0.7661,-0.76,-0.6858,-0.5782,-0.5504,-0.3628,-0.1261,-0.0216,0.0369,0.1409,0.1762,0.1842,0.189,0.1902,0.1885,0.1882,0.1878,0.1874,0.1861,0.186,0.1861,0.1861,0.1861,0.1861,0.1862,0.1872,0.1877,0.1855,0.1877,0.2017,0.2294,0.3291,0.4038,0.5104,0.717,0.8433,0.9064,0.9717,1.0058,1.0122,1.0243,1.0368,1.052,1.088,1.1212,1.1333,1.1553,1.1682,1.1772,1.1772,1.1806,1.1806,1.1772,1.1806,1.1806,1.1806,1.1806,1.1927,1.2345,1.2818,1.3084,1.3909,1.4906,1.5978,1.7161,1.8204,1.8858,1.9185,1.9149,1.9055,1.8881,1.8655,1.848,1.8334,1.8229,1.8119,1.7813,1.7631,1.7661,1.7573,1.7573,1.7514,1.7514,1.7567,1.7713,1.8029,1.8554,1.947,2.0415,2.1031,2.1368,2.2162,2.3068,2.326,2.3403,2.3443,-0.7903,-0.7903,-0.7903,-0.7903,-0.7903,-0.7903,-0.7903,-0.7903,-0.7903,-0.7903,-0.7903,-0.7903,-0.7903,-0.7903,-0.7903,-0.7903,-0.7903,-0.7903,-0.7903,-0.7903,-0.7841,-0.7594,-0.6672,-0.6641,-0.5441,-0.3749,-0.2521,-0.08,0.108,0.1533,0.1678,0.1738,0.1847,0.1926,0.1912,0.1879,0.19,0.1892,0.1887,0.1887,0.1887,0.1887,0.1887,0.1889,0.1902,0.1879,0.1915,0.1939,0.1954,0.2079,0.2581,0.2834,0.3541,0.4763,0.6658,0.7853,0.8711,0.9387,0.9697,0.997,1.0031,1.0092,1.0516,1.0728,1.0853,1.1039,1.1371,1.1492,1.1553,1.1617,1.1772,1.1647,1.1647,1.1772,1.1806,1.1776,1.1806,1.1806,1.1776,1.1863,1.3075,1.4138,1.4703,1.6007,1.7455,1.8286,1.8852,1.891,1.8845,1.8619,1.8398,1.8217,1.8041,1.7924,1.7849,1.7696,1.7485,1.7485,1.7485,1.7485,1.7485,1.7485,1.7485,1.7537,1.7977,1.8321,1.8758,1.9499,2.0249,2.1117,2.2124,2.2892,2.2981,2.307,2.3129,-0.7903,-0.7903,-0.7903,-0.7903,-0.7903,-0.7903,-0.7903,-0.7903,-0.7903,-0.7903,-0.7903,-0.7903,-0.7903,-0.7903,-0.7903,-0.7903,-0.7903,-0.7903,-0.7903,-0.7903,-0.7903,-0.7869,-0.7903,-0.7747,-0.6947,-0.5352,-0.4458,-0.2338,0.0,0.1079,0.1358,0.1448,0.1666,0.1844,0.1793,0.1758,0.1832,0.1913,0.1934,0.1934,0.1904,0.1904,0.1904,0.1905,0.1928,0.191,0.1943,0.196,0.2003,0.2004,0.2069,0.2069,0.2192,0.2958,0.4642,0.666,0.7518,0.8468,0.9083,0.9788,0.9849,0.9879,1.0156,1.0277,1.0429,1.0702,1.097,1.1148,1.1212,1.1277,1.1436,1.1337,1.1337,1.1466,1.153,1.1591,1.153,1.15,1.1526,1.1941,1.2775,1.3366,1.3959,1.5238,1.6809,1.7841,1.8373,1.8684,1.859,1.8311,1.8083,1.7901,1.7749,1.7631,1.7573,1.7602,1.7485,1.7485,1.7485,1.7485,1.7485,1.7485,1.7485,1.7485,1.7537,1.7889,1.824,1.8729,1.9708,2.0802,2.2015,2.2582,2.249,2.278,2.307,-0.7903,-0.7903,-0.7903,-0.7903,-0.7903,-0.7903,-0.7903,-0.7903,-0.7903,-0.7903,-0.7903,-0.7903,-0.7903,-0.7903,-0.7903,-0.7903,-0.7903,-0.7903,-0.7903,-0.7903,-0.7903,-0.7903,-0.7903,-0.7903,-0.7255,-0.6213,-0.569,-0.3905,-0.1662,0.0062,0.1019,0.108,0.1173,0.1264,0.1536,0.1596,0.1693,0.1934,0.1963,0.1993,0.1992,0.1991,0.199,0.1992,0.1996,0.1998,0.1966,0.2005,0.2008,0.2008,0.2008,0.2008,0.2038,0.2069,0.2927,0.4613,0.6324,0.7978,0.8346,0.9052,0.9727,0.9758,1.0092,1.0274,1.0334,1.0516,1.0759,1.0815,1.0849,1.091,1.1005,1.0914,1.091,1.0974,1.1069,1.1039,1.1008,1.119,1.122,1.1277,1.1872,1.256,1.3246,1.4703,1.6101,1.7073,1.7906,1.8181,1.8311,1.8054,1.7884,1.7726,1.7631,1.7514,1.7485,1.7485,1.7485,1.7485,1.7485,1.7485,1.7485,1.7485,1.7485,1.7485,1.7485,1.7514,1.786,1.8496,1.9368,2.0256,2.121,2.1631,2.1822,2.2284,2.2816,-0.7903,-0.7903,-0.7903,-0.7903,-0.7903,-0.7903,-0.7903,-0.7903,-0.7903,-0.7903,-0.7903,-0.7903,-0.7903,-0.7903,-0.7903,-0.7903,-0.7903,-0.7903,-0.7903,-0.7903,-0.7903,-0.7903,-0.7903,-0.7903,-0.7441,-0.7011,-0.6243,-0.5475,-0.3445,-0.1631,-0.0154,0.0648,0.0865,0.105,0.1235,0.139,0.1544,0.1728,0.1852,0.2008,0.2008,0.2008,0.2008,0.2008,0.2008,0.2008,0.2008,0.2008,0.2008,0.2008,0.2008,0.2008,0.2008,0.2038,0.2345,0.2806,0.4521,0.6235,0.7703,0.8376,0.9052,0.9667,0.994,1.0001,1.0061,1.0304,1.0516,1.0513,1.0516,1.0581,1.0668,1.0607,1.0668,1.0698,1.0698,1.0728,1.0728,1.0793,1.0883,1.091,1.097,1.1627,1.2436,1.378,1.4882,1.5588,1.6779,1.7713,1.7866,1.7843,1.7696,1.7573,1.7543,1.7485,1.7485,1.7485,1.7485,1.7485,1.7485,1.7485,1.7485,1.7485,1.7485,1.7485,1.7485,1.7537,1.7625,1.8263,1.9165,1.9737,2.0285,2.0823,2.1367,2.1788,2.2412,-0.7903,-0.7903,-0.7903,-0.7903,-0.7903,-0.7903,-0.7903,-0.7903,-0.7903,-0.7903,-0.7903,-0.7903,-0.7903,-0.7903,-0.7903,-0.7903,-0.7903,-0.7903,-0.7903,-0.7903,-0.7903,-0.7903,-0.7903,-0.7903,-0.7903,-0.7903,-0.7011,-0.6151,-0.5197,-0.3752,-0.194,-0.0154,0.037,0.071,0.0896,0.105,0.1235,0.1575,0.1853,0.1977,0.2008,0.2008,0.2008,0.2008,0.2008,0.2008,0.2008,0.2008,0.2008,0.2008,0.2008,0.2008,0.2008,0.2038,0.2038,0.2346,0.3297,0.449,0.6204,0.7429,0.8471,0.9329,0.9788,0.9849,0.9852,1.0061,1.0183,1.0183,1.0186,1.0308,1.0425,1.0274,1.0308,1.0365,1.0456,1.0516,1.0547,1.0516,1.0516,1.0577,1.0577,1.0547,1.1503,1.2822,1.3685,1.4192,1.5386,1.6915,1.7273,1.7244,1.7426,1.7303,1.7514,1.7485,1.7485,1.7485,1.7485,1.7485,1.7485,1.7485,1.7485,1.7485,1.7485,1.7485,1.7485,1.7514,1.7537,1.824,1.8874,1.9078,1.9448,2.0371,2.101,2.1519,2.2341,-0.7903,-0.7903,-0.7905,-0.7905,-0.7903,-0.7903,-0.7903,-0.7903,-0.7903,-0.7903,-0.7903,-0.7903,-0.7903,-0.7903,-0.7903,-0.7903,-0.7903,-0.7903,-0.7903,-0.7903,-0.7903,-0.7903,-0.7903,-0.7903,-0.7903,-0.7903,-0.7503,-0.6888,-0.6151,-0.5506,-0.3754,-0.2034,-0.0771,0.0031,0.0401,0.0525,0.105,0.142,0.1791,0.1946,0.2008,0.2008,0.2008,0.2008,0.2008,0.2008,0.2008,0.2008,0.2008,0.2008,0.2008,0.2008,0.2008,0.2008,0.2008,0.2131,0.2223,0.3326,0.4703,0.6416,0.8288,0.9268,0.9788,0.9788,0.9822,0.9788,0.9849,0.9879,0.9943,0.9913,0.9943,0.9852,0.9974,1.0035,1.0122,1.0122,1.0122,1.0061,1.0092,1.0213,1.0243,1.0243,1.0365,1.1593,1.2496,1.3002,1.4103,1.5628,1.6166,1.6319,1.6856,1.7062,1.7391,1.7485,1.7485,1.7485,1.7485,1.7485,1.7485,1.7485,1.7485,1.7485,1.7485,1.7485,1.7485,1.7485,1.7543,1.8064,1.8357,1.8269,1.8648,1.962,2.1075,2.2121,2.3062,-0.8095,-0.8087,-0.8047,-0.7971,-0.7903,-0.7903,-0.7903,-0.7903,-0.7903,-0.7903,-0.7903,-0.7903,-0.7903,-0.7903,-0.7903,-0.7903,-0.7903,-0.7903,-0.7903,-0.7903,-0.7903,-0.7903,-0.7903,-0.7903,-0.7903,-0.7903,-0.7869,-0.7778,-0.7227,-0.646,-0.563,-0.4032,-0.2341,-0.1449,-0.0895,0.0062,0.0834,0.1328,0.1637,0.1761,0.2008,0.2008,0.2008,0.2008,0.2008,0.2008,0.2008,0.2008,0.2008,0.2008,0.2008,0.2008,0.2008,0.2008,0.2008,0.2008,0.2008,0.2621,0.3601,0.5069,0.6324,0.8407,0.9268,0.9788,0.9788,0.9788,0.9788,0.9788,0.9788,0.9788,0.9788,0.9819,0.9822,0.9788,0.9788,0.9788,0.9788,0.9788,0.9819,1.0031,1.0001,0.9943,1.0065,1.0334,1.1122,1.1872,1.3066,1.4167,1.4882,1.5569,1.6196,1.6973,1.7361,1.7485,1.7485,1.7485,1.7485,1.7485,1.7485,1.7485,1.7485,1.7485,1.7485,1.7485,1.7485,1.7485,1.7596,1.7801,1.7918,1.786,1.8242,1.8872,2.0527,2.2473,2.3483,-0.8183,-0.8174,-0.8121,-0.8036,-0.7957,-0.7916,-0.7903,-0.7903,-0.7903,-0.7903,-0.7903,-0.7903,-0.7903,-0.7903,-0.7903,-0.7903,-0.7903,-0.7903,-0.7903,-0.7903,-0.7903,-0.7903,-0.7903,-0.7903,-0.7903,-0.7903,-0.7903,-0.7841,-0.7719,-0.6919,-0.6549,-0.5782,-0.437,-0.3142,-0.1542,-0.0401,0.0741,0.1081,0.1451,0.1575,0.1822,0.1977,0.2008,0.2008,0.2008,0.2008,0.2008,0.2008,0.2008,0.2008,0.2008,0.2008,0.2008,0.2008,0.2008,0.2008,0.2131,0.2499,0.3203,0.4826,0.5835,0.7886,0.9174,0.9667,0.9788,0.9788,0.9788,0.9788,0.9788,0.9788,0.9788,0.9788,0.9788,0.9788,0.9788,0.9788,0.9788,0.9788,0.9788,0.9849,0.9822,0.9822,0.9883,1.0035,1.0304,1.0849,1.1265,1.2732,1.4287,1.5006,1.5723,1.6585,1.7449,1.7485,1.7485,1.7485,1.7485,1.7485,1.7485,1.7485,1.7485,1.7485,1.7485,1.7485,1.7485,1.7485,1.7573,1.769,1.7631,1.7543,1.82,1.9073,2.0635,2.2489,2.3376,-0.8179,-0.8094,-0.8128,-0.8085,-0.8055,-0.7949,-0.7903,-0.7903,-0.7903,-0.7903,-0.7903,-0.7903,-0.7903,-0.7903,-0.7903,-0.7903,-0.7903,-0.7903,-0.7903,-0.7903,-0.7903,-0.7903,-0.7903,-0.7903,-0.7903,-0.7903,-0.7903,-0.7903,-0.7903,-0.7625,-0.7625,-0.7255,-0.5845,-0.4125,-0.2066,-0.0339,0.0463,0.0618,0.1173,0.139,0.1606,0.1822,0.1915,0.2008,0.2008,0.2008,0.2008,0.2008,0.2008,0.2008,0.2008,0.2008,0.2008,0.2008,0.2008,0.2008,0.2008,0.2069,0.2316,0.5655,0.6968,0.7426,0.8316,0.939,0.9636,0.9758,0.9788,0.9788,0.9788,0.9788,0.9788,0.9788,0.9788,0.9788,0.9788,0.9788,0.9788,0.9788,0.9788,0.9788,0.9788,0.9788,0.9788,0.9819,0.9819,0.994,0.9849,1.108,1.3151,1.4381,1.51,1.6201,1.7156,1.7485,1.7485,1.7485,1.7485,1.7485,1.7485,1.7485,1.7485,1.7485,1.7485,1.7485,1.7485,1.7485,1.7491,1.752,1.7659,1.7876,1.8732,1.9734,2.1213,2.2286,2.3014,-0.8399,-0.8291,-0.8206,-0.8127,-0.8074,-0.7954,-0.7903,-0.7903,-0.7903,-0.7903,-0.7903,-0.7903,-0.7903,-0.7903,-0.7903,-0.7903,-0.7903,-0.7903,-0.7903,-0.7903,-0.7903,-0.7903,-0.7903,-0.7903,-0.7903,-0.7903,-0.7903,-0.7903,-0.7903,-0.7903,-0.7903,-0.7564,-0.6274,-0.4495,-0.2311,-0.0617,0.0247,0.0463,0.0772,0.1019,0.1451,0.1606,0.1791,0.1977,0.2008,0.2008,0.2008,0.2008,0.2008,0.2008,0.2008,0.2008,0.2008,0.2008,0.2008,0.2008,0.2008,0.2008,0.2376,0.4062,0.5071,0.5896,0.7365,0.8593,0.8562,0.942,0.9667,0.9788,0.9788,0.9788,0.9788,0.9788,0.9788,0.9788,0.9788,0.9788,0.9788,0.9788,0.9788,0.9788,0.9788,0.9788,0.9788,0.9788,0.9788,0.9788,0.9788,1.0486,1.226,1.3515,1.4446,1.5693,1.6708,1.7214,1.7485,1.7485,1.7485,1.7485,1.7485,1.7485,1.7485,1.7485,1.7485,1.7485,1.7485,1.7485,1.7629,1.7774,1.8022,1.8423,1.907,1.9672,2.0664,2.1579,2.2297,-0.8494,-0.8318,-0.8237,-0.8138,-0.8023,-0.7935,-0.7903,-0.7903,-0.7903,-0.7903,-0.7903,-0.7903,-0.7903,-0.7903,-0.7903,-0.7903,-0.7903,-0.7903,-0.7903,-0.7903,-0.7903,-0.7903,-0.7903,-0.7903,-0.7903,-0.7903,-0.7903,-0.7903,-0.7903,-0.7903,-0.7594,-0.6888,-0.5876,-0.4002,-0.2249,-0.1141,-0.037,0.0031,0.0494,0.0803,0.1173,0.1451,0.1668,0.1915,0.2008,0.2008,0.2008,0.2008,0.2009,0.201,0.201,0.2009,0.2009,0.2008,0.2008,0.2008,0.2008,0.2008,0.2346,0.2621,0.3388,0.3511,0.6112,0.7673,0.8133,0.9116,0.9606,0.9788,0.9795,0.9802,0.9808,0.9808,0.9815,0.9819,0.9819,0.9819,0.9815,0.9819,0.9822,0.9819,0.9822,0.9815,0.9812,0.9788,0.9788,0.9788,0.9819,1.0637,1.1394,1.25,1.3729,1.4976,1.6083,1.6644,1.7126,1.7485,1.7485,1.7485,1.7485,1.7485,1.7485,1.7485,1.7485,1.7515,1.7599,1.7702,1.7871,1.8046,1.8306,1.8623,1.9094,1.9669,2.0202,2.0821,2.1524,-0.8446,-0.8218,-0.8199,-0.8089,-0.7927,-0.7903,-0.7903,-0.7903,-0.7903,-0.7903,-0.7903,-0.7903,-0.7903,-0.7903,-0.7903,-0.7903,-0.7903,-0.7903,-0.7903,-0.7903,-0.7903,-0.7903,-0.7903,-0.7903,-0.7903,-0.7905,-0.7919,-0.7949,-0.7919,-0.7973,-0.7349,-0.6155,-0.5244,-0.3665,-0.2518,-0.1711,-0.0993,-0.0186,0.0309,0.0587,0.0926,0.1269,0.155,0.1801,0.196,0.1994,0.2026,0.2024,0.2021,0.2019,0.2017,0.2014,0.2011,0.2009,0.2009,0.2008,0.2008,0.2014,0.2046,0.2264,0.227,0.2772,0.5415,0.7084,0.8011,0.8626,0.9318,0.9707,0.9849,0.9846,0.9842,0.9859,0.9873,0.9869,0.9869,0.9866,0.9863,0.9863,0.9869,0.9873,0.9879,0.9917,0.9934,0.9917,0.9927,0.9859,0.9917,1.0241,1.0963,1.1575,1.2831,1.4172,1.5184,1.6018,1.6526,1.6915,1.7361,1.7332,1.7455,1.7485,1.7485,1.7527,1.7617,1.7702,1.7816,1.7961,1.8173,1.8385,1.8614,1.8934,1.9195,1.9409,1.9846,2.0068,2.0589,-0.8375,-0.8199,-0.8141,-0.8047,-0.7913,-0.7903,-0.7903,-0.7903,-0.7903,-0.7903,-0.7903,-0.7903,-0.7903,-0.7903,-0.7903,-0.7903,-0.7903,-0.7903,-0.7903,-0.7903,-0.7903,-0.7903,-0.7908,-0.7913,-0.7905,-0.7941,-0.7984,-0.8033,-0.8055,-0.8062,-0.7382,-0.613,-0.5341,-0.3957,-0.2694,-0.2002,-0.1036,0.0,0.0,0.0372,0.0653,0.0969,0.1315,0.1633,0.1929,0.1965,0.2031,0.2064,0.2064,0.2066,0.2069,0.2064,0.2007,0.2005,0.2003,0.2012,0.2023,0.2007,0.201,0.2057,0.2066,0.2285,0.4149,0.5346,0.6443,0.761,0.8753,0.9079,0.9549,0.9593,0.9759,0.9876,0.9973,1.0066,1.0066,1.0063,1.0063,1.0063,1.0063,1.0063,1.0066,1.0066,1.0076,1.0097,1.01,0.9994,1.0023,1.0217,1.0469,1.1054,1.1872,1.3216,1.3993,1.4738,1.554,1.6018,1.6703,1.7185,1.7332,1.748,1.7557,1.7618,1.7744,1.7907,1.8119,1.833,1.8536,1.876,1.8995,1.8989,1.9182,1.9322,1.9462,1.9698,1.9781,-0.8242,-0.816,-0.8118,-0.8014,-0.7913,-0.7903,-0.7903,-0.7903,-0.7903,-0.7903,-0.7903,-0.7903,-0.7903,-0.7903,-0.7903,-0.7903,-0.7903,-0.7903,-0.7903,-0.7903,-0.7908,-0.7943,-0.7954,-0.7979,-0.802,-0.8055,-0.8073,-0.8125,-0.8152,-0.8055,-0.7518,-0.6225,-0.5753,-0.4085,-0.2506,-0.1444,-0.0735,0.0,0.0,0.0,0.0473,0.0729,0.1049,0.1435,0.177,0.1903,0.2067,0.21,0.2098,0.2097,0.2097,0.2089,0.2037,0.2035,0.2033,0.205,0.2057,0.2068,0.2071,0.205,0.2093,0.229,0.2837,0.3827,0.5119,0.6346,0.7248,0.7909,0.868,0.9274,0.9586,0.9891,1.0111,1.0298,1.0298,1.0298,1.0298,1.0298,1.0295,1.0295,1.0291,1.0284,1.0295,1.0318,1.0288,1.0161,1.0038,1.0022,1.0138,1.0381,1.1137,1.22,1.2771,1.3336,1.4202,1.513,1.5887,1.6631,1.7244,1.7397,1.7576,1.7781,1.7974,1.8221,1.8481,1.8723,1.8977,1.9177,1.9332,1.9314,1.9332,1.9508,1.9518,1.9374,1.9375,-0.8186,-0.8151,-0.8134,-0.8032,-0.7911,-0.7903,-0.7903,-0.7903,-0.7903,-0.7903,-0.7903,-0.7903,-0.7903,-0.7903,-0.7903,-0.7903,-0.7903,-0.7903,-0.7903,-0.7905,-0.7941,-0.7984,-0.8075,-0.8128,-0.8103,-0.8158,-0.822,-0.8263,-0.8239,-0.8146,-0.7639,-0.6291,-0.5275,-0.3865,-0.2278,-0.127,0.0,0.0,0.0,0.0129,0.0354,0.0549,0.0776,0.126,0.1522,0.1687,0.1946,0.2074,0.2103,0.2105,0.2106,0.2109,0.2101,0.2092,0.2091,0.2094,0.2094,0.2099,0.2103,0.2112,0.2113,0.2111,0.2168,0.2885,0.3976,0.5108,0.6,0.6871,0.7626,0.8403,0.8807,0.9354,0.9719,1.0171,1.0432,1.0432,1.0432,1.0432,1.0468,1.0465,1.0465,1.0461,1.0429,1.0443,1.0444,1.0304,1.0226,1.0109,1.0046,1.0118,1.0532,1.1312,1.1518,1.2057,1.3066,1.4028,1.5012,1.5844,1.6683,1.7506,1.7817,1.804,1.8234,1.8645,1.9086,1.9225,1.9443,1.9576,1.9627,1.9682,1.9718,1.9814,1.97,1.9458,1.938,-0.8235,-0.8384,-0.8357,-0.8175,-0.7936,-0.7903,-0.7903,-0.7903,-0.7903,-0.7903,-0.7903,-0.7903,-0.7903,-0.7903,-0.7903,-0.7903,-0.7903,-0.7903,-0.7903,-0.7933,-0.7971,-0.8031,-0.8104,-0.8141,-0.8204,-0.8223,-0.8288,-0.841,-0.8451,-0.8311,-0.783,-0.6568,-0.5699,-0.4598,-0.265,-0.179,0.0,0.0,0.0,-0.0099,0.0162,0.0392,0.0623,0.0954,0.1155,0.1526,0.1827,0.2029,0.2097,0.2167,0.2167,0.2155,0.21,0.211,0.2099,0.21,0.212,0.2129,0.2136,0.2145,0.2154,0.216,0.2195,0.2364,0.2945,0.3901,0.4814,0.5696,0.6545,0.7299,0.8047,0.8656,0.9363,0.9959,1.0556,1.0556,1.0556,1.0588,1.0592,1.0595,1.0595,1.0592,1.0585,1.0568,1.0541,1.0493,1.0443,1.0365,1.0256,1.0224,1.0074,1.0566,1.0286,1.0838,1.1893,1.2919,1.3891,1.5104,1.6068,1.7,1.802,1.8486,1.8861,1.934,1.9727,1.9757,1.9736,1.9784,1.9869,1.9977,2.0047,2.0102,2.0047,1.9848,1.9793,-0.8189,-0.8428,-0.8429,-0.8397,-0.8302,-0.8025,-0.7994,-0.8089,-0.7964,-0.7903,-0.7903,-0.7903,-0.7903,-0.7903,-0.7903,-0.7903,-0.7903,-0.7903,-0.7903,-0.7933,-0.7984,-0.8072,-0.8117,-0.8206,-0.832,-0.8378,-0.8446,-0.853,-0.8581,-0.8548,-0.8038,-0.7278,-0.6775,-0.5637,-0.3861,-0.3392,-0.2351,0.0,-0.0942,-0.06,-0.0197,0.0165,0.0399,0.0634,0.1004,0.138,0.1717,0.1953,0.2155,0.2188,0.2185,0.2214,0.2163,0.215,0.2173,0.2143,0.2154,0.2129,0.2168,0.2176,0.2188,0.2188,0.2188,0.2313,0.2313,0.3171,0.3236,0.4084,0.501,0.5793,0.6593,0.7299,0.8464,0.9329,1.0161,1.0663,1.0663,1.0666,1.0666,1.0666,1.0666,1.0666,1.0663,1.066,1.0633,1.0605,1.0568,1.05,1.0409,1.0348,1.0202,1.01,1.0039,0.9992,1.0781,1.1768,1.2749,1.4002,1.5386,1.7108,1.8423,1.9034,1.9555,1.9842,2.0017,2.0044,2.0062,2.0092,2.0201,2.0374,2.0356,2.0325,2.0241,2.0156,2.009,-0.8155,-0.8461,-0.8522,-0.8644,-0.8793,-0.8241,-0.815,-0.8369,-0.8119,-0.7964,-0.7994,-0.7994,-0.7964,-0.7903,-0.7903,-0.7903,-0.7903,-0.7903,-0.7903,-0.7911,-0.7938,-0.805,-0.8138,-0.8218,-0.8386,-0.8489,-0.8557,-0.8571,-0.862,-0.8587,-0.8487,-0.8284,-0.7548,-0.6543,-0.6107,-0.5235,-0.3859,-0.262,-0.1983,-0.1345,-0.0706,-0.0067,0.0168,0.0471,0.0808,0.1178,0.1548,0.1852,0.2087,0.2188,0.2188,0.2186,0.2184,0.2177,0.2179,0.2178,0.2177,0.2182,0.2186,0.2185,0.2188,0.2188,0.2188,0.2188,0.2221,0.2254,0.232,0.2755,0.3692,0.443,0.5233,0.607,0.7305,0.8906,0.9845,1.0684,1.0684,1.0717,1.0721,1.0721,1.0721,1.0721,1.0721,1.0721,1.0707,1.0683,1.0643,1.0571,1.051,1.0477,1.0392,1.0344,1.0314,1.0292,1.0277,1.0823,1.1882,1.3182,1.4726,1.6979,1.8762,1.9346,1.9778,2.0065,2.0217,2.0255,2.0358,2.0412,2.0573,2.0585,2.047,2.035,2.035,2.0277,2.0289,-0.8491,-0.8824,-0.9034,-0.9065,-0.8854,-0.8458,-0.8491,-0.8735,-0.8458,-0.8308,-0.8308,-0.8275,-0.8183,-0.7903,-0.7903,-0.7903,-0.7903,-0.7903,-0.7903,-0.7908,-0.7965,-0.8055,-0.817,-0.825,-0.8446,-0.853,-0.8609,-0.862,-0.862,-0.862,-0.8587,-0.852,-0.852,-0.7581,-0.6475,-0.5804,-0.5334,-0.4128,-0.2956,-0.2184,-0.1479,-0.0807,-0.0067,0.0236,0.0438,0.0808,0.1178,0.1515,0.1852,0.2087,0.2188,0.2188,0.2188,0.2188,0.2188,0.2188,0.2188,0.2188,0.2188,0.2188,0.2188,0.2188,0.2188,0.2188,0.2222,0.2222,0.2255,0.2255,0.2993,0.3429,0.4132,0.4667,0.577,0.8141,0.9646,1.0316,1.0651,1.0684,1.0721,1.0721,1.0721,1.0721,1.0721,1.0721,1.0717,1.0704,1.0704,1.0643,1.0633,1.0602,1.0561,1.0551,1.0534,1.0432,1.036,1.0375,1.1228,1.2514,1.4098,1.646,1.8317,1.9543,2.0011,2.0144,2.0356,2.0454,2.0557,2.047,2.0543,2.0495,2.041,2.0337,2.0343,2.0283,2.0186]},{"header":{"parameterUnit":"m.s-1","parameterCategory":1,"la1":31.0,"la2":29.5877,"lo1":-88.7671,"lo2":-86.6584,"dy":0.0162,"dx":0.0185,"nx":115,"ny":88,"refTime":"2023-10-24T00:00:00:Z","depth":0,"parameterNumber":3,"parameterNumberName":"V-component_of_WINDS"},"data":[0.0,0.0,0.0,0.0,0.0,0.0,0.0,0.0,0.0,0.0,0.0,0.0,0.0,0.0,0.0,0.0,0.0,0.0,0.0,0.0,0.0,0.0,0.0,0.0,0.0,0.0,0.0,0.0,0.0,0.0,0.0,0.0,0.0,0.0,0.0,0.0,0.0,0.0,0.0,0.0,0.0,0.0,0.0,0.0,0.0,0.0,0.0,0.0,0.0,0.0,0.0,0.0,0.0,0.0,0.0,0.0,0.0,0.0,0.0,0.0,0.0,0.0,0.0,0.0,0.0,0.0,0.0,0.0,0.0,0.0,0.0,0.0,0.0,0.0,0.0,0.0,0.0,0.0,0.0,0.0,0.0,0.0,0.0,0.0,0.0,0.0,0.0,0.0,0.0,0.0,0.0,0.0,0.0,0.0,0.0,0.0,0.0,0.0,0.0,0.0,0.0,0.0,0.0,0.0,0.0,0.0,0.0,0.0,0.0,0.0,0.0,0.0,0.0,0.0,0.0,0.0,0.0,0.0,0.0,0.0,0.0,0.0,0.0,0.0,0.0,0.0,0.0,0.0,0.0,0.0,0.0,0.0,0.0,0.0,0.0,0.0,0.0,0.0,0.0,0.0,0.0,0.0,0.0,0.0,0.0,0.0,0.0,0.0,0.0,0.0,0.0,0.0,0.0,0.0,0.0,0.0,0.0,0.0,0.0,0.0,0.0,0.0,0.0,0.0,0.0,0.0,0.0,0.0,0.0,0.0,0.0,0.0,0.0,0.0,0.0,0.0,0.0,0.0,0.0,0.0,0.0,0.0,0.0,0.0,0.0,0.0,0.0,0.0,0.0,0.0,0.0,0.0,0.0,0.0,0.0,0.0,0.0,0.0,0.0,0.0,0.0,0.0,0.0,0.0,0.0,0.0,0.0,0.0,0.0,0.0,0.0,0.0,0.0,0.0,0.0,0.0,0.0,0.0,0.0,0.0,0.0,0.0,0.0,0.0,0.0,0.0,0.0,0.0,0.0,0.0,0.0,0.0,0.0,0.0,0.0,0.0,0.0,0.0,0.0,0.0,0.0,0.0,0.0,0.0,0.0,0.0,0.0,0.0,0.0,0.0,0.0,0.0,0.0,0.0,0.0,0.0,0.0,0.0,0.0,0.0,0.0,0.0,0.0,0.0,0.0,0.0,0.0,0.0,0.0,0.0,0.0,0.0,0.0,0.0,0.0,0.0,0.0,0.0,0.0,0.0,0.0,0.0,0.0,0.0,0.0,0.0,0.0,0.0,0.0,0.0,0.0,0.0,0.0,0.0,0.0,0.0,0.0,0.0,0.0,0.0,0.0,0.0,0.0,0.0,0.0,0.0,0.0,0.0,0.0,0.0,0.0,0.0,0.0,0.0,0.0,0.0,0.0,0.0,0.0,0.0,0.0,0.0,0.0,0.0,0.0,0.0,0.0,0.0,0.0,0.0,0.0,0.0,0.0,0.0,0.0,0.0,0.0,0.0,0.0,0.0,0.0,0.0,0.0,0.0,0.0,0.0,0.0,0.0,0.0,0.0,0.0,0.0,0.0,0.0,0.0,0.0,0.0,0.0,0.0,0.0,0.0,0.0,0.0,0.0,0.0,0.0,0.0,0.0,0.0,0.0,0.0,0.0,0.0,0.0,0.0,0.0,0.0,0.0,0.0,0.0,0.0,0.0,0.0,0.0,0.0,0.0,0.0,0.0,0.0,0.0,0.0,0.0,0.0,0.0,0.0,0.0,0.0,0.0,0.0,0.0,0.0,0.0,0.0,0.0,0.0,0.0,0.0,0.0,0.0,0.0,0.0,0.0,0.0,0.0,0.0,0.0,0.0,0.0,0.0,0.0,0.0,0.0,0.0,0.0,0.0,0.0,0.0,0.0,0.0,0.0,0.0,0.0,0.0,0.0,0.0,0.0,0.0,0.0,0.0,0.0,0.0,0.0,0.0,0.0,0.0,0.0,0.0,0.0,0.0,0.0,0.0,0.0,0.0,0.0,0.0,0.0,0.0,0.0,0.0,0.0,0.0,0.0,0.0,0.0,0.0,0.0,0.0,0.0,0.0,0.0,0.0,0.0,0.0,0.0,0.0,0.0,0.0,0.0,0.0,0.0,0.0,0.0,0.0,0.0,0.0,0.0,0.0,0.0,0.0,0.0,0.0,0.0,0.0,0.0,0.0,0.0,0.0,0.0,0.0,0.0,0.0,0.0,0.0,0.0,0.0,0.0,0.0,0.0,0.0,0.0,0.0,0.0,0.0,0.0,0.0,0.0,0.0,0.0,0.0,0.0,0.0,0.0,0.0,0.0,0.0,0.0,0.0,0.0,0.0,0.0,0.0,0.0,0.0,0.0,0.0,0.0,0.0,0.0,0.0,0.0,0.0,0.0,0.0,0.0,0.0,0.0,0.0,0.0,0.0,0.0,0.0,0.0,0.0,0.0,0.0,0.0,0.0,0.0,0.0,0.0,0.0,0.0,0.0,0.0,0.0,0.0,0.0,0.0,0.0,0.0,0.0,0.0,0.0,0.0,0.0,0.0,0.0,0.0,0.0,0.0,0.0,0.0,0.0,0.0,0.0,0.0,0.0,0.0,0.0,0.0,0.0,0.0,0.0,0.0,0.0,0.0,0.0,0.0,0.0,0.0,0.0,0.0,0.0,0.0,0.0,0.0,0.0,0.0,0.0,0.0,0.0,0.0,0.0,0.0,0.0,0.0,0.0,0.0,0.0,0.0,0.0,0.0,0.0,0.0,0.0,0.0,0.0,0.0,0.0,0.0,0.0,0.0,0.0,0.0,0.0,0.0,0.0,0.0,0.0,0.0,0.0,0.0,0.0,0.0,0.0,0.0,0.0,0.0,0.0,0.0,0.0,0.0,0.0,0.0,0.0,0.0,0.0,0.0,0.0,0.0,0.0,0.0,0.0,0.0,0.0,0.0,0.0,0.0,0.0,0.0,0.0,0.0,0.0,0.0,0.0,0.0,0.0,0.0,0.0,0.0,0.0,0.0,0.0,0.0,0.0,0.0,0.0,0.0,0.0,0.0,0.0,0.0,0.0,0.0,0.0,0.0,0.0,0.0,0.0,0.0,0.0,0.0,0.0,0.0,0.0,0.0,0.0,0.0,0.0,0.0,0.0,0.0,0.0,0.0,0.0,0.0,0.0,0.0,0.0,0.0,0.0,0.0,0.0,0.0,0.0,0.0,0.0,0.0,0.0,0.0,0.0,0.0,0.0,0.0,0.0,0.0,0.0,0.0,0.0,0.0,0.0,0.0,0.0,0.0,0.0,0.0,0.0,0.0,0.0,0.0,0.0,0.0,0.0,0.0,0.0,0.0,0.0,0.0,0.0,0.0,0.0,0.0,0.0,0.0,0.0,0.0,0.0,0.0,0.0,0.0,0.0,0.0,0.0,0.0,0.0,0.0,0.0,0.0,0.0,0.0,0.0,0.0,0.0,0.0,0.0,0.0,0.0,0.0,0.0,0.0,0.0,0.0,0.0,0.0,0.0,0.0,0.0,0.0,0.0,0.0,0.0,0.0,0.0,0.0,0.0,0.0,0.0,0.0,0.0,0.0,0.0,0.0,0.0,0.0,0.0,0.0,0.0,0.0,0.0,0.0,0.0,0.0,0.0,0.0,0.0,0.0,0.0,0.0,0.0,0.0,0.0,0.0,0.0,0.0,0.0,0.0,0.0,0.0,0.0,0.0,0.0,0.0,0.0,0.0,0.0,0.0,0.0,0.0,0.0,0.0,0.0,0.0,0.0,0.0,0.0,0.0,0.0,0.0,0.0,0.0,0.0,0.0,0.0,0.0,0.0,0.0,0.0,0.0,0.0,0.0,0.0,0.0,0.0,0.0,0.0,0.0,0.0,0.0,0.0,0.0,0.0,0.0,0.0,0.0,0.0,0.0,0.0,0.0,0.0,0.0,0.0,0.0,0.0,0.0,0.0,0.0,0.0,0.0,0.0,0.0,0.0,0.0,0.0,0.0,0.0,0.0,0.0,0.0,0.0,0.0,0.0,0.0,0.0,0.0,0.0,0.0,0.0,0.0,0.0,0.0,0.0,0.0,0.0,0.0,0.0,0.0,0.0,0.0,0.0,0.0,0.0,0.0,0.0,0.0,0.0,0.0,0.0,0.0,0.0,0.0,0.0,0.0,0.0,0.0,0.0,0.0,0.0,0.0,0.0,0.0,0.0,0.0,0.0,0.0,0.0,0.0,0.0,0.0,0.0,0.0,0.0,0.0,0.0,0.0,0.0,0.0,1.1816,0.0,0.0,0.0,0.0,0.0,0.0,0.0,0.0,0.0,0.0,0.0,0.0,0.0,0.0,0.0,0.0,0.0,0.0,0.0,0.0,0.0,0.0,0.0,0.0,0.0,0.0,0.0,0.0,0.0,0.0,0.0,0.0,0.0,0.0,0.0,0.0,0.0,0.0,0.0,0.0,0.0,0.0,0.0,0.0,0.0,0.0,0.0,0.0,0.0,0.0,0.0,0.0,0.0,0.0,0.0,0.0,0.0,0.0,0.0,0.0,0.0,0.0,0.0,0.0,0.0,0.0,0.0,0.0,0.0,0.0,0.0,0.0,0.0,0.0,0.0,0.0,0.0,0.0,0.0,0.0,0.0,0.0,0.0,0.0,0.0,0.0,0.0,0.0,0.0,0.0,0.0,0.0,0.0,0.0,0.0,0.0,0.0,0.0,0.0,0.0,0.0,0.0,0.0,0.0,0.0,0.0,0.0,0.0,0.0,0.0,1.2334,1.2334,1.1984,1.1816,1.1816,0.0,0.0,0.0,0.0,0.0,0.0,0.0,0.0,0.0,0.0,0.0,0.0,0.0,0.0,0.0,0.0,0.0,0.0,0.0,0.0,0.0,0.0,0.0,0.0,0.0,0.0,0.0,0.0,0.0,0.0,0.0,0.0,0.0,0.0,0.0,0.0,0.0,0.0,0.0,0.0,0.0,0.0,0.0,0.0,0.0,0.0,0.0,0.0,0.0,0.0,0.0,0.0,0.0,0.0,0.0,0.0,0.0,0.0,0.0,0.0,0.0,0.0,0.0,0.0,0.0,0.0,0.0,0.0,0.0,0.0,0.0,0.0,0.0,0.0,0.0,0.0,0.0,0.0,0.0,0.0,0.0,0.0,0.0,0.0,0.0,0.0,0.0,0.0,0.0,0.0,0.0,0.0,0.0,0.0,0.0,0.0,0.0,0.0,0.0,0.0,0.0,0.0,0.0,0.0,0.0,0.0,0.0,0.0,0.0,0.0,0.0,0.0,1.2529,1.2254,1.2254,0.0,0.0,0.0,0.0,0.0,0.0,0.0,0.0,0.0,0.0,0.0,0.0,0.0,0.0,0.0,0.0,0.0,0.0,0.0,0.0,0.0,0.0,0.0,0.0,0.0,0.0,0.0,0.0,0.0,0.0,0.0,0.0,0.0,0.0,0.0,0.0,0.0,0.0,0.0,0.0,0.0,0.0,0.0,0.0,0.0,0.0,0.0,0.0,0.0,0.0,0.0,0.0,0.0,0.0,0.0,0.0,0.0,0.0,0.0,0.0,0.0,0.0,0.0,0.0,0.0,0.0,0.0,0.0,0.0,0.0,0.0,0.0,0.0,0.0,0.0,0.0,0.0,0.0,0.0,0.0,0.0,0.0,0.0,0.0,0.0,0.0,0.0,0.0,0.0,0.0,0.0,0.0,0.0,0.0,0.0,0.0,0.0,0.0,0.0,0.0,0.0,0.0,0.0,0.0,0.0,0.0,0.0,0.0,0.0,0.0,1.3714,1.3714,1.366,0.0,1.3611,0.0,0.0,0.0,0.0,0.0,0.0,0.0,0.0,0.0,0.0,0.0,0.0,0.0,0.0,0.0,0.0,0.0,0.0,0.0,0.0,0.0,0.0,0.0,0.0,0.0,0.0,0.0,0.0,0.0,0.0,0.0,0.0,0.0,0.0,0.0,0.0,0.0,0.0,0.0,0.0,0.0,0.0,0.0,0.0,0.0,0.0,0.0,0.0,0.0,0.0,0.0,0.0,0.0,0.0,0.0,0.0,0.0,0.0,0.0,0.0,0.0,0.0,0.0,0.0,0.0,0.0,0.0,0.0,0.0,0.0,0.0,0.0,0.0,0.0,0.0,0.0,0.0,0.0,0.0,0.0,0.0,0.0,0.0,0.0,0.0,0.0,0.0,0.0,0.0,0.0,0.0,0.0,0.0,0.0,0.0,0.0,0.0,0.0,0.0,0.0,0.0,0.0,0.0,0.0,0.0,0.0,0.0,0.0,0.0,0.0,1.4393,1.4387,1.4013,1.3797,0.0,0.0,0.0,0.0,0.0,0.0,0.0,0.0,0.0,0.0,0.0,0.0,0.0,0.0,0.0,0.0,0.0,0.0,0.0,0.0,0.0,0.0,0.0,0.0,0.0,0.0,0.0,0.0,0.0,0.0,0.0,0.0,0.0,0.0,0.0,0.0,0.0,0.0,0.0,0.0,0.0,0.0,0.0,0.0,0.0,0.0,0.0,0.0,0.0,0.0,0.0,0.0,0.0,0.0,0.0,0.0,0.0,0.0,0.0,0.0,0.0,0.0,0.0,0.0,0.0,0.0,0.0,0.0,0.0,0.0,0.0,0.0,0.0,0.0,0.0,0.0,0.0,0.0,0.0,0.0,0.0,0.0,0.0,0.0,0.0,0.0,0.0,0.0,0.0,0.0,0.0,0.0,0.0,0.0,0.0,0.0,0.0,0.0,0.0,0.0,0.0,0.0,0.0,0.0,0.0,0.0,0.0,0.0,0.0,0.0,1.532,1.5087,1.5058,1.4609,1.4363,1.4342,0.0,0.0,0.0,0.0,0.0,0.0,0.0,0.0,0.0,0.0,0.0,0.0,0.0,0.0,0.0,0.0,0.0,0.0,0.0,0.0,0.0,0.0,0.0,0.0,0.0,0.0,0.0,0.0,0.0,0.0,0.0,0.0,0.0,0.0,0.0,0.0,0.0,0.0,0.0,0.0,0.0,0.0,0.0,0.0,0.0,0.0,0.0,0.0,0.0,0.0,0.0,0.0,0.0,0.0,0.0,0.0,0.0,0.0,0.0,0.0,0.0,0.0,0.0,0.0,0.0,0.0,0.0,0.0,0.0,0.0,0.0,0.0,0.0,0.0,0.0,0.0,0.0,0.0,0.0,0.0,0.0,0.0,0.0,0.0,0.0,0.0,0.0,0.0,0.0,0.0,0.0,0.0,0.0,0.0,0.0,0.0,0.0,0.0,0.0,0.0,0.0,0.0,0.0,0.0,0.0,0.0,0.0,0.0,1.5806,1.5761,1.5746,1.5739,1.5724,1.5709,0.0,0.0,0.0,0.0,0.0,0.0,0.0,0.0,0.0,0.0,0.0,0.0,0.0,0.0,0.0,0.0,0.0,0.0,0.0,0.0,0.0,0.0,0.0,0.0,0.0,0.0,0.0,0.0,0.0,0.0,0.0,0.0,0.0,0.0,0.0,0.0,0.0,0.0,0.0,0.0,0.0,0.0,0.0,0.0,0.0,0.0,0.0,0.0,0.0,0.0,0.0,0.0,0.0,0.0,0.0,0.0,0.0,0.0,0.0,0.0,0.0,0.0,0.0,0.0,0.0,0.0,0.0,0.0,0.0,0.0,0.0,0.0,0.0,0.0,0.0,0.0,0.0,0.0,0.0,0.0,0.0,0.0,0.0,0.0,0.0,0.0,0.0,0.0,0.0,0.0,0.0,0.0,0.0,0.0,0.0,0.0,0.0,0.0,0.0,0.0,0.0,0.0,0.0,0.0,0.0,0.0,0.0,0.0,0.0,1.5806,1.5806,1.5806,1.5806,1.5806,1.5806,0.0,0.0,0.0,0.0,0.0,0.0,0.0,0.0,0.0,0.0,0.0,0.0,0.0,0.0,0.0,0.0,0.0,0.0,0.0,0.0,0.0,0.0,0.0,0.0,0.0,0.0,0.0,0.0,0.0,0.0,0.0,0.0,0.0,0.0,0.0,0.0,0.0,0.0,0.0,0.0,0.0,0.0,0.0,0.0,0.0,0.0,0.0,0.0,0.0,0.0,0.0,0.0,0.0,0.0,0.0,0.0,0.0,0.0,0.0,0.0,0.0,0.0,0.0,0.0,0.0,0.0,0.0,0.0,0.0,0.0,0.0,0.0,0.0,0.0,0.0,0.0,0.0,0.0,0.0,0.0,0.0,0.0,0.0,0.0,0.0,0.0,0.0,0.0,0.0,0.0,0.0,0.0,0.0,0.0,0.0,0.0,0.0,0.0,0.0,0.0,0.0,0.0,0.0,0.0,0.0,0.0,0.0,0.0,0.0,1.5926,0.0,1.6034,1.5934,1.5934,1.5899,0.0,0.0,0.0,0.0,0.0,0.0,0.0,0.0,0.0,0.0,0.0,0.0,0.0,0.0,0.0,0.0,0.0,0.0,0.0,0.0,0.0,0.0,0.0,0.0,0.0,0.0,0.0,0.0,0.0,0.0,0.0,0.0,0.0,0.0,0.0,0.0,0.0,0.0,0.0,0.0,0.0,0.0,0.0,0.0,0.0,0.0,0.0,0.0,0.0,0.0,0.0,0.0,0.0,0.0,0.0,0.0,0.0,0.0,0.0,0.0,0.0,0.0,0.0,0.0,0.0,0.0,0.0,0.0,0.0,0.0,0.0,0.0,0.0,0.0,0.0,0.0,0.0,0.0,0.0,0.0,0.0,0.0,0.0,0.0,0.0,0.0,0.0,0.0,0.0,0.0,0.0,0.0,0.0,0.0,0.0,0.0,0.0,0.0,0.0,0.0,0.0,0.0,0.0,0.0,0.0,0.0,0.0,0.0,1.5934,1.6183,1.6457,1.645,1.6217,1.619,1.6058,0.0,0.0,0.0,0.0,0.0,0.0,0.0,0.0,0.0,0.0,0.0,0.0,0.0,0.0,0.0,0.0,0.0,0.0,0.0,0.0,0.0,0.0,0.0,0.0,0.0,0.0,0.0,0.0,0.0,0.0,0.0,0.0,0.0,0.0,0.0,0.0,0.0,0.0,0.0,0.0,0.0,0.0,0.0,0.0,0.0,0.0,0.0,0.0,0.0,0.0,0.0,0.0,0.0,0.0,0.0,0.0,0.0,0.0,0.0,0.0,0.0,0.0,0.0,0.0,0.0,0.0,0.0,0.0,0.0,0.0,0.0,0.0,0.0,0.0,0.0,0.0,0.0,0.0,0.0,0.0,0.0,0.0,0.0,0.0,0.0,0.0,0.0,0.0,0.0,0.0,0.0,0.0,0.0,0.0,0.0,0.0,0.0,0.0,0.0,0.0,0.0,0.0,0.0,0.0,0.0,0.0,0.0,0.0,0.0,1.5941,1.6353,1.6461,1.6217,1.6203,1.6155,0.0,0.0,0.0,0.0,0.0,0.0,0.0,0.0,0.0,0.0,0.0,0.0,0.0,0.0,0.0,0.0,0.0,0.0,0.0,0.0,0.0,0.0,0.0,0.0,0.0,0.0,0.0,0.0,0.0,0.0,0.0,0.0,0.0,0.0,0.0,0.0,0.0,0.0,0.0,0.0,0.0,0.0,0.0,0.0,0.0,0.0,0.0,0.0,0.0,0.0,0.0,0.0,0.0,0.0,0.0,0.0,0.0,0.0,0.0,0.0,0.0,0.0,0.0,0.0,0.0,0.0,0.0,0.0,0.0,0.0,0.0,0.0,0.0,0.0,0.0,0.0,0.0,0.0,0.0,0.0,0.0,0.0,0.0,0.0,0.0,0.0,0.0,0.0,0.0,0.0,0.0,0.0,0.0,0.0,0.0,0.0,0.0,0.0,0.0,0.0,0.0,0.0,0.0,0.0,0.0,0.0,0.0,0.0,0.0,1.6546,1.702,1.7189,1.6912,1.6912,1.6678,1.6226,0.0,0.0,0.0,0.0,0.0,0.0,0.0,0.0,0.0,0.0,0.0,0.0,0.0,0.0,0.0,0.0,0.0,0.0,0.0,0.0,0.0,0.0,0.0,0.0,0.0,0.0,0.0,0.0,0.0,0.0,0.0,0.0,0.0,0.0,0.0,0.0,0.0,0.0,0.0,0.0,0.0,0.0,0.0,0.0,0.0,0.0,0.0,0.0,0.0,0.0,0.0,0.0,0.0,0.0,0.0,0.0,0.0,0.0,0.0,0.0,0.0,0.0,0.0,0.0,0.0,0.0,0.0,0.0,0.0,0.0,0.0,0.0,0.0,0.0,0.0,0.0,0.0,0.0,0.0,0.0,0.0,0.0,0.0,0.0,0.0,0.0,0.0,0.0,0.0,0.0,0.0,0.0,0.0,0.0,0.0,0.0,0.0,0.0,0.0,0.0,0.0,0.0,0.0,0.0,0.0,0.0,0.0,0.0,1.7786,1.832,1.847,1.8165,1.8083,1.7517,0.0,0.0,0.0,0.0,0.0,0.0,0.0,0.0,0.0,0.0,0.0,0.0,0.0,0.0,0.0,0.0,0.0,0.0,0.0,0.0,0.0,0.0,0.0,0.0,0.0,0.0,0.0,0.0,0.0,0.0,0.0,0.0,0.0,0.0,0.0,0.0,0.0,0.0,0.0,0.0,0.0,0.0,0.0,0.0,0.0,0.0,0.0,0.0,0.0,0.0,0.0,0.0,0.0,0.0,0.0,0.0,0.0,0.0,0.0,0.0,0.0,0.0,0.0,0.0,0.0,0.0,0.0,0.0,0.0,0.0,0.0,0.0,0.0,0.0,0.0,0.0,0.0,0.0,0.0,0.0,0.0,0.0,0.0,0.0,0.0,0.0,0.0,0.0,0.0,0.0,0.0,0.0,0.0,0.0,0.0,0.0,0.0,0.0,0.0,0.0,0.0,0.0,0.0,0.0,0.0,0.0,0.0,0.0,0.0,1.8813,1.9676,1.9744,1.8935,1.8189,1.7748,0.0,0.0,0.0,0.0,0.0,0.0,0.0,0.0,0.0,0.0,0.0,0.0,0.0,0.0,0.0,0.0,0.0,0.0,0.0,0.0,0.0,0.0,0.0,0.0,0.0,0.0,0.0,0.0,0.0,0.0,0.0,0.0,0.0,0.0,0.0,0.0,0.0,0.0,0.0,0.0,0.0,0.0,0.0,0.0,0.0,0.0,0.0,0.0,0.0,0.0,0.0,0.0,0.0,0.0,0.0,0.0,0.0,0.0,0.0,0.0,0.0,0.0,0.0,0.0,0.0,0.0,0.0,0.0,0.0,0.0,0.0,0.0,0.0,0.0,0.0,0.0,0.0,0.0,0.0,0.0,0.0,0.0,0.0,0.0,0.0,0.0,0.0,0.0,0.0,0.0,0.0,0.0,0.0,0.0,0.0,0.0,0.0,0.0,0.0,0.0,0.0,0.0,0.0,0.0,0.0,0.0,0.0,0.0,1.8674,1.9419,2.0572,2.0879,2.0324,1.917,1.8351,0.0,0.0,0.0,0.0,0.0,0.0,0.0,0.0,0.0,0.0,0.0,0.0,0.0,0.0,0.0,0.0,0.0,0.0,0.0,0.0,0.0,0.0,0.0,0.0,0.0,0.0,0.0,0.0,0.0,0.0,0.0,0.0,0.0,0.0,0.0,0.0,0.0,0.0,0.0,0.0,0.0,0.0,0.0,0.0,0.0,0.0,0.0,0.0,0.0,0.0,0.0,0.0,0.0,0.0,0.0,0.0,0.0,0.0,0.0,0.0,0.0,0.0,0.0,0.0,0.0,0.0,0.0,0.0,0.0,0.0,0.0,0.0,0.0,0.0,0.0,0.0,0.0,0.0,0.0,0.0,0.0,0.0,0.0,0.0,0.0,0.0,0.0,0.0,0.0,0.0,0.0,0.0,0.0,0.0,0.0,0.0,0.0,0.0,0.0,0.0,0.0,0.0,0.0,0.0,0.0,0.0,0.0,0.0,1.9394,1.9791,2.1104,2.1781,2.1748,2.0415,1.9107,0.0,0.0,0.0,0.0,0.0,0.0,0.0,0.0,0.0,0.0,0.0,0.0,0.0,0.0,0.0,0.0,0.0,0.0,0.0,0.0,0.0,0.0,0.0,0.0,0.0,0.0,0.0,0.0,0.0,0.0,0.0,0.0,0.0,0.0,0.0,0.0,0.0,0.0,0.0,0.0,0.0,0.0,0.0,0.0,0.0,0.0,0.0,0.0,0.0,0.0,0.0,0.0,0.0,0.0,0.0,0.0,0.0,0.0,0.0,0.0,0.0,0.0,0.0,0.0,0.0,0.0,0.0,0.0,0.0,0.0,0.0,0.0,0.0,0.0,0.0,0.0,0.0,0.0,0.0,0.0,0.0,0.0,0.0,0.0,0.0,0.0,0.0,0.0,0.0,0.0,0.0,0.0,0.0,0.0,0.0,0.0,0.0,0.0,0.0,0.0,0.0,0.0,0.0,0.0,0.0,0.0,0.0,0.0,1.9619,2.0484,2.1348,2.1781,2.1796,2.0231,1.9326,0.0,0.0,0.0,0.0,0.0,0.0,0.0,0.0,0.0,0.0,0.0,0.0,0.0,0.0,0.0,0.0,0.0,0.0,0.0,0.0,0.0,0.0,0.0,0.0,0.0,0.0,0.0,0.0,0.0,0.0,0.0,0.0,0.0,0.0,0.0,0.0,0.0,0.0,0.0,0.0,0.0,0.0,0.0,0.0,0.0,0.0,0.0,0.0,1.7833,0.0,0.0,0.0,0.0,0.0,0.0,0.0,0.0,0.0,0.0,0.0,0.0,0.0,0.0,0.0,0.0,0.0,0.0,0.0,0.0,0.0,0.0,0.0,0.0,0.0,0.0,0.0,0.0,0.0,0.0,0.0,0.0,0.0,0.0,0.0,0.0,0.0,0.0,0.0,0.0,0.0,0.0,0.0,0.0,0.0,0.0,0.0,0.0,0.0,0.0,0.0,0.0,0.0,0.0,0.0,0.0,0.0,0.0,0.0,1.9712,2.0762,2.1496,2.1862,2.1866,2.0713,1.9888,0.0,0.0,0.0,0.0,0.0,0.0,0.0,0.0,0.0,0.0,0.0,0.0,0.0,0.0,0.0,0.0,0.0,0.0,0.0,0.0,0.0,0.0,0.0,0.0,0.0,0.0,0.0,0.0,0.0,0.0,0.0,0.0,0.0,0.0,0.0,0.0,0.0,0.0,0.0,0.0,0.0,0.0,0.0,0.0,0.0,0.0,0.0,0.0,0.0,0.0,0.0,0.0,0.0,0.0,0.0,0.0,0.0,0.0,0.0,0.0,0.0,0.0,0.0,0.0,0.0,0.0,0.0,0.0,0.0,0.0,0.0,0.0,0.0,0.0,0.0,0.0,0.0,0.0,0.0,0.0,0.0,0.0,0.0,0.0,0.0,0.0,0.0,0.0,0.0,0.0,0.0,0.0,0.0,0.0,0.0,0.0,0.0,0.0,0.0,0.0,0.0,0.0,0.0,0.0,0.0,0.0,0.0,1.8852,1.9848,2.1005,2.1595,2.1943,2.1996,2.1344,2.0464,1.9323,0.0,0.0,0.0,0.0,0.0,0.0,0.0,0.0,0.0,0.0,0.0,0.0,0.0,0.0,0.0,0.0,0.0,0.0,0.0,0.0,0.0,0.0,0.0,0.0,0.0,0.0,0.0,0.0,0.0,0.0,0.0,0.0,0.0,0.0,0.0,0.0,0.0,0.0,1.4872,1.5523,0.0,0.0,0.0,0.0,0.0,0.0,0.0,0.0,2.0256,0.0,0.0,0.0,0.0,0.0,0.0,0.0,0.0,0.0,0.0,0.0,0.0,0.0,0.0,0.0,0.0,0.0,0.0,0.0,0.0,0.0,0.0,0.0,0.0,0.0,0.0,0.0,0.0,0.0,0.0,0.0,0.0,0.0,0.0,0.0,0.0,0.0,0.0,0.0,0.0,0.0,0.0,0.0,0.0,0.0,0.0,0.0,0.0,0.0,0.0,0.0,0.0,0.0,0.0,0.0,0.0,1.9295,1.9451,2.025,2.1687,2.1847,2.1943,2.1989,2.1302,2.0504,1.9644,0.0,0.0,0.0,0.0,0.0,0.0,0.0,0.0,0.0,0.0,0.0,0.0,0.0,0.0,0.0,0.0,0.0,0.0,0.0,0.0,0.0,0.0,0.0,0.0,0.0,0.0,0.0,0.0,0.0,0.0,0.0,0.0,0.0,0.0,0.0,0.0,0.0,0.0,0.0,1.711,1.728,0.0,0.0,0.0,0.0,0.0,0.0,0.0,0.0,2.1246,0.0,0.0,0.0,0.0,0.0,0.0,0.0,0.0,0.0,0.0,0.0,0.0,0.0,0.0,0.0,0.0,0.0,0.0,0.0,0.0,0.0,0.0,0.0,0.0,0.0,0.0,0.0,0.0,0.0,0.0,0.0,0.0,0.0,0.0,0.0,0.0,0.0,0.0,0.0,0.0,0.0,0.0,0.0,0.0,0.0,0.0,0.0,0.0,0.0,0.0,0.0,0.0,0.0,0.0,0.0,1.9953,2.0597,2.1647,2.3134,2.3201,2.3222,2.328,2.2582,2.183,0.0,0.0,0.0,0.0,0.0,0.0,0.0,0.0,0.0,0.0,0.0,0.0,0.0,0.0,0.0,0.0,0.0,0.0,0.0,0.0,0.0,0.0,0.0,0.0,0.0,0.0,0.0,0.0,0.0,0.0,0.0,0.0,0.0,0.0,0.0,0.0,0.0,0.0,0.0,0.0,1.8466,1.9001,2.0498,0.0,0.0,0.0,0.0,0.0,0.0,2.1273,2.1323,0.0,0.0,0.0,0.0,0.0,0.0,0.0,0.0,0.0,0.0,0.0,0.0,0.0,0.0,0.0,0.0,0.0,0.0,0.0,0.0,0.0,0.0,0.0,0.0,0.0,0.0,0.0,0.0,0.0,0.0,0.0,0.0,0.0,0.0,0.0,0.0,0.0,0.0,0.0,0.0,0.0,0.0,0.0,0.0,0.0,0.0,0.0,0.0,0.0,0.0,0.0,0.0,0.0,0.0,0.0,2.0695,2.1782,2.3003,2.4324,2.4416,2.4438,2.4491,2.3637,2.2895,0.0,0.0,0.0,0.0,0.0,0.0,0.0,0.0,0.0,0.0,0.0,0.0,0.0,0.0,0.0,0.0,0.0,0.0,0.0,0.0,0.0,0.0,0.0,0.0,0.0,0.0,0.0,0.0,0.0,0.0,0.0,0.0,0.0,0.0,0.0,0.0,0.0,0.0,0.0,0.0,0.0,2.0609,2.1934,2.166,0.0,0.0,0.0,0.0,2.1864,2.1918,0.0,0.0,0.0,0.0,0.0,0.0,0.0,0.0,0.0,0.0,0.0,0.0,0.0,0.0,0.0,0.0,0.0,0.0,0.0,0.0,0.0,0.0,0.0,0.0,0.0,0.0,0.0,0.0,0.0,0.0,0.0,0.0,0.0,0.0,0.0,0.0,0.0,0.0,0.0,0.0,0.0,0.0,0.0,0.0,0.0,0.0,0.0,0.0,0.0,0.0,0.0,0.0,0.0,0.0,0.0,0.0,2.1808,2.2638,2.3499,2.4358,2.4416,2.4455,2.4481,2.3156,2.235,0.0,0.0,0.0,0.0,0.0,0.0,0.0,0.0,0.0,0.0,0.0,0.0,0.0,0.0,0.0,0.0,0.0,0.0,0.0,0.0,0.0,0.0,0.0,0.0,0.0,0.0,0.0,0.0,0.0,0.0,0.0,0.0,0.0,0.0,0.0,0.0,0.0,0.0,0.0,0.0,0.0,2.118,2.2067,2.2109,2.2124,0.0,0.0,2.3845,2.3856,2.4398,0.0,0.0,0.0,0.0,0.0,0.0,0.0,0.0,0.0,0.0,0.0,0.0,0.0,0.0,0.0,0.0,0.0,0.0,0.0,0.0,0.0,0.0,0.0,0.0,0.0,0.0,0.0,0.0,0.0,0.0,0.0,0.0,0.0,0.0,0.0,0.0,0.0,0.0,0.0,0.0,0.0,0.0,0.0,0.0,0.0,0.0,0.0,0.0,0.0,0.0,0.0,0.0,0.0,0.0,0.0,2.1998,2.2746,2.3939,2.5132,2.6261,2.632,2.6336,2.6361,2.495,2.397,0.0,0.0,0.0,0.0,0.0,0.0,0.0,0.0,0.0,0.0,0.0,0.0,0.0,0.0,0.0,0.0,0.0,0.0,0.0,0.0,0.0,0.0,0.0,0.0,0.0,0.0,0.0,0.0,0.0,0.0,0.0,0.0,0.0,0.0,0.0,0.0,0.0,0.0,0.0,0.0,0.0,0.0,2.2671,2.3127,0.0,0.0,0.0,2.4107,2.3749,0.0,0.0,0.0,0.0,0.0,0.0,0.0,0.0,0.0,0.0,0.0,0.0,0.0,0.0,0.0,0.0,0.0,0.0,0.0,0.0,0.0,0.0,0.0,0.0,0.0,0.0,0.0,0.0,0.0,0.0,0.0,0.0,0.0,0.0,0.0,0.0,0.0,0.0,0.0,0.0,0.0,0.0,0.0,0.0,0.0,0.0,0.0,0.0,0.0,0.0,0.0,0.0,0.0,0.0,0.0,0.0,0.0,2.3862,2.5453,2.6851,2.8061,2.8192,2.8218,2.8193,2.7059,0.0,0.0,0.0,0.0,0.0,0.0,0.0,0.0,0.0,0.0,0.0,0.0,0.0,0.0,0.0,0.0,0.0,0.0,0.0,0.0,0.0,0.0,0.0,0.0,0.0,0.0,0.0,1.747,0.0,0.0,0.0,0.0,0.0,0.0,0.0,0.0,0.0,0.0,0.0,0.0,0.0,0.0,2.3051,2.3626,2.4347,2.4938,0.0,0.0,2.4964,2.4641,2.5426,2.5615,0.0,0.0,0.0,0.0,0.0,0.0,0.0,0.0,0.0,0.0,0.0,0.0,0.0,0.0,0.0,0.0,0.0,0.0,0.0,0.0,0.0,0.0,0.0,0.0,0.0,0.0,0.0,0.0,0.0,0.0,0.0,0.0,0.0,0.0,0.0,0.0,0.0,0.0,0.0,0.0,0.0,0.0,0.0,0.0,0.0,0.0,0.0,0.0,0.0,0.0,0.0,0.0,0.0,0.0,0.0,2.5385,2.7177,2.8374,2.8918,2.923,2.9377,2.9368,2.8914,2.8174,0.0,0.0,0.0,0.0,0.0,0.0,0.0,0.0,0.0,0.0,0.0,0.0,0.0,0.0,0.0,0.0,0.0,0.0,0.0,0.0,0.0,0.0,0.0,0.0,0.0,0.0,0.0,0.0,0.0,0.0,0.0,0.0,0.0,0.0,0.0,0.0,0.0,0.0,0.0,0.0,0.0,2.4324,2.4967,2.5755,2.6699,0.0,0.0,2.738,2.7953,2.8104,2.7734,2.6406,0.0,0.0,0.0,0.0,0.0,0.0,0.0,0.0,0.0,0.0,0.0,0.0,0.0,0.0,0.0,0.0,0.0,0.0,0.0,0.0,0.0,0.0,0.0,0.0,0.0,0.0,0.0,0.0,0.0,0.0,0.0,0.0,0.0,0.0,0.0,0.0,0.0,0.0,0.0,0.0,0.0,0.0,0.0,0.0,0.0,0.0,0.0,0.0,0.0,0.0,0.0,0.0,0.0,2.6086,2.6261,2.7887,2.9034,2.9644,2.9799,2.9865,2.9882,2.9282,2.8422,0.0,0.0,0.0,0.0,0.0,0.0,0.0,0.0,0.0,0.0,0.0,0.0,0.0,0.0,0.0,0.0,0.0,0.0,0.0,0.0,0.0,0.0,0.0,0.0,0.0,0.0,0.0,0.0,2.1044,2.1094,2.1149,0.0,0.0,0.0,0.0,0.0,0.0,0.0,0.0,0.0,0.0,2.5383,2.6295,2.7479,0.0,0.0,2.8812,2.8596,2.8427,2.875,2.8569,2.7238,2.7022,0.0,0.0,0.0,0.0,0.0,0.0,0.0,0.0,0.0,0.0,0.0,0.0,0.0,0.0,0.0,0.0,0.0,0.0,0.0,0.0,0.0,0.0,0.0,0.0,0.0,0.0,0.0,0.0,0.0,0.0,0.0,0.0,0.0,0.0,0.0,0.0,0.0,0.0,0.0,0.0,0.0,0.0,0.0,0.0,0.0,0.0,0.0,0.0,0.0,0.0,0.0,0.0,2.7091,2.7231,2.8905,3.0099,3.0737,3.0846,3.0918,3.0901,3.0525,2.9752,0.0,0.0,0.0,0.0,0.0,0.0,0.0,0.0,0.0,0.0,0.0,0.0,0.0,0.0,0.0,0.0,0.0,0.0,0.0,0.0,0.0,0.0,0.0,0.0,0.0,0.0,0.0,0.0,2.1934,2.2069,2.2139,0.0,0.0,0.0,0.0,0.0,0.0,0.0,0.0,0.0,0.0,2.7104,2.7527,2.8612,2.9387,2.9387,2.923,2.8999,2.8722,2.891,2.8796,2.7857,0.0,0.0,0.0,0.0,0.0,0.0,0.0,0.0,0.0,0.0,0.0,0.0,0.0,0.0,0.0,0.0,0.0,0.0,0.0,0.0,0.0,0.0,0.0,0.0,0.0,0.0,0.0,0.0,0.0,0.0,0.0,0.0,0.0,0.0,0.0,0.0,0.0,0.0,0.0,0.0,0.0,0.0,0.0,0.0,0.0,0.0,0.0,0.0,0.0,0.0,0.0,0.0,0.0,2.7982,2.8389,3.0427,3.1753,3.223,3.2549,3.2705,3.2721,3.3086,3.2745,3.1553,0.0,0.0,0.0,0.0,0.0,0.0,0.0,0.0,0.0,0.0,0.0,0.0,0.0,0.0,0.0,0.0,0.0,0.0,0.0,0.0,0.0,0.0,0.0,0.0,0.0,0.0,2.1828,2.241,2.2828,0.0,0.0,0.0,0.0,0.0,0.0,0.0,0.0,0.0,0.0,2.8424,2.9662,2.8534,2.8969,2.9468,2.9458,2.8901,2.8685,2.9317,2.887,2.8411,0.0,0.0,0.0,0.0,0.0,0.0,0.0,0.0,0.0,0.0,0.0,0.0,0.0,0.0,0.0,0.0,0.0,0.0,0.0,0.0,0.0,0.0,0.0,0.0,0.0,0.0,0.0,2.2558,2.2576,0.0,0.0,0.0,0.0,0.0,0.0,0.0,0.0,0.0,0.0,0.0,2.6509,2.7019,0.0,0.0,0.0,0.0,0.0,0.0,0.0,0.0,0.0,0.0,0.0,0.0,2.8982,2.9211,3.1082,3.2401,3.3055,3.2692,3.2716,3.3245,3.2886,3.2256,3.1397,0.0,0.0,0.0,0.0,0.0,0.0,0.0,0.0,0.0,0.0,0.0,0.0,0.0,0.0,0.0,0.0,0.0,0.0,0.0,0.0,0.0,0.0,0.0,0.0,0.0,2.2626,0.0,0.0,0.0,0.0,0.0,0.0,0.0,0.0,0.0,0.0,0.0,2.7104,2.7954,2.888,2.9368,2.9089,3.0167,3.1072,0.0,0.0,0.0,0.0,0.0,0.0,0.0,0.0,0.0,0.0,0.0,0.0,0.0,0.0,2.7084,2.6475,2.6866,2.7358,2.7592,0.0,0.0,0.0,0.0,0.0,0.0,0.0,0.0,0.0,0.0,0.0,0.0,0.0,0.0,0.0,0.0,2.5309,0.0,0.0,0.0,0.0,0.0,0.0,0.0,0.0,2.8263,2.8747,2.8917,2.9459,2.9588,0.0,2.934,2.8649,0.0,0.0,0.0,0.0,0.0,0.0,0.0,0.0,3.0255,3.0359,3.2413,3.3768,3.4256,3.3786,3.3768,3.4274,3.3786,3.3164,3.2398,3.1709,3.0879,0.0,0.0,0.0,0.0,0.0,0.0,0.0,0.0,0.0,0.0,0.0,0.0,0.0,0.0,0.0,0.0,0.0,0.0,0.0,0.0,0.0,0.0,0.0,2.4133,0.0,0.0,0.0,0.0,0.0,0.0,0.0,0.0,0.0,2.7094,2.7992,2.886,2.9323,3.0137,3.0514,2.9968,0.0,0.0,0.0,0.0,0.0,0.0,0.0,2.985,2.9772,2.9949,3.0198,3.0419,3.0435,3.0361,3.0185,0.0,0.0,2.8252,2.8451,2.9089,2.9587,2.9809,3.0077,3.0652,3.0772,3.078,0.0,0.0,0.0,0.0,0.0,0.0,0.0,0.0,2.9514,2.9024,0.0,2.9066,0.0,0.0,0.0,0.0,0.0,0.0,0.0,0.0,3.1174,3.138,3.0582,3.199,3.2567,3.2321,3.2281,3.2126,3.1717,3.0006,0.0,0.0,0.0,0.0,0.0,0.0,3.1752,3.1834,3.4382,3.5796,3.5814,3.5786,3.5778,3.576,3.576,3.5398,3.4638,3.3561,3.2608,3.1737,2.9731,0.0,0.0,0.0,0.0,0.0,0.0,0.0,0.0,0.0,0.0,0.0,0.0,0.0,0.0,0.0,0.0,0.0,0.0,0.0,0.0,2.5583,0.0,0.0,0.0,0.0,0.0,0.0,0.0,0.0,0.0,0.0,2.7809,2.9895,3.1282,3.0239,0.0,0.0,0.0,0.0,3.1503,3.0248,2.9621,2.9379,2.9431,2.9545,3.0264,3.2029,0.0,0.0,3.4191,3.4275,3.4057,3.3681,3.4175,3.362,2.9851,2.9497,3.0002,3.1219,3.1561,3.2017,3.3358,3.3646,3.3758,3.284,0.0,0.0,0.0,0.0,3.0948,3.1666,3.2468,3.2468,3.1991,3.1166,3.1439,0.0,0.0,0.0,0.0,0.0,0.0,3.2273,3.2944,3.3976,3.4439,3.4502,3.4936,3.5042,3.4762,3.4754,3.4715,3.4609,3.4088,3.2431,2.9808,0.0,0.0,0.0,0.0,3.284,3.347,3.4983,3.6065,3.6643,3.6109,3.5794,3.5794,3.5794,3.5695,3.5468,3.5154,3.4219,3.2626,3.1953,0.0,0.0,0.0,0.0,0.0,0.0,0.0,0.0,0.0,0.0,0.0,0.0,0.0,0.0,0.0,0.0,0.0,0.0,0.0,2.5196,2.6565,2.7152,0.0,0.0,0.0,0.0,0.0,0.0,0.0,0.0,0.0,3.0663,3.0729,3.0814,0.0,0.0,3.1167,3.0467,3.1849,3.3078,3.3378,0.0,0.0,0.0,3.3667,3.3401,3.3622,3.4279,3.4864,3.5062,3.5569,3.5938,3.5807,3.5916,3.5587,3.462,3.4082,3.4052,3.4454,3.4682,3.4971,3.544,3.555,3.5563,3.7356,3.5017,3.4127,3.3562,3.3308,3.3824,3.4481,3.5183,3.5225,3.4741,3.3922,3.4245,3.3444,3.1882,3.1709,0.0,0.0,0.0,3.4686,3.5559,3.6017,3.6352,3.6548,3.6855,3.6846,3.6633,3.6626,3.6644,3.6608,3.6304,3.495,3.2593,0.0,0.0,3.2162,3.3392,3.4277,3.4823,3.6083,3.7005,3.7466,3.7005,3.6761,3.6761,3.6761,3.6598,3.6272,3.629,3.5596,3.4115,3.3602,3.2493,0.0,0.0,0.0,0.0,0.0,0.0,0.0,0.0,0.0,0.0,0.0,2.6154,2.5953,0.0,0.0,0.0,2.7452,2.7482,2.7623,2.8248,0.0,0.0,0.0,0.0,0.0,0.0,0.0,3.0331,3.1805,3.2833,3.2899,3.2696,3.2513,3.2451,3.2763,3.2846,3.2396,0.0,3.4857,3.5152,3.5253,3.5386,3.5573,3.5319,3.5239,3.579,3.6692,3.7227,3.7105,3.7706,3.8108,3.7985,3.7928,3.7936,3.8004,3.7633,3.7083,3.6529,3.6683,3.7011,3.7304,3.7251,3.721,4.1771,4.0635,3.7404,3.6289,3.6627,3.6838,3.7177,3.7636,3.777,3.729,3.6486,3.7188,3.6628,3.5088,3.4991,0.0,0.0,3.619,3.671,3.7599,3.7599,3.7457,3.724,3.7962,3.8203,3.7976,3.7995,3.8001,3.7932,3.7227,3.6693,3.6323,3.533,3.446,3.3791,3.516,3.5938,3.6003,3.7458,3.82,3.82,3.82,3.82,3.82,3.82,3.7846,3.7148,3.7112,3.6733,3.5912,3.4895,3.3934,3.3035,0.0,0.0,0.0,0.0,0.0,0.0,0.0,0.0,0.0,0.0,0.0,0.0,0.0,0.0,0.0,3.0051,0.0,3.1166,3.0309,0.0,0.0,0.0,2.9739,3.1137,3.172,3.223,3.2851,0.0,0.0,3.4686,0.0,3.5609,3.5188,3.6026,3.6451,3.5752,3.6253,3.6631,3.6061,3.5611,3.5376,3.5749,3.5836,3.6532,3.8145,3.9551,3.9981,3.9669,3.9993,4.0265,3.9876,3.9995,4.0074,4.0251,3.9771,3.9214,3.7758,3.7803,3.8236,3.877,3.8663,3.8616,4.3044,4.2774,4.1942,4.0397,3.8609,3.9262,3.9611,3.9693,3.9736,3.9176,3.8285,3.8452,3.7889,3.6841,3.7449,3.7831,3.8058,3.8672,3.9072,3.9294,3.9313,3.916,3.8919,3.9114,3.9026,3.8762,3.8729,3.8748,3.8729,3.8551,3.8101,3.7438,3.7165,3.6743,3.6177,3.6542,3.7031,3.7621,3.8001,3.82,3.82,3.82,3.82,3.82,3.82,3.811,3.7919,3.7919,3.7538,3.6751,3.6459,3.566,3.4256,3.2627,0.0,0.0,0.0,0.0,0.0,0.0,0.0,0.0,0.0,2.7855,2.7522,0.0,2.9092,0.0,3.1073,3.1675,3.11,3.1588,0.0,0.0,3.1658,3.2282,3.3516,3.4258,3.4734,3.4891,3.5701,3.6242,3.6254,3.6891,3.7508,3.7901,3.6775,3.5902,3.5969,3.6927,3.7775,3.8142,3.8514,3.8852,3.8819,3.9004,3.9257,3.9762,4.0302,4.0546,4.0461,4.0626,4.0764,4.0638,4.0407,4.0288,4.0351,4.0201,3.9935,3.9224,3.9135,3.9233,3.942,3.9378,3.9362,4.4128,4.4087,4.3696,4.2623,4.1185,4.1634,4.1731,4.1608,4.1659,4.1347,4.076,4.0784,4.0406,3.9862,4.0291,4.0484,4.0457,4.087,4.1062,4.1043,4.1035,4.0937,4.0795,4.0795,4.0697,4.0496,4.0152,3.9983,3.9965,3.9615,3.9146,3.8581,3.8601,3.839,3.7919,3.7077,3.6814,3.7132,3.7476,3.7846,3.82,3.82,3.8028,3.7683,3.7665,3.7512,3.716,3.7123,3.6932,3.6508,3.648,3.5908,3.4699,3.3349,3.2283,0.0,0.0,0.0,0.0,0.0,0.0,0.0,0.0,0.0,0.0,0.0,3.0485,3.1045,3.2418,3.2951,3.2154,3.2623,3.3115,3.3409,3.3773,3.4522,3.587,3.6372,3.6625,3.6625,3.7313,3.79,3.8227,3.8903,3.9673,4.043,3.9459,3.8468,3.8056,3.8751,3.9542,4.0023,4.0697,4.121,4.1295,4.1342,4.1435,4.1498,4.1623,4.1734,4.1808,4.1881,4.1912,4.1918,4.1729,4.1581,4.1598,4.1598,4.1489,4.1291,4.1202,4.0887,4.0087,3.974,3.9671,4.5079,4.5001,4.4249,4.3932,4.3929,4.3882,4.3574,4.3172,4.3275,4.3237,4.3131,4.312,4.2988,4.2836,4.2836,4.2775,4.2666,4.2563,4.2545,4.252,4.2456,4.243,4.243,4.2411,4.2435,4.2392,4.1728,4.1393,4.1355,4.0688,4.013,3.9768,3.981,3.9614,3.9122,3.7498,3.6501,3.6238,3.6783,3.7394,3.8084,3.7993,3.7606,3.6902,3.6888,3.658,3.588,3.5817,3.5825,3.5817,3.5825,3.5584,3.5028,3.3893,3.2985,0.0,3.1365,0.0,0.0,0.0,0.0,0.0,0.0,0.0,0.0,3.1548,3.1865,3.2622,3.3855,3.4421,3.3897,3.3914,3.4506,3.574,3.5921,3.6479,3.7902,3.8149,3.8251,3.8335,3.8996,3.969,4.0316,4.0993,4.171,4.2252,4.2265,4.1682,4.0769,4.0942,4.1384,4.1571,4.2129,4.2423,4.2599,4.2719,4.2766,4.2915,4.2897,4.3068,4.3078,4.3133,4.3167,4.3167,4.3086,4.3108,4.3202,4.3155,4.3155,4.3036,4.3006,4.254,4.1182,4.054,4.0337,4.5963,4.5939,4.5785,4.571,4.5709,4.5696,4.4822,4.3418,4.3454,4.3376,4.3253,4.3148,4.3095,4.3046,4.3042,4.3023,4.2988,4.2824,4.2761,4.2757,4.2621,4.2564,4.2564,4.2583,4.2564,4.2545,4.2411,4.2335,4.2335,4.218,4.1759,4.1065,4.1051,4.0574,3.9627,0.0,0.0,0.0,3.7735,3.7433,3.7584,3.6942,3.6416,3.6111,3.6322,0.0,3.5977,3.5954,3.5962,3.5962,3.5962,0.0,0.0,0.0,0.0,0.0,0.0,0.0,0.0,0.0,0.0,0.0,3.4129,3.3767,3.3211,3.3348,3.3808,3.4572,3.5106,3.5605,3.6107,3.6705,3.7208,3.7567,3.7613,3.8033,3.8996,3.9542,4.0064,4.0688,4.1384,4.1873,4.2009,4.2321,4.2556,4.28,4.2748,4.2646,4.2364,4.239,4.2501,4.2578,4.2765,4.2783,4.2791,4.2946,4.3121,4.3005,4.3106,4.3204,4.3276,4.3271,4.3224,4.3258,4.3219,4.3254,4.3254,4.3219,4.3305,4.3236,4.3254,4.3091,4.2723,4.2584,4.2566,4.7481,0.0,4.7483,4.7483,0.0,4.7476,4.6966,4.607,4.5642,4.5674,4.6013,4.5955,4.5863,4.5783,4.5767,4.5492,4.503,4.4885,4.4575,4.4085,4.3972,4.3908,4.3833,4.3833,4.3852,4.3814,4.3452,4.3224,4.3229,4.2837,4.2418,4.1992,4.2023,4.1739,4.1193,4.1168,4.0751,3.9836,3.9237,3.8948,3.8962,3.857,3.7882,3.6973,0.0,0.0,0.0,0.0,0.0,0.0,0.0,0.0,0.0,0.0,0.0,3.6362,3.5814,3.5604,3.595,3.601,3.6206,3.6542,3.698,3.6674,3.5427,3.5781,3.6417,3.7175,3.7234,3.7368,3.7801,3.8002,3.8384,3.9076,3.9238,3.9695,4.0757,4.1286,4.1678,4.2019,4.2428,4.2769,4.3144,4.3264,4.3531,4.3905,4.3986,4.3978,4.4005,4.3652,4.3463,4.3888,4.4039,4.4078,4.4078,4.4147,4.4182,4.4195,4.4247,4.4285,4.4285,4.4285,4.4285,4.4298,4.4285,4.4298,4.4285,4.4285,4.4298,4.4285,4.4285,4.4285,4.4234,4.3724,4.3219,4.8806,4.8805,4.8805,4.8792,4.879,4.8806,4.8798,4.875,0.0,0.0,0.0,4.8808,4.8712,4.8562,4.8562,4.8083,4.732,4.7228,4.6743,4.5945,4.5871,4.5745,4.5633,4.5475,4.5371,4.5308,4.4532,4.4152,4.4132,4.3481,4.3138,4.3096,4.3138,4.3144,4.3139,4.3158,4.2558,4.14,4.0835,4.0596,4.0607,4.0463,3.9695,3.8303,3.8178,3.7692,3.6783,3.6578,3.6394,3.6139,3.6117,3.6183,3.6336,3.6295,3.635,3.6549,3.6624,3.697,3.7622,3.7812,3.8175,3.8814,3.9489,3.9267,3.785,3.8251,3.8823,3.9488,3.928,3.9196,3.9398,3.9286,3.9646,4.0903,4.112,4.1655,4.2704,4.3107,4.329,4.3278,4.3378,4.358,4.4177,4.4218,4.4397,4.5035,4.5114,4.5274,4.5288,4.4658,4.4407,4.4963,4.5111,4.5315,4.538,4.5311,4.5414,4.5276,4.5328,4.5414,4.5414,4.5414,4.5414,4.529,4.5397,4.5359,4.538,4.5294,4.5414,4.5414,4.5414,4.5414,4.5311,4.4458,4.3694,4.8807,4.8808,4.8805,4.88,4.8799,4.8791,4.8791,4.8789,4.8672,4.8691,4.8789,4.8808,4.8781,4.8752,4.8752,4.8668,4.8535,4.8374,4.8202,0.0,4.7925,4.7811,4.764,4.6915,4.6464,4.626,4.5491,4.5109,4.5109,4.498,4.4947,4.4899,4.4923,4.4909,4.4947,4.4928,4.4826,4.4565,4.2179,4.0948,4.1001,4.0284,3.9714,3.9295,3.8867,3.8431,3.8056,3.7338,3.6819,3.661,3.6609,3.6809,3.7279,3.7342,3.7584,3.8317,3.8978,3.9378,3.9445,4.0124,4.0612,4.0714,4.0824,4.0707,4.0323,4.005,3.9974,4.0108,4.0366,4.0724,4.1393,4.1944,4.2589,4.3571,4.3804,4.399,4.4298,4.475,4.5064,4.507,4.5323,4.5401,4.546,4.5321,4.5181,4.5319,4.5423,4.5397,4.5367,4.5284,4.5237,4.5353,4.5401,4.5414,4.5414,4.5414,4.5414,4.5414,4.5414,4.5414,4.5414,4.5414,4.5414,4.5414,4.5414,4.5414,4.5414,4.5414,4.5414,4.5414,4.5414,4.5414,4.5414,4.5121,4.4996,4.9927,4.9519,4.9491,4.9238,4.8808,4.8796,4.8798,4.8801,4.88,4.9067,4.9432,4.9449,4.9703,5.0131,5.0151,4.9898,4.9428,4.9353,4.9034,4.8511,4.8437,4.8336,4.8175,4.78,4.7563,4.7434,4.7055,4.6829,4.6776,4.6244,4.5965,4.5932,4.5531,4.5283,4.5283,4.5283,4.5283,4.5258,4.4005,4.3113,4.2691,4.2286,4.1806,4.1301,4.1033,4.0796,4.0524,4.0134,3.9829,3.9582,3.9575,3.9605,3.9675,3.9682,3.9759,4.0,4.0351,4.0545,4.0514,4.0859,4.1287,4.169,4.1746,4.2124,4.2871,4.1912,4.1642,4.2468,4.2527,4.2795,4.3627,4.3814,4.4159,4.492,4.5047,4.5276,4.5699,4.602,4.6252,4.6265,4.6365,4.6346,4.6072,4.5938,4.5688,4.5515,4.5615,4.5727,4.5476,4.5667,4.5731,4.5459,4.5414,4.5414,4.5414,4.5414,4.5414,4.5414,4.5414,4.5414,4.5414,4.5414,4.5414,4.5414,4.5414,4.5414,4.5414,4.5414,4.5414,4.5414,4.5414,4.5414,4.5414,4.5414,4.5414,5.0986,5.0366,5.037,4.999,4.9389,4.9355,4.9276,4.9078,4.9067,4.9412,4.9918,4.9833,5.0092,5.0696,5.0735,5.0365,4.982,4.9917,4.9571,4.8905,4.9036,4.9074,4.8922,4.8737,4.8623,4.8561,4.8312,4.8148,4.803,4.7266,4.6835,4.6735,4.6175,4.5875,4.5856,4.5665,4.5569,4.5569,4.5397,4.4972,4.4317,4.4298,4.3997,4.3424,4.3157,4.2966,4.2767,4.2585,4.2363,4.2109,4.209,4.1961,4.1619,4.1609,4.1501,4.1235,4.1372,4.1523,4.1625,4.1635,4.1984,4.2773,4.2828,4.3461,4.4645,4.3794,4.353,4.4611,4.4516,4.4699,4.5428,4.5381,4.5418,4.604,4.6219,4.6518,4.6972,4.716,4.7204,4.7222,4.7115,4.692,4.6607,4.6423,4.6205,4.595,4.6112,4.6137,4.5752,4.5968,4.5968,4.5594,4.5414,4.5414,4.5414,4.5414,4.5414,4.5414,4.5414,4.5414,4.5414,4.5414,4.5414,4.5414,4.5414,4.5414,4.5414,4.5414,4.5414,4.5414,4.5414,4.5475,4.5792,4.6047,4.5925,5.1273,5.1195,5.1204,5.1153,5.1013,5.1018,5.0584,4.9934,4.9897,4.9902,4.9929,4.9243,4.9007,4.9021,4.912,4.9079,4.9003,4.9664,4.9911,4.9905,5.0687,5.0967,5.0591,4.9989,4.9601,4.9396,4.8708,4.845,4.8442,4.8094,4.7856,4.7701,4.7603,4.7513,4.745,4.6762,4.638,4.6366,4.5684,4.5264,4.5187,4.5168,4.5149,4.5073,4.4279,4.3887,4.3817,4.3165,4.2652,4.2405,4.2433,4.227,4.2013,4.198,4.1821,4.156,4.2173,4.2754,4.3218,4.3294,4.3608,4.437,4.4443,4.4792,4.5681,4.5636,4.5581,4.5801,4.5755,4.6039,4.6809,4.6861,4.7078,4.7687,4.7872,4.8098,4.8075,4.8162,4.8172,4.8162,4.7736,4.7517,4.7349,4.7026,4.6782,4.6631,4.6736,4.6684,4.6247,4.6242,4.6144,4.5654,4.5437,4.5437,4.5423,4.5414,4.5414,4.5414,4.5414,4.5414,4.5414,4.5414,4.5432,4.5621,4.55,4.5518,4.5569,4.5414,4.55,4.5738,4.5764,4.5779,4.6625,4.7273,4.7368,5.2502,5.2074,5.2074,5.1756,5.1328,5.131,5.1106,5.0771,5.0775,5.0482,4.999,4.9629,4.9545,4.9585,4.9533,4.9255,4.8847,4.9157,4.9294,4.9313,4.9683,4.98,4.9726,4.9904,4.9883,4.9892,4.9907,4.9964,4.9847,4.9293,4.8653,4.8024,4.7966,4.7919,4.7786,4.7431,4.7278,4.724,4.6953,4.6768,4.6653,4.5812,4.5283,4.5264,4.4958,4.4762,4.4743,4.4442,4.4229,4.4111,4.4119,4.3975,4.3662,4.3649,4.3509,4.3287,4.3822,4.4265,4.4508,4.4767,4.5057,4.5406,4.5397,4.5755,4.6516,4.6608,4.6792,4.7177,4.6893,4.6938,4.7645,4.7819,4.7948,4.826,4.8315,4.8315,4.8315,4.8315,4.8315,4.8287,4.8142,4.7887,4.7601,4.7193,4.6931,4.6942,4.7104,4.7127,4.6713,4.6833,4.681,4.6412,4.6303,4.6013,4.5589,4.5414,4.541,4.541,4.5414,4.5414,4.5432,4.5414,4.5535,4.6014,4.61,4.6307,4.6789,4.6755,4.6755,4.6744,4.6922,4.7221,4.7836,4.8185,4.826,5.3456,5.293,5.2891,5.2538,5.1972,5.1952,5.1952,5.1957,5.1961,5.162,5.1078,5.1031,5.0915,5.0715,5.0253,4.978,4.9567,4.976,4.9721,4.9565,4.974,4.9739,4.9577,5.0063,5.0351,5.0433,5.088,5.1117,5.1002,5.0122,4.9351,4.8896,4.8855,4.8731,4.855,4.8351,4.8184,4.8143,4.7946,4.7794,4.7622,4.6615,4.587,4.564,4.5411,4.5283,4.5283,4.5283,4.5416,4.5602,4.5627,4.5641,4.5622,4.5624,4.5514,4.5267,4.5488,4.566,4.5652,4.5911,4.6137,4.6321,4.6296,4.6581,4.7223,4.7424,4.7681,4.8113,4.7764,4.7709,4.8168,4.8315,4.8315,4.8315,4.8315,4.8315,4.8315,4.8315,4.8315,4.8315,4.8277,4.8181,4.7846,4.7527,4.7364,4.7378,4.758,4.7622,4.7266,4.7356,4.7381,4.6988,4.6886,4.6537,4.5803,4.5667,4.5602,4.541,4.5414,4.5483,4.5634,4.5738,4.6014,4.6703,4.6824,4.6975,4.7265,4.7558,4.7913,4.8012,4.8244,4.8588,4.8927,4.9155,4.9594,5.3681,5.3684,5.3662,5.3668,5.3604,5.3607,5.3607,5.3615,5.3596,5.3591,5.3513,5.352,5.3139,5.2328,5.0956,5.0523,5.1266,5.1925,5.1825,5.1238,5.194,5.1991,5.1214,5.1232,5.1224,5.1131,5.1219,5.123,5.1061,5.0264,5.0112,5.0585,5.0461,5.0507,5.0178,4.9495,4.9152,4.9004,4.8389,4.7887,4.7862,4.7767,4.7275,4.6557,4.5741,4.5416,4.5378,4.534,4.5679,4.6418,4.6457,4.6795,4.7504,4.7575,4.7434,4.7207,4.6972,4.6838,4.6783,4.664,4.6791,4.7343,4.7295,4.7389,4.8126,4.8218,4.8291,4.8335,4.829,4.8271,4.8326,4.8325,4.8315,4.8315,4.8315,4.8315,4.8315,4.8315,4.8315,4.8315,4.8315,4.8267,4.823,4.8267,4.8179,4.8206,4.8265,4.8203,4.7967,4.7774,4.7652,4.7375,4.7155,4.6783,4.6331,4.6161,4.5942,4.5939,4.6001,4.5804,4.6213,4.6648,4.7044,4.7376,4.7548,4.7665,4.7741,4.8006,4.8415,4.8767,4.9306,4.9674,4.9991,5.0701,5.1001,5.5362,5.5362,5.5382,5.5362,5.5362,5.5382,5.5343,5.5362,5.5362,5.5054,5.4619,5.4558,5.4426,5.4138,5.3533,5.2539,5.143,5.1662,5.1648,5.1443,5.173,5.1688,5.1411,5.137,5.1367,5.1361,5.1358,5.1325,5.1279,5.0963,5.0559,5.0197,5.0173,5.0072,4.9872,4.9598,4.965,5.0088,4.9852,4.9673,4.9469,4.9051,4.8548,4.8154,4.7341,4.6896,4.6901,4.6896,4.703,4.7316,4.7335,4.7469,4.7755,4.7794,4.776,4.77,4.7858,4.7981,4.8003,4.8153,4.8351,4.8624,4.8594,4.8561,4.8857,4.894,4.8951,4.889,4.872,4.8632,4.8568,4.8439,4.8315,4.8315,4.8315,4.8315,4.8315,4.8315,4.8315,4.8315,4.8315,4.8315,4.8351,4.8315,4.8526,4.9013,4.9142,4.9247,4.9578,4.9645,4.945,4.944,4.9395,4.922,4.8713,4.7374,4.6672,4.6934,4.7068,4.7215,4.7522,4.7442,4.771,4.8231,4.8407,4.8691,4.8865,4.9246,4.9545,5.0039,5.0549,5.0582,5.1056,5.1297,5.1498,5.6314,5.6314,5.6314,5.6314,5.6314,5.6314,5.6314,5.6314,5.6295,5.5961,5.5495,5.5417,5.5449,5.5485,5.5473,5.465,5.3066,5.3024,5.2888,5.2663,5.2662,5.2502,5.2226,5.1952,5.1812,5.1691,5.1201,5.1102,5.1336,5.1121,5.074,5.0363,5.03,5.0075,4.9705,4.9593,4.9808,5.0012,4.9989,5.0022,5.0122,4.9629,4.9422,4.9461,4.8952,4.8329,4.7851,4.7794,4.7946,4.8157,4.822,4.8329,4.8577,4.8615,4.8615,4.8655,4.8946,4.915,4.9156,4.9351,4.9449,4.9435,4.9345,4.9291,4.9291,4.9291,4.9291,4.9221,4.899,4.8799,4.8729,4.8495,4.8306,4.8315,4.8315,4.8315,4.8315,4.8315,4.8315,4.8315,4.8315,4.8406,4.8673,4.8728,4.9132,4.9894,4.9986,5.0251,5.0674,5.082,5.082,5.0802,5.0641,5.0417,5.0048,4.9061,4.8193,4.8318,4.8234,4.8434,4.8615,4.8455,4.8522,4.9006,4.9386,4.9738,5.0098,5.0502,5.0896,5.1307,5.1329,5.1239,5.149,5.1612,5.1713,5.6314,5.6314,5.6314,5.6314,5.6314,5.6314,5.6314,5.6314,5.6314,5.6236,5.6136,5.6217,5.6165,5.6233,5.6155,5.6149,5.5965,5.5954,5.5675,5.5102,5.5101,5.4706,5.4013,5.3212,5.268,5.2495,5.0969,5.0636,5.1321,5.0737,5.0634,5.1177,5.1132,5.0599,4.9789,4.9784,4.9367,4.8889,4.878,4.8921,4.9363,4.9301,4.9543,5.0226,5.0109,4.9362,4.7944,4.7933,4.8367,4.8984,4.9104,4.9461,4.9977,5.0086,5.0181,5.0086,5.0208,5.0252,5.0203,4.993,4.981,4.9764,4.9527,4.9424,4.9427,4.9405,4.9397,4.9367,4.9113,4.8876,4.8832,4.8559,4.8335,4.8315,4.8315,4.8315,4.8315,4.8315,4.8333,4.8379,4.8462,4.8728,4.9325,4.9601,4.9931,5.0563,5.0802,5.0912,5.1141,5.1224,5.0967,5.0986,5.1224,5.1318,5.1063,5.0731,5.017,4.9722,4.9519,4.9495,4.9806,4.9815,4.9677,5.0007,4.999,5.0324,5.0653,5.1003,5.1176,5.1518,5.1607,5.1658,5.1665,5.1708,5.1815,5.6314,5.6314,5.6314,5.6314,5.6314,5.6314,5.6314,5.6314,5.6314,5.6314,5.6314,5.6314,5.6314,5.6297,5.6303,5.6316,5.634,5.6461,5.6396,5.6201,5.6177,5.6018,5.5626,5.4863,5.3867,5.2713,5.1561,5.1111,5.1285,5.1109,5.0912,5.0572,5.0531,5.034,5.0029,5.0008,4.9812,4.961,4.9529,4.9369,4.8898,4.8768,4.8874,4.9043,4.9437,4.936,4.8897,4.9272,4.9633,4.9901,4.992,5.0054,5.0239,5.0296,5.0296,5.0296,5.0296,5.0296,5.029,5.0218,5.0132,5.0126,5.0019,4.9993,4.9987,4.9968,4.9961,4.9948,4.9688,4.9483,4.9401,4.8976,4.8642,4.8335,4.8315,4.8315,4.8388,4.8351,4.86,4.9087,4.9197,4.9582,5.0178,5.0417,5.0757,5.1463,5.1628,5.1738,5.2242,5.2278,5.2462,5.2443,5.2443,5.2223,5.2058,5.1966,5.1688,5.1197,5.0891,5.062,5.0891,5.0953,5.0865,5.0761,5.0737,5.0861,5.1215,5.1389,5.1505,5.1594,5.1652,5.1678,5.169,5.1815,5.2006,5.6274,5.6274,5.6249,5.6252,5.6256,5.6285,5.6314,5.6314,5.6314,5.6314,5.6314,5.6314,5.6314,5.631,5.6303,5.6315,5.6301,5.6386,5.6463,5.655,5.6591,5.6605,5.641,5.5337,5.4128,5.2781,5.1804,5.1394,5.1394,5.1375,5.1117,5.0663,5.0584,5.0421,5.0157,5.0096,4.9977,4.9679,4.9588,4.9287,4.8747,4.8536,4.8466,4.8451,4.8771,4.8938,4.8973,4.9288,4.971,5.0166,5.0296,5.0296,5.0296,5.0296,5.0296,5.0296,5.0296,5.0296,5.0296,5.029,5.0296,5.0296,5.0296,5.029,5.0296,5.0296,5.0296,5.0248,4.9974,4.9924,5.0125,4.9821,4.9503,4.96,4.878,4.8518,4.8655,4.8793,4.9169,4.9784,5.0041,5.0435,5.0986,5.1261,5.1591,5.2252,5.2454,5.2527,5.3067,5.3141,5.3177,5.3177,5.3012,5.2939,5.3086,5.3104,5.3122,5.2727,5.2313,5.2018,5.1955,5.182,5.1691,5.1429,5.1339,5.1344,5.1592,5.1526,5.1564,5.164,5.169,5.169,5.1744,5.2149,5.2417,5.6222,5.6222,5.622,5.6215,5.6218,5.6249,5.6298,5.6285,5.6288,5.6288,5.6288,5.6311,5.6314,5.6314,5.6314,5.6311,5.6312,5.6303,5.6373,5.6482,5.6537,5.6561,5.6392,5.4946,5.3737,5.2879,5.1882,5.1414,5.1394,5.1394,5.1394,5.1296,5.1236,5.1018,5.0444,5.0206,4.989,4.9239,4.904,4.8994,4.879,4.8616,4.8528,4.8533,4.8565,4.8622,4.865,4.8712,4.9038,4.9947,5.0029,5.0111,5.0187,5.0239,5.0296,5.0296,5.0296,5.0296,5.0296,5.0468,5.0487,5.0506,5.0621,5.0436,5.0684,5.0779,5.0779,5.071,5.0425,5.0452,5.0992,5.0888,5.0983,5.1329,4.9924,4.9184,4.9565,4.9656,5.0041,5.0637,5.0894,5.1169,5.1922,5.205,5.2417,5.2847,5.3067,5.3122,5.3141,5.3196,5.3196,5.3196,5.3196,5.3196,5.3196,5.3196,5.3196,5.3109,5.2869,5.2773,5.2628,5.2481,5.2401,5.2137,5.1805,5.1835,5.1811,5.1735,5.1652,5.1665,5.169,5.169,5.1988,5.2434,5.3023,5.6218,5.6222,5.621,5.6214,5.6218,5.6228,5.6232,5.6236,5.6225,5.6235,5.6239,5.6282,5.6291,5.6314,5.6291,5.6297,5.6303,5.6315,5.6303,5.6376,5.6423,5.6523,5.6225,5.4848,5.3912,5.3483,5.2273,5.1394,5.1394,5.1453,5.1414,5.1394,5.1394,5.1296,5.1058,5.0999,5.0608,4.9881,4.9756,4.9421,4.889,4.8793,4.8737,4.8769,4.9156,4.9355,4.946,4.9886,4.9453,4.8531,4.9098,4.941,4.9606,5.0054,5.0392,5.0449,5.0372,5.0334,5.0474,5.0932,5.1232,5.1308,5.1677,5.2136,5.2155,5.2117,5.2142,5.213,5.2043,5.205,5.226,5.2091,5.1967,5.1681,5.1054,5.0527,5.0489,5.0518,5.0784,5.1528,5.1665,5.2068,5.2564,5.281,5.2902,5.3122,5.3196,5.3196,5.3196,5.3196,5.3196,5.3196,5.3196,5.3196,5.3196,5.3196,5.3196,5.3196,5.312,5.3091,5.298,5.2893,5.2868,5.2788,5.2191,5.2042,5.197,5.1902,5.1834,5.169,5.1815,5.1935,5.2399,5.2863,5.3617,5.6125,5.611,5.6145,5.6153,5.6157,5.6191,5.6218,5.6222,5.6221,5.6213,5.622,5.6238,5.6255,5.6249,5.6255,5.6255,5.6262,5.6255,5.6293,5.6312,5.6366,5.6459,5.6185,5.5115,5.4537,5.44,5.3132,5.237,5.2019,5.1941,5.1746,5.1453,5.1394,5.1394,5.1354,5.1375,5.118,5.0729,5.0626,5.0233,4.9413,4.9349,4.9093,4.8991,4.9238,4.9404,4.9363,4.9689,4.9528,4.9187,4.951,4.986,5.0201,5.0581,5.099,5.1276,5.1359,5.1372,5.1429,5.1868,5.2079,5.2155,5.2594,5.2753,5.2753,5.2792,5.2792,5.2728,5.2792,5.2983,5.3321,5.3466,5.3419,5.321,5.2889,5.242,5.1636,5.14,5.1685,5.2234,5.2546,5.2637,5.3159,5.3196,5.3196,5.3196,5.3196,5.3196,5.3196,5.3196,5.3196,5.3206,5.3206,5.3196,5.3206,5.3217,5.3241,5.3241,5.3322,5.3322,5.3251,5.318,5.3214,5.3083,5.2572,5.2244,5.2209,5.2066,5.1785,5.1762,5.1953,5.2274,5.2702,5.3166,5.3956,5.6008,5.6012,5.6073,5.609,5.6098,5.6168,5.6157,5.6184,5.6191,5.6191,5.6195,5.618,5.6205,5.6208,5.6205,5.6221,5.6211,5.6213,5.6236,5.6273,5.633,5.6399,5.6366,5.5558,5.5172,5.5008,5.44,5.3561,5.2918,5.2742,5.2274,5.1765,5.1531,5.1394,5.1394,5.1394,5.1394,5.1316,5.1257,5.0924,5.0357,5.0219,4.9965,4.9535,4.9436,4.9432,4.9313,4.9375,4.9755,5.0851,5.0726,5.086,5.1466,5.1637,5.202,5.2479,5.2567,5.26,5.2778,5.2784,5.2963,5.3001,5.3084,5.3059,5.3263,5.3359,5.3359,5.3403,5.3091,5.3607,5.4136,5.4868,5.4928,5.4622,5.4662,5.4043,5.3102,5.2442,5.2524,5.3127,5.3277,5.3233,5.3241,5.3227,5.3196,5.3196,5.3196,5.3196,5.3196,5.3196,5.3198,5.3212,5.3209,5.3235,5.3227,5.322,5.3293,5.3326,5.3457,5.3477,5.3416,5.3388,5.3449,5.3297,5.2835,5.2624,5.2597,5.2333,5.1871,5.1762,5.1917,5.2381,5.2911,5.3362,5.4028,5.6008,5.6008,5.6001,5.6005,5.6044,5.6033,5.6057,5.6061,5.6117,5.6129,5.6137,5.6164,5.6199,5.621,5.6199,5.6222,5.621,5.6194,5.622,5.6235,5.6228,5.6301,5.6236,5.5623,5.5325,5.5153,5.4439,5.3932,5.3639,5.3172,5.2645,5.243,5.1902,5.1414,5.1472,5.1511,5.1394,5.1394,5.1394,5.1316,5.114,5.1022,5.0926,5.0692,5.075,5.0805,5.0972,5.1475,5.1907,5.184,5.1377,5.1327,5.1883,5.237,5.2774,5.2984,5.3009,5.2964,5.3089,5.3557,5.3903,5.3935,5.4332,5.4849,5.4823,5.4715,5.4766,5.483,5.4849,5.4791,5.4995,5.5244,5.5319,5.52,5.4983,5.4701,5.433,5.3962,5.3802,5.3869,5.3748,5.3584,5.3554,5.3295,5.323,5.3206,5.3196,5.3196,5.3196,5.3196,5.322,5.3254,5.3282,5.3301,5.3345,5.3355,5.3406,5.3449,5.3568,5.3637,5.3559,5.3549,5.3617,5.3449,5.3141,5.3013,5.2904,5.2309,5.1785,5.1842,5.1947,5.2399,5.2881,5.3434,5.3938,5.6008,5.6008,5.6008,5.6008,5.6008,5.6008,5.6008,5.5993,5.6033,5.6065,5.605,5.609,5.6129,5.6149,5.6129,5.6129,5.6149,5.6153,5.6161,5.6194,5.622,5.6239,5.6236,5.5959,5.5732,5.5803,5.5513,5.5064,5.4576,5.4128,5.3757,5.3328,5.28,5.2468,5.2078,5.1999,5.1785,5.1453,5.1394,5.1394,5.1394,5.1394,5.1394,5.1531,5.1765,5.202,5.2037,5.2839,5.3376,5.3461,5.3097,5.2802,5.2983,5.3382,5.3692,5.4064,5.4121,5.4133,5.4336,5.4535,5.4824,5.4799,5.5217,5.532,5.5396,5.5403,5.5396,5.5396,5.5358,5.5377,5.5396,5.5396,5.5396,5.5377,5.5207,5.5092,5.5002,5.4634,5.4288,5.4219,5.3925,5.3758,5.3603,5.344,5.3251,5.3206,5.3196,5.3196,5.3209,5.322,5.3254,5.3287,5.3336,5.3396,5.3449,5.3489,5.3556,5.3598,5.3676,5.3707,5.3697,5.3707,5.3754,5.3539,5.331,5.3204,5.2994,5.235,5.1932,5.2047,5.2225,5.2482,5.2827,5.335,5.3782,5.6008,5.6008,5.6008,5.6008,5.6008,5.6008,5.6008,5.6008,5.6008,5.6012,5.6008,5.6008,5.6042,5.6054,5.6033,5.6037,5.6058,5.6086,5.6102,5.6149,5.6161,5.6178,5.6181,5.6166,5.6212,5.655,5.6369,5.5996,5.5597,5.5299,5.4694,5.4244,5.3971,5.3463,5.2996,5.2879,5.2644,5.2156,5.2097,5.2038,5.1999,5.1999,5.1999,5.2156,5.2546,5.2898,5.3074,5.3715,5.4458,5.5083,5.524,5.5127,5.4913,5.4703,5.4778,5.5464,5.5332,5.5245,5.5224,5.5399,5.5458,5.5535,5.5438,5.5382,5.5383,5.5396,5.5384,5.5396,5.5396,5.5396,5.5396,5.5396,5.5396,5.539,5.5396,5.5396,5.5292,5.4814,5.461,5.4498,5.4303,5.4094,5.3823,5.3593,5.3398,5.3217,5.3206,5.3206,5.323,5.3264,5.3308,5.3369,5.3429,5.3477,5.3548,5.3619,5.3667,5.3686,5.3764,5.3765,5.3784,5.3784,5.3765,5.3688,5.3522,5.3361,5.308,5.2527,5.228,5.2335,5.2251,5.226,5.2684,5.326,5.3515,5.6008,5.6008,5.6008,5.6008,5.6008,5.6008,5.6008,5.6008,5.6008,5.6008,5.6008,5.6008,5.5993,5.602,5.6016,5.5993,5.6025,5.6029,5.6029,5.6061,5.6069,5.6106,5.6188,5.6196,5.6289,5.6392,5.6445,5.6346,5.6154,5.5675,5.534,5.4987,5.4478,5.399,5.3893,5.3776,5.3659,5.3288,5.3268,5.3288,5.3288,5.3288,5.3288,5.3327,5.36,5.3756,5.3972,5.4597,5.5158,5.5304,5.5801,5.5987,5.5881,5.5633,5.5594,5.5653,5.5642,5.5621,5.5629,5.5607,5.5604,5.5575,5.5486,5.542,5.5395,5.539,5.5403,5.5384,5.5384,5.5396,5.5396,5.5384,5.5396,5.5396,5.5396,5.5396,5.537,5.5259,5.5111,5.5028,5.4765,5.4441,5.4157,5.3814,5.3532,5.3347,5.3251,5.3243,5.3256,5.3318,5.3418,5.3479,5.3529,5.3606,5.3664,5.3725,5.3765,5.3755,5.3784,5.3784,5.3803,5.3803,5.3765,5.3717,5.3591,5.3412,5.3043,5.2666,5.2465,5.2392,5.221,5.1965,5.2243,5.2564,5.2654,5.6008,5.6008,5.6008,5.6008,5.6008,5.6008,5.6008,5.6008,5.6008,5.6008,5.6008,5.6008,5.6008,5.6008,5.6008,5.6008,5.6008,5.6008,5.6008,5.6008,5.6016,5.6031,5.6108,5.6112,5.6182,5.6262,5.633,5.644,5.6552,5.6209,5.5932,5.5891,5.5496,5.5142,5.4752,5.4675,5.442,5.4186,5.4049,5.4049,5.4029,5.4029,5.4029,5.4108,5.4459,5.4655,5.4849,5.5513,5.5962,5.6036,5.6288,5.6433,5.6373,5.6205,5.5992,5.5877,5.5789,5.5719,5.5705,5.5657,5.5646,5.5635,5.5556,5.5516,5.5511,5.5495,5.5427,5.5403,5.539,5.5396,5.5384,5.539,5.539,5.5384,5.5396,5.5403,5.5396,5.5396,5.5403,5.5364,5.499,5.4666,5.4517,5.4148,5.372,5.3484,5.3328,5.3308,5.331,5.341,5.3528,5.3569,5.3629,5.3668,5.3734,5.3764,5.3813,5.3813,5.3813,5.3813,5.3813,5.3813,5.3813,5.3775,5.363,5.3492,5.3341,5.3033,5.2751,5.2431,5.212,5.1872,5.1769,5.1815,5.2024,5.6008,5.6008,5.6008,5.6008,5.6008,5.6008,5.6008,5.6008,5.6008,5.6008,5.6008,5.6008,5.6008,5.6008,5.6008,5.6008,5.6008,5.6008,5.6008,5.6008,5.6008,5.5993,5.6008,5.601,5.6075,5.623,5.6249,5.6377,5.6504,5.6493,5.6585,5.6485,5.6557,5.6317,5.5694,5.5558,5.5048,5.4771,5.4516,5.4516,5.4517,5.4517,5.4517,5.4556,5.5201,5.5573,5.565,5.6118,5.6468,5.6507,5.6583,5.6603,5.6579,5.6446,5.6234,5.6012,5.5923,5.5826,5.5769,5.5689,5.5678,5.5673,5.5643,5.5621,5.5593,5.5541,5.5468,5.5413,5.542,5.5427,5.5434,5.5415,5.5415,5.5428,5.5434,5.5422,5.5434,5.5441,5.5415,5.5288,5.5061,5.488,5.4712,5.437,5.3925,5.3613,5.3454,5.3408,5.342,5.3558,5.3656,5.3696,5.3726,5.3765,5.3784,5.3774,5.3813,5.3813,5.3813,5.3813,5.3813,5.3813,5.3813,5.3813,5.3775,5.3659,5.3541,5.3351,5.2976,5.2556,5.2102,5.1859,5.1878,5.1772,5.1815,5.6008,5.6008,5.6008,5.6008,5.6008,5.6008,5.6008,5.6008,5.6008,5.6008,5.6008,5.6008,5.6008,5.6008,5.6008,5.6008,5.6008,5.6008,5.6008,5.6008,5.6008,5.6008,5.6008,5.6008,5.6056,5.6161,5.6197,5.629,5.6421,5.6523,5.6592,5.6591,5.6609,5.6509,5.6327,5.6247,5.642,5.6256,5.6216,5.6195,5.6156,5.6136,5.6117,5.6175,5.6273,5.6332,5.6294,5.6527,5.6605,5.6605,5.6605,5.6605,5.6604,5.6583,5.6447,5.6256,5.605,5.5879,5.5844,5.5774,5.57,5.5695,5.5635,5.5602,5.559,5.5556,5.551,5.5479,5.5492,5.548,5.5482,5.5499,5.548,5.5488,5.5489,5.5495,5.5501,5.5464,5.5458,5.5427,5.5262,5.509,5.4909,5.4517,5.4141,5.3842,5.3612,5.3561,5.3558,5.3666,5.3743,5.3754,5.3765,5.3803,5.3813,5.3813,5.3813,5.3813,5.3813,5.3813,5.3813,5.3813,5.3813,5.3813,5.3813,5.3803,5.3669,5.3432,5.3122,5.2769,5.2414,5.2221,5.212,5.1945,5.1778,5.6008,5.6008,5.6008,5.6008,5.6008,5.6008,5.6008,5.6008,5.6008,5.6008,5.6008,5.6008,5.6008,5.6008,5.6008,5.6008,5.6008,5.6008,5.6008,5.6008,5.6008,5.6008,5.6008,5.6008,5.6051,5.6087,5.6158,5.6218,5.632,5.6422,5.6523,5.6578,5.6614,5.6611,5.6607,5.6604,5.66,5.6556,5.6571,5.6605,5.6605,5.6605,5.6605,5.6605,5.6605,5.6605,5.6605,5.6605,5.6605,5.6605,5.6605,5.6605,5.6605,5.6604,5.6533,5.6493,5.6264,5.608,5.5917,5.584,5.5774,5.571,5.5662,5.5651,5.564,5.5596,5.5556,5.5537,5.5556,5.5564,5.5527,5.5539,5.5527,5.5522,5.5522,5.5516,5.5516,5.5523,5.5505,5.548,5.5468,5.5295,5.5098,5.4758,5.4468,5.425,5.3934,5.3717,5.3687,5.3716,5.3764,5.3784,5.3793,5.3813,5.3813,5.3813,5.3813,5.3813,5.3813,5.3813,5.3813,5.3813,5.3813,5.3813,5.3813,5.3775,5.3746,5.3512,5.3196,5.2965,5.2758,5.2527,5.2308,5.2198,5.2166,5.6008,5.6008,5.6008,5.6008,5.6008,5.6008,5.6008,5.6008,5.6008,5.6008,5.6008,5.6008,5.6008,5.6008,5.6008,5.6008,5.6008,5.6008,5.6008,5.6008,5.6008,5.6008,5.6008,5.6008,5.6008,5.6008,5.6087,5.6168,5.6225,5.6301,5.6431,5.6562,5.6581,5.6597,5.6614,5.6611,5.6607,5.6619,5.661,5.6606,5.6605,5.6605,5.6605,5.6605,5.6605,5.6605,5.6605,5.6605,5.6605,5.6605,5.6605,5.6605,5.6605,5.6604,5.6604,5.6553,5.6427,5.6266,5.6084,5.5954,5.5845,5.5748,5.5689,5.5678,5.5698,5.564,5.5618,5.5618,5.5638,5.5615,5.5573,5.5602,5.5615,5.5585,5.5568,5.5556,5.5551,5.5556,5.5556,5.5545,5.5545,5.5551,5.5301,5.499,5.4761,5.4632,5.4328,5.3954,5.386,5.387,5.3832,5.3851,5.3803,5.3813,5.3813,5.3813,5.3813,5.3813,5.3813,5.3813,5.3813,5.3813,5.3813,5.3813,5.3813,5.3803,5.3775,5.3541,5.33,5.3227,5.3072,5.2725,5.2495,5.2436,5.2791,5.6008,5.6008,5.6027,5.6027,5.6008,5.6008,5.6008,5.6008,5.6008,5.6008,5.6008,5.6008,5.6008,5.6008,5.6008,5.6008,5.6008,5.6008,5.6008,5.6008,5.6008,5.6008,5.6008,5.6008,5.6008,5.6008,5.6043,5.6102,5.6168,5.6215,5.634,5.6467,5.6538,5.6582,5.66,5.6599,5.6611,5.6603,5.6612,5.6607,5.6605,5.6605,5.6605,5.6605,5.6605,5.6605,5.6605,5.6605,5.6605,5.6605,5.6605,5.6605,5.6605,5.6605,5.6605,5.66,5.6577,5.6406,5.6229,5.604,5.5873,5.5758,5.5689,5.5689,5.5703,5.5689,5.5678,5.5673,5.5682,5.5687,5.5682,5.5698,5.5676,5.5665,5.5629,5.5629,5.5629,5.564,5.5635,5.5613,5.5607,5.5607,5.5585,5.5282,5.5085,5.4947,5.4655,5.4279,5.4142,5.4116,5.3972,5.3907,5.3823,5.3813,5.3813,5.3813,5.3813,5.3813,5.3813,5.3813,5.3813,5.3813,5.3813,5.3813,5.3813,5.3813,5.3793,5.36,5.3501,5.3531,5.34,5.3092,5.3078,5.3159,5.3758,5.7598,5.754,5.7033,5.6491,5.6008,5.6008,5.6008,5.6008,5.6008,5.6008,5.6008,5.6008,5.6008,5.6008,5.6008,5.6008,5.6008,5.6008,5.6008,5.6008,5.6008,5.6008,5.6008,5.6008,5.6008,5.6008,5.5993,5.6005,5.6079,5.6153,5.6223,5.634,5.6455,5.6524,5.6555,5.6582,5.6615,5.6605,5.6617,5.6613,5.6605,5.6605,5.6605,5.6605,5.6605,5.6605,5.6605,5.6605,5.6605,5.6605,5.6605,5.6605,5.6605,5.6605,5.6605,5.6605,5.6605,5.6502,5.635,5.6178,5.605,5.5835,5.5758,5.5689,5.5689,5.5689,5.5689,5.5689,5.5689,5.5689,5.5689,5.5684,5.5703,5.5689,5.5689,5.5689,5.5689,5.5689,5.5684,5.5646,5.5651,5.5682,5.566,5.559,5.5438,5.5262,5.4952,5.4658,5.4468,5.4296,5.4133,5.3935,5.3832,5.3813,5.3813,5.3813,5.3813,5.3813,5.3813,5.3813,5.3813,5.3813,5.3813,5.3813,5.3813,5.3813,5.3756,5.3688,5.3649,5.3669,5.3643,5.357,5.3648,5.3922,5.4576,5.8453,5.8159,5.7555,5.6955,5.6394,5.6104,5.6008,5.6008,5.6008,5.6008,5.6008,5.6008,5.6008,5.6008,5.6008,5.6008,5.6008,5.6008,5.6008,5.6008,5.6008,5.6008,5.6008,5.6008,5.6008,5.6008,5.6008,5.6016,5.6033,5.6098,5.6123,5.6188,5.6315,5.6416,5.6522,5.6561,5.6616,5.6611,5.6602,5.6619,5.6611,5.6606,5.6605,5.6605,5.6605,5.6605,5.6605,5.6605,5.6605,5.6605,5.6605,5.6605,5.6605,5.6605,5.6605,5.6605,5.66,5.6527,5.6413,5.6219,5.6104,5.5892,5.5754,5.571,5.5689,5.5689,5.5689,5.5689,5.5689,5.5689,5.5689,5.5689,5.5689,5.5689,5.5689,5.5689,5.5689,5.5689,5.5689,5.5678,5.5703,5.5703,5.5692,5.5665,5.5596,5.5492,5.5369,5.5011,5.4627,5.4455,5.4272,5.4035,5.3804,5.3813,5.3813,5.3813,5.3813,5.3813,5.3813,5.3813,5.3813,5.3813,5.3813,5.3813,5.3813,5.3813,5.3784,5.3745,5.3765,5.3793,5.3905,5.4141,5.4735,5.5056,5.5322,5.8197,5.7361,5.7376,5.7303,5.7091,5.6336,5.6008,5.6008,5.6008,5.6008,5.6008,5.6008,5.6008,5.6008,5.6008,5.6008,5.6008,5.6008,5.6008,5.6008,5.6008,5.6008,5.6008,5.6008,5.6008,5.6008,5.6008,5.6008,5.6008,5.6026,5.6026,5.6056,5.6201,5.6333,5.6505,5.6581,5.6619,5.6618,5.6609,5.6604,5.6618,5.6611,5.6608,5.6605,5.6605,5.6605,5.6605,5.6605,5.6605,5.6605,5.6605,5.6605,5.6605,5.6605,5.6605,5.6605,5.6605,5.6603,5.6574,5.6161,5.5994,5.5935,5.5849,5.5738,5.5716,5.5695,5.5689,5.5689,5.5689,5.5689,5.5689,5.5689,5.5689,5.5689,5.5689,5.5689,5.5689,5.5689,5.5689,5.5689,5.5689,5.5689,5.5689,5.5684,5.5684,5.5662,5.5678,5.5387,5.4912,5.4623,5.4449,5.4152,5.3898,5.3813,5.3813,5.3813,5.3813,5.3813,5.3813,5.3813,5.3813,5.3813,5.3813,5.3813,5.3813,5.3813,5.3831,5.3822,5.4249,5.4712,5.4693,5.4963,5.5623,5.6128,5.634,5.9764,5.899,5.8391,5.783,5.7226,5.6375,5.6008,5.6008,5.6008,5.6008,5.6008,5.6008,5.6008,5.6008,5.6008,5.6008,5.6008,5.6008,5.6008,5.6008,5.6008,5.6008,5.6008,5.6008,5.6008,5.6008,5.6008,5.6008,5.6008,5.6008,5.6008,5.6035,5.6154,5.6325,5.6457,5.6559,5.662,5.6619,5.6616,5.6612,5.6602,5.6618,5.6612,5.6606,5.6605,5.6605,5.6605,5.6605,5.6605,5.6605,5.6605,5.6605,5.6605,5.6605,5.6605,5.6605,5.6605,5.6605,5.6552,5.6318,5.6197,5.6097,5.5943,5.5827,5.5832,5.5733,5.571,5.5689,5.5689,5.5689,5.5689,5.5689,5.5689,5.5689,5.5689,5.5689,5.5689,5.5689,5.5689,5.5689,5.5689,5.5689,5.5689,5.5689,5.5689,5.5689,5.5689,5.5562,5.5158,5.4843,5.4626,5.4281,5.4018,5.3879,5.3813,5.3813,5.3813,5.3813,5.3813,5.3813,5.3813,5.3813,5.3813,5.3813,5.3813,5.3813,5.4156,5.4602,5.5363,5.5766,5.5878,5.5939,5.6392,5.6863,5.7152,6.0441,5.942,5.884,5.7907,5.6859,5.624,5.6008,5.6008,5.6008,5.6008,5.6008,5.6008,5.6008,5.6008,5.6008,5.6008,5.6008,5.6008,5.6008,5.6008,5.6008,5.6008,5.6008,5.6008,5.6008,5.6008,5.6008,5.6008,5.6008,5.6008,5.6031,5.6102,5.6197,5.6342,5.6459,5.6551,5.6581,5.6601,5.6619,5.6615,5.6609,5.6602,5.6616,5.6608,5.6605,5.6605,5.6605,5.6624,5.6644,5.6663,5.6663,5.6644,5.6644,5.6624,5.6624,5.6605,5.6605,5.6605,5.6553,5.6502,5.6402,5.6395,5.6094,5.5921,5.5876,5.5783,5.5721,5.5689,5.5728,5.5766,5.5805,5.5805,5.5843,5.5862,5.5862,5.5862,5.5843,5.5862,5.5882,5.5862,5.5882,5.5843,5.5824,5.5689,5.5689,5.5689,5.5684,5.5533,5.5383,5.5104,5.481,5.4463,5.4187,5.4017,5.3907,5.3813,5.3813,5.3813,5.3813,5.3813,5.3813,5.3813,5.3813,5.3905,5.4166,5.4481,5.4899,5.5437,5.6236,5.6893,5.7272,5.7325,5.7346,5.7498,5.776,6.0093,5.8705,5.8569,5.7559,5.6182,5.6008,5.6008,5.6008,5.6008,5.6008,5.6008,5.6008,5.6008,5.6008,5.6008,5.6008,5.6008,5.6008,5.6008,5.6008,5.6008,5.6008,5.6008,5.6008,5.6008,5.6027,5.6124,5.6336,5.6124,5.651,5.6536,5.6482,5.6731,5.6874,5.6956,5.7025,5.6886,5.6738,5.662,5.6618,5.6613,5.6743,5.6834,5.6905,5.7017,5.7094,5.7112,5.7073,5.6995,5.6937,5.6859,5.6781,5.6702,5.6644,5.6644,5.6624,5.6624,5.6781,5.6818,5.683,5.6986,5.7061,5.6558,5.6176,5.5894,5.5841,5.5869,5.5941,5.6035,5.6016,5.5997,5.6093,5.617,5.6151,5.6151,5.6132,5.6112,5.6112,5.6151,5.617,5.6209,5.6242,5.6338,5.6242,5.6299,5.6093,5.6063,5.5766,5.5589,5.5345,5.5028,5.4677,5.4405,5.4186,5.4054,5.3954,5.3832,5.3841,5.3822,5.3813,5.3813,5.3943,5.4119,5.4379,5.4732,5.5177,5.5827,5.6477,5.7183,5.7736,5.8103,5.8114,5.7945,5.7972,5.8142,5.959,5.8569,5.7927,5.7033,5.6085,5.6008,5.6008,5.6008,5.6008,5.6008,5.6008,5.6008,5.6008,5.6008,5.6008,5.6008,5.6008,5.6008,5.6008,5.6008,5.6008,5.6008,5.6046,5.6085,5.6027,5.6278,5.6588,5.6936,5.7091,5.7366,5.7772,5.8017,5.7781,5.7951,5.8062,5.8247,5.7569,5.7031,5.6875,5.6854,5.7008,5.7277,5.7387,5.7555,5.7956,5.8072,5.8148,5.8186,5.8205,5.8264,5.8323,5.8186,5.7465,5.7426,5.7348,5.6742,5.7034,5.7484,5.7562,5.801,5.8264,5.8158,5.7977,5.7153,5.6548,5.6147,5.6257,5.6521,5.6682,5.6753,5.6983,5.7101,5.7104,5.7088,5.7088,5.7069,5.7069,5.7069,5.7069,5.7069,5.7088,5.7088,5.7146,5.7261,5.728,5.6863,5.6481,5.6148,5.5804,5.5571,5.5262,5.4916,5.4723,5.4528,5.4305,5.4186,5.3999,5.3889,5.3841,5.3896,5.4035,5.4221,5.4509,5.501,5.566,5.631,5.6942,5.7629,5.8353,5.8335,5.86,5.8596,5.859,5.8553,5.8483,5.8879,5.8062,5.7535,5.6801,5.6085,5.6008,5.6008,5.6008,5.6008,5.6008,5.6008,5.6008,5.6008,5.6008,5.6008,5.6008,5.6008,5.6008,5.6008,5.6008,5.6046,5.6298,5.6375,5.6549,5.6839,5.7091,5.7443,5.7811,5.8004,5.8235,5.8582,5.8616,5.8742,5.8882,5.8872,5.881,5.855,5.8027,5.7695,5.7617,5.781,5.8081,5.8252,5.8439,5.8977,5.9129,5.9183,5.9201,5.9162,5.9123,5.9123,5.8908,5.8324,5.8285,5.8226,5.7796,5.801,5.8303,5.8401,5.8695,5.9006,5.9116,5.9072,5.839,5.7781,5.7365,5.7474,5.7643,5.7651,5.7736,5.8062,5.8327,5.827,5.8217,5.8217,5.8217,5.8217,5.8217,5.8198,5.8198,5.8179,5.814,5.8198,5.8333,5.8159,5.7627,5.7113,5.6659,5.6242,5.584,5.5515,5.5171,5.5042,5.4887,5.467,5.4441,5.4285,5.4082,5.387,5.3944,5.4194,5.4723,5.5215,5.5976,5.6775,5.7517,5.8297,5.891,5.9497,5.9441,5.9497,5.9706,5.9518,5.8969,5.8866,5.8019,5.7314,5.7198,5.6699,5.6066,5.6008,5.6008,5.6008,5.6008,5.6008,5.6008,5.6008,5.6008,5.6008,5.6008,5.6008,5.6008,5.6008,5.6008,5.6027,5.6278,5.6588,5.7009,5.7376,5.7656,5.8279,5.8724,5.8797,5.886,5.9129,5.9275,5.8923,5.9179,5.9464,5.9644,5.9713,5.9609,5.9531,5.9316,5.9238,5.9042,5.9157,5.9272,5.9225,5.9375,5.9468,5.9441,5.9378,5.9299,5.9338,5.9377,5.9455,5.924,5.8986,5.8947,5.9045,5.9045,5.9181,5.9299,5.9552,5.9572,5.9533,5.9296,5.9383,5.9183,5.839,5.8305,5.8602,5.8666,5.8856,5.9152,5.9266,5.9267,5.9191,5.9165,5.9165,5.9165,5.9165,5.9179,5.916,5.916,5.914,5.9146,5.9223,5.9044,5.8434,5.7992,5.7517,5.6973,5.6484,5.5971,5.5599,5.5377,5.5242,5.4952,5.4735,5.4595,5.4359,5.425,5.4483,5.5039,5.5522,5.6013,5.7276,5.8632,5.9059,5.9728,6.0136,6.0407,6.0574,6.0685,6.0983,6.063,5.9887,5.9645,5.746,5.7162,5.6554,5.6166,5.6023,5.6008,5.6008,5.6008,5.6008,5.6008,5.6008,5.6008,5.6008,5.6008,5.6008,5.6008,5.6008,5.6008,5.6008,5.622,5.6491,5.6917,5.7439,5.7927,5.8372,5.8743,5.9208,5.9841,6.0132,6.0329,6.0491,6.0582,6.0572,6.0529,6.0684,6.0755,6.0781,6.0762,6.0762,6.0234,5.957,5.9881,6.0094,6.0285,6.0477,6.0821,6.089,6.0962,6.1019,6.1094,6.1094,6.0762,6.0139,5.9494,5.9181,5.922,5.9786,6.0021,6.0216,6.0489,6.0723,6.0899,6.0937,6.1009,6.0612,5.9521,5.9101,5.9493,5.976,5.9987,6.0108,6.0162,6.0174,6.0118,6.0056,6.0056,6.0056,6.005,6.0069,6.0089,6.0089,6.0069,6.0031,5.9935,5.9781,5.9511,5.9223,5.8781,5.8165,5.7615,5.6769,5.6322,5.5838,5.5594,5.5358,5.5408,5.5455,5.54,5.5352,5.5604,5.598,5.6999,5.8048,5.9412,6.06,6.0693,6.0741,6.089,6.115,6.1484,6.1585,6.1752,6.1585,6.0972,6.0805,5.6697,5.6602,5.6188,5.5975,5.5969,5.599,5.5995,5.6001,5.5999,5.6008,5.6008,5.6008,5.6008,5.6008,5.6008,5.6008,5.6008,5.6008,5.6008,5.622,5.6588,5.7207,5.7753,5.8391,5.9203,5.9609,6.0093,6.0692,6.106,6.1065,6.1055,6.1209,6.1247,6.1343,6.148,6.1508,6.1557,6.1601,6.1653,6.1091,6.0195,6.0683,6.0956,6.1208,6.1378,6.1703,6.1714,6.1707,6.1701,6.168,6.1602,6.1483,6.0977,6.0626,6.0351,6.0431,6.0723,6.0978,6.1114,6.1348,6.1699,6.1699,6.1699,6.1441,6.1441,6.0503,6.048,6.0781,6.0692,6.0858,6.0815,6.0813,6.0702,6.0614,6.052,6.0473,6.0473,6.0492,6.0492,6.0492,6.0492,6.0492,6.0473,6.0454,6.03,6.0146,5.9935,5.955,5.9031,5.8684,5.7857,5.728,5.6934,5.6486,5.6281,5.6422,5.6629,5.6554,5.6436,5.7183,5.7881,5.9018,6.0184,6.0953,6.1492,6.1689,6.1744,6.1837,6.2171,6.2588,6.2532,6.2439,6.2179,6.1919,6.1715,5.6031,5.5985,5.5976,5.5957,5.5914,5.5979,5.5992,5.5999,5.5996,5.5999,5.5995,5.5995,5.5999,5.6008,5.6008,5.6008,5.6008,5.6008,5.6008,5.6066,5.6259,5.7052,5.7907,5.8705,5.9667,6.0402,6.0886,6.0983,6.1094,6.1099,6.1113,6.1121,6.1196,6.1292,6.1318,6.1379,6.1441,6.1546,6.1609,6.1645,6.1617,6.1699,6.1601,6.1639,6.1713,6.1707,6.1699,6.171,6.1703,6.1699,6.1699,6.1641,6.1582,6.1368,6.1426,6.1407,6.1368,6.1524,6.1621,6.1602,6.1699,6.1699,6.1699,6.1699,6.1679,6.1658,6.1616,6.1559,6.1471,6.1422,6.1359,6.1282,6.1147,6.0954,6.0869,6.0787,6.0787,6.0781,6.08,6.08,6.08,6.08,6.08,6.08,6.0723,6.0589,6.0358,5.9954,5.9608,5.9415,5.8934,5.8665,5.8492,5.8,5.7368,5.7347,5.7596,5.7673,5.7721,5.8728,5.9617,6.021,6.0871,6.164,6.2105,6.2339,6.2654,6.2822,6.32,6.3238,6.2885,6.2513,6.2513,6.229,6.2328,5.5981,5.5909,5.5856,5.5851,5.5905,5.5966,5.5981,5.5943,5.5966,5.6008,5.6008,5.5993,5.6007,5.6008,5.6008,5.6008,5.6008,5.6008,5.6008,5.6046,5.6452,5.7091,5.7903,5.8937,6.0093,6.0692,6.1017,6.1094,6.1094,6.1094,6.1099,6.1108,6.1108,6.1192,6.128,6.1327,6.135,6.1443,6.153,6.1582,6.1623,6.1655,6.1699,6.1699,6.1717,6.1713,6.1707,6.17,6.171,6.1703,6.1699,6.1699,6.1699,6.1699,6.1699,6.1699,6.1699,6.1699,6.1699,6.1699,6.1699,6.1699,6.1699,6.1699,6.1698,6.1698,6.1677,6.1677,6.1607,6.1565,6.1502,6.1444,6.1331,6.1061,6.0901,6.0831,6.0793,6.0787,6.08,6.08,6.08,6.08,6.08,6.08,6.0781,6.0704,6.0704,6.0358,6.03,6.0127,5.9896,5.9838,5.9742,5.9165,5.8385,5.8283,5.8443,5.856,5.8863,5.9605,6.0266,6.0824,6.1473,6.1882,6.2532,6.2952,6.3267,6.2885,6.3108,6.2959,6.2699,6.2476,6.2495,6.2309,6.2012]}]]